[[{"header":{"parameterUnit":"m.s-1","parameterCategory":1,"la1":30.6,"la2":28.766,"lo1":-90.7593,"lo2":-88.6598,"dy":0.0162,"dx":0.0183,"nx":116,"ny":114,"refTime":"2023-04-03T06:00:00:Z","depth":0,"parameterNumber":2,"parameterNumberName":"U-component_of_WINDS"},"data":[0.0,0.0,0.0,0.0,0.0,0.0,0.0,0.0,0.0,0.0,0.0,0.0,0.0,0.0,0.0,0.0,0.0,0.0,0.0,0.0,0.0,0.0,0.0,0.0,0.0,0.0,0.0,0.0,0.0,0.0,0.0,0.0,0.0,0.0,0.0,0.0,0.0,0.0,0.0,0.0,0.0,0.0,0.0,0.0,0.0,0.0,0.0,0.0,0.0,0.0,0.0,0.0,0.0,0.0,0.0,0.0,0.0,0.0,0.0,0.0,0.0,0.0,0.0,0.0,0.0,0.0,0.0,0.0,0.0,0.0,0.0,0.0,0.0,0.0,0.0,0.0,0.0,0.0,0.0,0.0,0.0,0.0,0.0,0.0,0.0,0.0,0.0,0.0,0.0,0.0,0.0,0.0,0.0,0.0,0.0,0.0,0.0,0.0,0.0,0.0,0.0,0.0,0.0,0.0,0.0,0.0,0.0,0.0,0.0,0.0,0.0,0.0,0.0,0.0,0.0,0.0,0.0,0.0,0.0,0.0,0.0,0.0,0.0,0.0,0.0,0.0,0.0,0.0,0.0,0.0,0.0,0.0,0.0,0.0,0.0,0.0,0.0,0.0,0.0,0.0,0.0,0.0,0.0,0.0,0.0,0.0,0.0,0.0,0.0,0.0,0.0,0.0,0.0,0.0,0.0,0.0,0.0,0.0,0.0,0.0,0.0,0.0,0.0,0.0,0.0,0.0,0.0,0.0,0.0,0.0,0.0,0.0,0.0,0.0,0.0,0.0,0.0,0.0,0.0,0.0,0.0,0.0,0.0,0.0,0.0,0.0,0.0,0.0,0.0,0.0,0.0,0.0,0.0,0.0,0.0,0.0,0.0,0.0,0.0,0.0,0.0,0.0,0.0,0.0,0.0,0.0,0.0,0.0,0.0,0.0,0.0,0.0,0.0,0.0,0.0,0.0,0.0,0.0,0.0,0.0,0.0,0.0,0.0,0.0,0.0,0.0,0.0,0.0,0.0,0.0,0.0,0.0,0.0,0.0,0.0,0.0,0.0,0.0,0.0,0.0,0.0,0.0,0.0,0.0,0.0,0.0,0.0,0.0,0.0,0.0,0.0,0.0,0.0,0.0,0.0,0.0,0.0,0.0,0.0,0.0,0.0,0.0,0.0,0.0,0.0,0.0,0.0,0.0,0.0,0.0,0.0,0.0,0.0,0.0,0.0,0.0,0.0,0.0,0.0,0.0,0.0,0.0,0.0,0.0,0.0,0.0,0.0,0.0,0.0,0.0,0.0,0.0,0.0,0.0,0.0,0.0,0.0,0.0,0.0,0.0,0.0,0.0,0.0,0.0,0.0,0.0,0.0,0.0,0.0,0.0,0.0,0.0,0.0,0.0,0.0,0.0,0.0,0.0,0.0,0.0,0.0,0.0,0.0,0.0,0.0,0.0,0.0,0.0,0.0,0.0,0.0,0.0,0.0,0.0,0.0,0.0,0.0,0.0,0.0,0.0,0.0,0.0,0.0,0.0,0.0,0.0,0.0,0.0,0.0,0.0,0.0,0.0,0.0,0.0,0.0,0.0,0.0,0.0,0.0,0.0,0.0,0.0,0.0,0.0,0.0,0.0,0.0,0.0,0.0,0.0,0.0,0.0,0.0,0.0,0.0,0.0,0.0,0.0,0.0,0.0,0.0,0.0,0.0,0.0,0.0,0.0,0.0,0.0,0.0,0.0,0.0,0.0,0.0,0.0,0.0,0.0,0.0,0.0,0.0,0.0,0.0,0.0,0.0,0.0,0.0,0.0,0.0,0.0,0.0,0.0,0.0,0.0,0.0,0.0,0.0,0.0,0.0,0.0,0.0,0.0,0.0,0.0,0.0,0.0,0.0,0.0,0.0,0.0,0.0,0.0,0.0,0.0,0.0,0.0,0.0,0.0,0.0,0.0,0.0,0.0,0.0,0.0,0.0,0.0,0.0,0.0,0.0,0.0,0.0,0.0,0.0,0.0,0.0,0.0,0.0,0.0,0.0,0.0,0.0,0.0,0.0,0.0,0.0,0.0,0.0,0.0,0.0,0.0,0.0,0.0,0.0,0.0,0.0,0.0,0.0,0.0,0.0,0.0,0.0,0.0,0.0,0.0,0.0,0.0,0.0,0.0,0.0,0.0,0.0,0.0,0.0,0.0,0.0,0.0,0.0,0.0,0.0,0.0,0.0,0.0,0.0,0.0,0.0,0.0,0.0,0.0,0.0,0.0,0.0,0.0,0.0,0.0,0.0,0.0,0.0,0.0,0.0,0.0,0.0,0.0,0.0,0.0,0.0,0.0,0.0,0.0,0.0,0.0,0.0,0.0,0.0,0.0,0.0,0.0,0.0,0.0,0.0,0.0,0.0,0.0,0.0,0.0,0.0,0.0,0.0,0.0,0.0,0.0,0.0,0.0,0.0,0.0,0.0,0.0,0.0,0.0,0.0,0.0,0.0,0.0,0.0,0.0,0.0,0.0,0.0,0.0,0.0,0.0,0.0,0.0,0.0,0.0,0.0,0.0,0.0,0.0,0.0,0.0,0.0,0.0,0.0,0.0,0.0,0.0,0.0,0.0,0.0,0.0,0.0,0.0,0.0,0.0,0.0,0.0,0.0,0.0,0.0,0.0,0.0,0.0,0.0,0.0,0.0,0.0,0.0,0.0,0.0,0.0,0.0,0.0,0.0,0.0,0.0,0.0,0.0,0.0,0.0,0.0,0.0,0.0,0.0,0.0,0.0,0.0,0.0,0.0,0.0,0.0,0.0,0.0,0.0,0.0,0.0,0.0,0.0,0.0,0.0,0.0,0.0,0.0,0.0,0.0,0.0,0.0,0.0,0.0,0.0,0.0,0.0,0.0,0.0,0.0,0.0,0.0,0.0,0.0,0.0,0.0,0.0,0.0,0.0,0.0,0.0,0.0,0.0,0.0,0.0,0.0,0.0,0.0,0.0,0.0,0.0,0.0,0.0,0.0,0.0,0.0,0.0,0.0,0.0,0.0,0.0,0.0,0.0,0.0,0.0,0.0,0.0,0.0,0.0,0.0,0.0,0.0,0.0,0.0,0.0,0.0,0.0,0.0,0.0,0.0,0.0,0.0,0.0,0.0,0.0,0.0,0.0,0.0,0.0,0.0,0.0,0.0,0.0,0.0,0.0,0.0,0.0,0.0,0.0,0.0,0.0,0.0,0.0,0.0,0.0,0.0,0.0,0.0,0.0,0.0,0.0,0.0,0.0,0.0,0.0,0.0,0.0,0.0,0.0,0.0,0.0,0.0,0.0,0.0,0.0,0.0,0.0,0.0,0.0,0.0,0.0,0.0,0.0,0.0,0.0,0.0,0.0,0.0,0.0,0.0,0.0,0.0,0.0,0.0,0.0,0.0,0.0,0.0,0.0,0.0,0.0,0.0,0.0,0.0,0.0,0.0,0.0,0.0,0.0,0.0,0.0,0.0,0.0,0.0,0.0,0.0,0.0,0.0,0.0,0.0,0.0,0.0,0.0,0.0,0.0,0.0,0.0,0.0,0.0,0.0,0.0,0.0,0.0,0.0,0.0,0.0,0.0,0.0,0.0,0.0,0.0,0.0,0.0,0.0,0.0,0.0,0.0,0.0,0.0,0.0,0.0,0.0,0.0,0.0,0.0,0.0,0.0,0.0,0.0,0.0,0.0,0.0,0.0,0.0,0.0,0.0,0.0,0.0,0.0,0.0,0.0,0.0,0.0,0.0,0.0,0.0,0.0,0.0,0.0,0.0,0.0,0.0,0.0,0.0,0.0,0.0,0.0,0.0,0.0,0.0,0.0,0.0,0.0,0.0,0.0,0.0,0.0,0.0,0.0,0.0,0.0,0.0,0.0,0.0,0.0,0.0,0.0,0.0,0.0,0.0,0.0,0.0,0.0,0.0,0.0,0.0,0.0,0.0,0.0,0.0,0.0,0.0,0.0,0.0,0.0,0.0,0.0,0.0,0.0,0.0,0.0,0.0,0.0,0.0,0.0,0.0,0.0,0.0,0.0,0.0,0.0,0.0,0.0,0.0,0.0,0.0,0.0,0.0,0.0,0.0,0.0,0.0,0.0,0.0,0.0,0.0,0.0,0.0,0.0,0.0,0.0,0.0,0.0,0.0,0.0,0.0,0.0,0.0,0.0,0.0,0.0,0.0,0.0,0.0,0.0,0.0,0.0,0.0,0.0,0.0,0.0,0.0,0.0,0.0,0.0,0.0,0.0,0.0,0.0,0.0,0.0,0.0,0.0,0.0,0.0,0.0,0.0,0.0,0.0,0.0,0.0,0.0,0.0,0.0,0.0,0.0,0.0,0.0,0.0,0.0,0.0,0.0,0.0,0.0,0.0,0.0,0.0,0.0,0.0,0.0,0.0,0.0,0.0,0.0,0.0,0.0,0.0,0.0,0.0,0.0,0.0,0.0,0.0,0.0,0.0,0.0,0.0,0.0,0.0,0.0,0.0,0.0,0.0,0.0,0.0,0.0,0.0,0.0,0.0,0.0,0.0,0.0,0.0,0.0,0.0,0.0,0.0,0.0,0.0,0.0,0.0,0.0,0.0,0.0,0.0,0.0,0.0,0.0,0.0,0.0,0.0,0.0,0.0,0.0,0.0,0.0,0.0,0.0,0.0,0.0,0.0,0.0,0.0,0.0,0.0,0.0,0.0,0.0,0.0,0.0,0.0,0.0,0.0,0.0,0.0,0.0,0.0,0.0,0.0,0.0,0.0,0.0,0.0,0.0,0.0,0.0,0.0,0.0,0.0,0.0,0.0,0.0,0.0,0.0,0.0,0.0,0.0,0.0,0.0,0.0,0.0,0.0,0.0,0.0,0.0,0.0,0.0,0.0,0.0,0.0,0.0,0.0,0.0,0.0,0.0,0.0,0.0,0.0,0.0,0.0,0.0,0.0,0.0,0.0,0.0,0.0,0.0,0.0,0.0,0.0,0.0,0.0,0.0,0.0,0.0,0.0,0.0,0.0,0.0,0.0,0.0,0.0,0.0,0.0,0.0,0.0,0.0,0.0,0.0,0.0,0.0,0.0,0.0,0.0,0.0,0.0,0.0,0.0,0.0,0.0,0.0,0.0,0.0,0.0,0.0,0.0,0.0,0.0,0.0,0.0,0.0,0.0,0.0,0.0,0.0,0.0,0.0,0.0,0.0,0.0,0.0,0.0,0.0,0.0,0.0,0.0,0.0,0.0,0.0,0.0,0.0,0.0,0.0,0.0,0.0,0.0,0.0,0.0,0.0,0.0,0.0,0.0,0.0,0.0,0.0,0.0,0.0,0.0,0.0,0.0,0.0,0.0,0.0,0.0,0.0,0.0,0.0,0.0,0.0,0.0,0.0,0.0,0.0,0.0,0.0,0.0,0.0,0.0,0.0,0.0,0.0,0.0,0.0,0.0,0.0,0.0,0.0,0.0,0.0,0.0,0.0,0.0,0.0,0.0,0.0,0.0,0.0,0.0,0.0,0.0,0.0,0.0,0.0,0.0,0.0,0.0,0.0,0.0,0.0,0.0,0.0,0.0,0.0,0.0,0.0,0.0,0.0,0.0,0.0,0.0,0.0,0.0,0.0,0.0,0.0,0.0,0.0,0.0,0.0,0.0,0.0,0.0,0.0,0.0,0.0,0.0,0.0,0.0,0.0,0.0,0.0,0.0,0.0,0.0,0.0,0.0,0.0,0.0,0.0,0.0,0.0,0.0,0.0,0.0,0.0,0.0,0.0,0.0,0.0,0.0,0.0,0.0,0.0,0.0,0.0,0.0,0.0,0.0,0.0,0.0,0.0,0.0,0.0,0.0,0.0,0.0,0.0,0.0,0.0,0.0,0.0,0.0,0.0,0.0,0.0,0.0,0.0,0.0,0.0,0.0,0.0,0.0,0.0,0.0,0.0,0.0,0.0,0.0,0.0,0.0,0.0,0.0,0.0,0.0,0.0,0.0,0.0,0.0,0.0,0.0,0.0,0.0,0.0,0.0,0.0,0.0,0.0,0.0,0.0,0.0,0.0,0.0,0.0,0.0,0.0,0.0,0.0,0.0,0.0,0.0,0.0,0.0,0.0,0.0,0.0,0.0,0.0,0.0,-2.4203,0.0,0.0,0.0,0.0,0.0,0.0,0.0,0.0,0.0,0.0,0.0,0.0,0.0,0.0,0.0,0.0,0.0,0.0,0.0,0.0,0.0,0.0,0.0,0.0,0.0,0.0,0.0,0.0,0.0,0.0,0.0,0.0,0.0,0.0,0.0,0.0,0.0,0.0,0.0,-0.9478,-0.9174,-0.9326,-0.986,-1.0389,-1.0908,0.0,0.0,0.0,0.0,0.0,0.0,0.0,0.0,0.0,0.0,0.0,0.0,0.0,0.0,0.0,0.0,0.0,0.0,0.0,0.0,0.0,0.0,0.0,0.0,0.0,0.0,0.0,0.0,0.0,0.0,0.0,0.0,0.0,0.0,0.0,0.0,0.0,0.0,0.0,0.0,0.0,0.0,0.0,0.0,0.0,0.0,0.0,0.0,0.0,0.0,0.0,0.0,0.0,0.0,0.0,0.0,0.0,0.0,0.0,0.0,0.0,0.0,0.0,0.0,0.0,0.0,0.0,0.0,0.0,0.0,0.0,-2.522,0.0,0.0,0.0,0.0,0.0,0.0,0.0,0.0,0.0,0.0,0.0,0.0,0.0,0.0,0.0,0.0,0.0,0.0,0.0,0.0,0.0,0.0,0.0,-0.4935,-0.5545,-0.6136,-0.6689,-0.7,0.0,0.0,0.0,0.0,0.0,0.0,0.0,-0.9725,-0.9716,-1.0157,-0.9571,-0.9164,-0.8974,-0.9553,-1.022,-1.0974,-1.1274,0.0,0.0,0.0,0.0,0.0,0.0,0.0,0.0,0.0,0.0,0.0,0.0,0.0,0.0,0.0,0.0,0.0,0.0,0.0,0.0,0.0,0.0,0.0,0.0,0.0,0.0,0.0,0.0,0.0,0.0,0.0,0.0,0.0,0.0,0.0,0.0,0.0,0.0,0.0,0.0,0.0,0.0,0.0,0.0,0.0,0.0,0.0,0.0,0.0,0.0,0.0,0.0,0.0,0.0,0.0,0.0,0.0,0.0,0.0,0.0,0.0,0.0,0.0,-2.5875,-2.6181,-2.6691,-2.6691,-2.6691,-2.6657,-2.6065,-2.6133,-2.664,-2.6048,0.0,0.0,0.0,0.0,0.0,0.0,0.0,0.0,0.0,0.0,0.0,0.0,0.0,0.0,0.0,0.0,0.0,0.0,0.0,0.0,0.0,-0.4935,-0.5545,-0.6136,-0.6689,-0.7,-0.7,0.0,0.0,0.0,0.0,0.0,-0.9597,-0.9538,-0.9538,-0.9597,-0.8841,-0.8443,-0.8415,-0.9143,-1.0073,-1.1158,-1.0854,-1.1122,-1.181,0.0,0.0,0.0,0.0,0.0,0.0,0.0,0.0,0.0,0.0,0.0,0.0,0.0,0.0,0.0,0.0,0.0,0.0,0.0,0.0,0.0,0.0,0.0,0.0,0.0,0.0,0.0,0.0,0.0,0.0,0.0,0.0,0.0,0.0,0.0,0.0,0.0,0.0,0.0,0.0,0.0,-2.395,-2.4692,0.0,0.0,0.0,0.0,0.0,0.0,0.0,0.0,0.0,0.0,0.0,0.0,0.0,-2.5812,-2.6539,-2.6811,-2.6811,-2.6573,-2.6914,-2.6949,-2.6691,-2.6691,-2.6691,-2.6691,-2.659,0.0,-2.6691,-2.659,0.0,0.0,0.0,0.0,0.0,0.0,0.0,0.0,0.0,0.0,0.0,0.0,0.0,0.0,0.0,0.0,0.0,0.0,0.0,0.0,0.0,-0.513,-0.5674,-0.6577,-0.6273,-0.631,-0.6958,-0.7245,0.0,0.0,0.0,-0.9199,-0.9498,-0.9199,-0.8979,-0.8833,-0.8773,-0.8611,-0.8388,-0.9387,-1.0059,-1.0433,-1.1022,-1.17,-1.2448,-1.2947,0.0,0.0,0.0,0.0,0.0,0.0,0.0,0.0,0.0,0.0,0.0,0.0,0.0,0.0,0.0,0.0,0.0,0.0,0.0,0.0,0.0,0.0,0.0,0.0,0.0,0.0,0.0,0.0,0.0,0.0,0.0,0.0,0.0,0.0,0.0,0.0,0.0,0.0,0.0,-2.3742,-2.4511,-2.5248,-2.4907,-2.4644,0.0,0.0,0.0,0.0,0.0,0.0,0.0,0.0,0.0,-2.6201,-2.6218,-2.637,-2.6691,-2.6873,-2.6873,-2.6691,-2.6873,-2.6873,-2.6708,-2.7131,-2.7334,-2.7334,-2.7808,-2.774,-2.73,-2.686,-2.6505,-2.6218,0.0,0.0,0.0,0.0,-2.5998,-2.6302,0.0,0.0,0.0,0.0,0.0,0.0,0.0,0.0,0.0,0.0,0.0,0.0,-0.5,-0.5216,-0.5696,-0.6704,-0.6017,-0.5953,-0.6937,-0.6881,-0.7133,0.0,-0.8419,-0.8878,-0.9279,-0.8756,-0.8401,-0.8186,-0.876,-0.886,-0.8546,-0.9783,-1.0342,-1.0364,-1.1366,-1.2104,-1.2657,-1.329,-1.3661,-1.3831,0.0,0.0,0.0,0.0,0.0,0.0,0.0,0.0,0.0,0.0,0.0,0.0,0.0,0.0,0.0,0.0,0.0,0.0,0.0,0.0,0.0,0.0,0.0,0.0,0.0,0.0,0.0,0.0,0.0,0.0,0.0,0.0,0.0,0.0,0.0,0.0,0.0,-2.4237,-2.5005,-2.565,-2.5829,-2.583,0.0,0.0,0.0,0.0,0.0,0.0,-2.6691,-2.6691,-2.6691,-2.6691,-2.6691,-2.6691,-2.6691,-2.6691,-2.6691,-2.6691,-2.6894,-2.6979,-2.7012,-2.7756,-2.8094,-2.8128,-2.8756,-2.8653,-2.8043,-2.73,-2.686,-2.6691,-2.6691,-2.6691,-2.6708,-2.6911,-2.7317,-2.7756,0.0,0.0,0.0,0.0,0.0,0.0,0.0,0.0,0.0,0.0,0.0,-0.3836,-0.4391,-0.4957,-0.5545,-0.6179,-0.6179,-0.6392,-0.6958,-0.652,-0.6732,-0.7857,-0.8419,-0.8716,-0.8736,-0.8214,-0.7927,-0.7921,-0.8573,-0.8897,-0.8895,-1.018,-1.1099,-1.169,-1.1765,-1.1814,-1.1888,-1.2632,-1.3286,-1.3792,-1.3841,0.0,0.0,0.0,0.0,0.0,0.0,0.0,0.0,0.0,0.0,0.0,0.0,0.0,0.0,0.0,0.0,0.0,0.0,0.0,0.0,0.0,0.0,0.0,0.0,0.0,0.0,0.0,0.0,0.0,0.0,0.0,0.0,0.0,0.0,0.0,0.0,0.0,0.0,-2.6031,-2.6468,0.0,0.0,0.0,0.0,-2.5641,-2.6268,-2.6691,-2.6691,-2.6691,-2.6691,-2.6691,-2.6691,-2.6691,-2.6691,-2.6691,-2.6691,-2.6708,-2.7401,-2.7739,-2.7773,-2.8569,-2.8942,-2.8942,-2.8976,-2.8976,-2.8891,-2.8095,-2.7317,-2.6691,-2.6691,-2.6691,-2.6776,-2.7486,-2.7773,-2.7908,0.0,0.0,0.0,0.0,0.0,0.0,0.0,0.0,-0.4114,-0.4114,-0.4465,-0.4613,-0.4413,-0.4587,-0.4957,-0.5567,-0.4944,-0.5075,-0.6392,-0.5937,-0.6295,-0.7829,-0.8077,-0.818,-0.818,-0.7995,-0.7807,-0.7643,-0.8481,-0.901,-0.926,-1.0763,-1.1566,-1.1814,-1.2295,-1.2501,-1.2535,-1.2798,-1.3017,-1.3262,-1.3637,-1.4306,0.0,0.0,0.0,0.0,0.0,0.0,0.0,0.0,0.0,0.0,0.0,0.0,0.0,0.0,0.0,0.0,0.0,0.0,0.0,0.0,0.0,0.0,0.0,0.0,0.0,0.0,0.0,0.0,0.0,0.0,0.0,0.0,0.0,0.0,0.0,0.0,0.0,-2.6428,-2.6859,0.0,-2.6719,-2.6828,-2.6843,-2.6703,-2.6946,-2.6971,-2.6708,-2.6691,-2.6911,-2.7384,-2.7401,-2.7655,-2.818,-2.818,-2.818,-2.818,-2.845,-2.8569,-2.8602,-2.9364,-2.9702,-2.9736,-3.0192,-3.0142,-2.9685,-2.9396,-2.8856,-2.813,-2.7621,-2.7401,-2.7435,-2.7705,-2.8146,-2.8602,0.0,0.0,0.0,0.0,0.0,0.0,0.0,0.0,-0.4631,-0.443,-0.4935,-0.5065,-0.4456,-0.4587,-0.487,-0.526,-0.4618,-0.4748,-0.6114,-0.599,-0.6474,-0.7829,-0.7899,-0.7899,-0.7899,-0.7704,-0.761,-0.7628,-0.8709,-0.9455,-0.9906,-1.1458,-1.2163,-1.2197,-1.2811,-1.3042,-1.2915,-1.3037,-1.3008,-1.292,-1.3334,-1.3849,-1.4468,0.0,0.0,0.0,0.0,0.0,0.0,0.0,0.0,0.0,0.0,0.0,0.0,0.0,0.0,0.0,0.0,0.0,0.0,0.0,0.0,0.0,0.0,0.0,0.0,0.0,0.0,0.0,0.0,0.0,0.0,0.0,0.0,0.0,0.0,0.0,-2.632,-2.6657,-2.7178,-2.7411,-2.7131,-2.7225,-2.7239,-2.7115,-2.7099,-2.709,-2.708,-2.708,-2.7418,-2.8197,-2.8213,-2.8467,-2.8993,-2.8993,-2.8993,-2.8993,-2.9264,-2.9364,-2.9416,-3.0125,-3.048,-3.0497,-3.0987,-3.092,-3.048,-3.048,-3.0176,-2.9653,-2.8602,-2.8213,-2.8247,-2.8483,-2.8924,-2.9397,0.0,0.0,0.0,0.0,0.0,0.0,0.0,-0.4957,-0.5108,-0.4539,-0.4957,-0.5087,-0.4474,-0.4935,-0.5281,-0.5286,-0.5281,-0.5567,-0.6157,-0.6691,-0.7231,-0.785,-0.7891,-0.7899,-0.7899,-0.7321,-0.7321,-0.7948,-0.9269,-1.0225,-1.0853,-1.2248,-1.2915,-1.2944,-1.333,-1.3291,-1.2949,-1.335,-1.3291,-1.2944,-1.2915,-1.3262,-1.3886,0.0,0.0,0.0,0.0,0.0,0.0,0.0,0.0,0.0,0.0,0.0,0.0,0.0,0.0,0.0,0.0,0.0,0.0,0.0,0.0,0.0,0.0,0.0,0.0,0.0,0.0,0.0,0.0,0.0,0.0,0.0,0.0,0.0,-2.5744,-2.5971,-2.6352,-2.6657,-2.7394,-2.7592,-2.6791,-2.7068,-2.7165,-2.6775,-2.6759,-2.708,-2.7807,-2.7841,-2.8213,-2.901,-2.9027,-2.9044,-2.9077,-2.9077,-2.9077,-2.9077,-2.9786,-3.0123,-3.0176,-3.0869,-3.119,-3.119,-3.1207,-3.1224,-3.1241,-3.1258,-3.1258,-3.1106,-2.9619,-2.9027,-2.9128,-2.9837,-3.0106,-3.0243,0.0,0.0,0.0,0.0,0.0,0.0,0.0,-0.5852,-0.5894,-0.5723,-0.5852,-0.5567,-0.4517,-0.4935,-0.513,-0.4696,-0.5043,-0.5567,-0.6157,-0.6343,-0.6662,-0.7217,-0.7663,-0.7899,-0.7899,-0.7746,-0.8059,-0.8914,-1.0004,-1.0795,-1.1246,-1.2383,-1.3071,-1.334,-1.3457,-1.3613,-1.3773,-1.389,-1.387,-1.3714,-1.3125,-1.3515,-1.4468,0.0,0.0,0.0,0.0,0.0,0.0,0.0,0.0,0.0,0.0,0.0,0.0,0.0,0.0,0.0,0.0,0.0,0.0,0.0,0.0,0.0,0.0,0.0,0.0,0.0,0.0,0.0,0.0,0.0,0.0,0.0,-2.6573,-2.6623,-2.642,-2.6726,-2.6921,-2.6724,-2.7162,-2.7378,-2.7162,-2.7451,-2.7742,-2.7924,-2.8202,-2.8468,-2.8653,-2.867,-2.9008,-2.977,-2.9803,-3.0057,-3.0581,-3.0601,-3.0601,-3.0601,-3.0801,-3.0903,-3.0903,-3.1106,-3.119,-3.1224,-3.1769,-3.2005,-3.2039,-3.256,-3.2797,-3.2611,-3.0581,-2.9803,-2.982,-3.004,-3.0446,-3.092,0.0,0.0,0.0,0.0,0.0,0.0,0.0,-0.6392,-0.6456,-0.6221,-0.6392,-0.6081,-0.4908,-0.5308,-0.5437,-0.4822,-0.5324,-0.583,-0.6184,-0.6413,-0.6789,-0.7363,-0.7725,-0.7899,-0.7899,-0.8118,-0.8691,-0.9632,-1.0418,-1.1108,-1.1766,-1.2706,-1.3271,-1.3525,-1.3887,-1.4082,-1.4114,-1.4299,-1.427,-1.4085,-1.3799,-1.4169,-1.4967,-1.5552,-1.6426,-1.7378,-1.7994,-1.8521,-1.9095,-2.0048,0.0,0.0,0.0,0.0,0.0,0.0,0.0,0.0,0.0,0.0,0.0,0.0,0.0,0.0,0.0,0.0,0.0,0.0,0.0,0.0,0.0,0.0,0.0,0.0,-2.7165,-2.7283,-2.7622,-2.7572,-2.7553,-2.7639,-2.7879,-2.8013,-2.8013,-2.8202,-2.8404,-2.8631,-2.8865,-2.9128,-2.9431,-2.9448,-2.9803,-3.0548,-3.0852,-3.1224,-3.1667,-3.1968,-3.2121,-3.2121,-3.2121,-3.2121,-3.2121,-3.2121,-3.2121,-3.2154,-3.256,-3.2767,-3.278,-3.322,-3.3406,0.0,0.0,0.0,0.0,0.0,-3.0835,-3.119,0.0,0.0,0.0,0.0,0.0,0.0,0.0,-0.6683,-0.6831,-0.6349,-0.6704,-0.6592,-0.5518,-0.5937,-0.6044,-0.5459,-0.5937,-0.6285,-0.6285,-0.6725,-0.728,-0.7878,-0.7899,-0.7976,-0.8152,-0.8618,-0.9347,-1.0349,-1.075,-1.1405,-1.2301,-1.3135,-1.3525,-1.3613,-1.4424,-1.459,-1.428,-1.4746,-1.4707,-1.4358,-1.4908,-1.5226,-1.5543,-1.6771,-1.7373,-1.7642,-1.8113,-1.8625,-1.9173,-1.979,0.0,0.0,0.0,0.0,0.0,0.0,0.0,0.0,0.0,0.0,0.0,0.0,0.0,0.0,0.0,0.0,0.0,0.0,0.0,0.0,0.0,0.0,0.0,0.0,-2.801,-2.8383,-2.9247,-2.8755,-2.8484,-2.8942,-2.8993,-2.8993,-2.8993,-2.9077,-2.9128,-2.9128,-2.9281,-2.9617,-3.0192,0.0,0.0,0.0,0.0,-3.2429,-3.2429,-3.3068,-3.3406,-3.3406,-3.3406,-3.3406,-3.3406,-3.3406,-3.3406,-3.3406,-3.3491,-3.3525,-3.3541,-3.3609,-3.3609,-3.344,-3.2632,-3.2242,-3.2107,-3.1427,-3.119,-3.119,0.0,0.0,0.0,0.0,0.0,0.0,0.0,-0.6937,-0.6958,-0.6852,-0.6937,-0.6747,-0.6087,-0.6513,-0.6619,-0.6072,-0.6535,-0.6852,-0.6852,-0.6937,-0.728,-0.7878,-0.7899,-0.8451,-0.9646,-0.978,-1.0481,-1.1782,-1.1868,-1.2231,-1.2773,-1.3271,-1.3665,-1.4007,-1.4561,-1.4922,-1.5195,-1.5654,-1.5801,-1.5812,-1.6799,-1.6991,-1.6666,-1.6837,-1.7894,-1.927,-1.897,-1.9183,-1.9749,-2.0404,-2.1108,-2.1825,-2.2485,-2.2708,0.0,0.0,0.0,0.0,0.0,0.0,0.0,0.0,0.0,0.0,0.0,0.0,0.0,0.0,0.0,0.0,0.0,0.0,0.0,-2.8636,-2.9262,-3.0125,-3.1481,-3.1532,-3.0838,-2.9196,-2.8993,-2.8993,-2.8993,-2.9533,-2.9888,-2.9888,-3.0987,-3.1464,-3.1004,-3.2121,-3.2544,-3.2107,-3.2797,-3.3186,-3.3186,-3.3339,-3.3406,-3.3406,0.0,0.0,-3.3406,-3.3406,-3.3406,-3.344,-3.4032,-3.4286,-3.432,-3.4945,-3.4805,-3.415,-3.2818,-3.1938,-3.1393,-3.1241,-3.119,-3.119,0.0,0.0,0.0,0.0,0.0,0.0,0.0,-0.7447,-0.7447,-0.7447,-0.7447,-0.7133,-0.6285,-0.6683,-0.6894,-0.6628,-0.7126,-0.7447,-0.7447,-0.7168,-0.728,-0.7878,-0.8357,-0.9064,-1.0077,-1.0575,-1.129,-1.2203,-1.2203,-1.2535,-1.3203,-1.3597,-1.4016,-1.4473,-1.4912,-1.5215,-1.5439,-1.5909,-1.6095,-1.6204,-1.7616,-1.8296,-1.8436,-1.8496,-1.9395,-2.0577,-2.0037,-2.0012,-2.0345,-2.101,-2.1448,-2.1875,-2.2838,-2.3148,-2.3092,0.0,0.0,0.0,0.0,0.0,0.0,0.0,0.0,0.0,0.0,0.0,0.0,0.0,0.0,-2.7249,-2.7249,0.0,-2.9193,-2.9973,-3.0717,-3.1579,-3.2679,-3.2848,-3.2425,-3.1326,-3.119,-3.119,-3.119,-3.1546,-3.1596,-3.1224,-3.2222,-3.2527,-3.1802,-3.2797,-3.3237,-3.2848,-3.3558,-3.3947,-3.3947,-3.432,-3.4484,-3.4484,-3.4484,-3.4484,-3.4484,-3.4484,-3.4484,-3.4518,-3.4895,-3.5064,-3.5081,-3.5447,-3.5182,-3.4421,-3.3698,-3.2933,-3.2307,-3.2307,-3.2307,-3.2307,0.0,0.0,0.0,0.0,0.0,0.0,0.0,-0.7995,-0.8015,-0.7912,-0.7899,-0.7558,-0.6626,-0.6922,-0.7224,-0.7328,-0.7765,-0.8015,-0.7919,-0.7544,-0.7544,-0.8036,-0.8885,-0.9661,-1.0385,-1.1183,-1.1839,-1.233,-1.233,-1.273,-1.3516,-1.3909,-1.4338,-1.4833,-1.5225,-1.541,-1.5449,-1.6168,-1.6456,-1.6617,-1.8302,-1.9516,-2.0281,-2.0334,-2.0896,-2.1543,-2.0805,-2.0528,-2.0587,-2.1016,-2.134,-2.1741,-2.2871,-2.3404,-2.3505,-2.3017,-2.3047,0.0,0.0,0.0,0.0,0.0,0.0,0.0,0.0,-2.6911,-2.6962,-2.7097,-2.7621,-2.8027,-2.8027,-2.9159,-3.0395,-3.1258,-3.2019,-3.2814,-3.3711,-3.3846,-3.3778,-3.3643,-3.3491,-3.3406,-3.3406,-3.3406,-3.3152,-3.2564,-3.3203,-3.3288,-3.2564,-3.3355,-3.3761,-3.3626,-3.4336,-3.4709,-3.4709,-3.5295,-3.56,-3.56,-3.56,-3.56,-3.56,-3.56,-3.56,-3.56,-3.56,-3.56,-3.56,-3.56,-3.5245,-3.4709,-3.4709,-3.4353,-3.3795,-3.3508,-3.3406,-3.3406,0.0,0.0,0.0,0.0,0.0,0.0,0.0,0.0,-0.8439,-0.7953,-0.7899,-0.7857,-0.7725,-0.7767,-0.7987,-0.8472,-0.8574,-0.8398,-0.7933,-0.8275,-0.8533,-0.8602,-0.9163,-1.0082,-1.14,-1.1533,-1.1995,-1.2812,-1.2812,-1.3047,-1.3516,-1.3909,-1.4338,-1.4833,-1.5225,-1.541,-1.5488,-1.7122,-1.78,-1.7934,-1.9668,-2.0894,-2.1599,-2.1097,-2.1442,-2.202,-2.0464,-1.9899,-1.9838,-1.9447,-2.0057,-2.111,-2.1728,-2.2687,-2.3595,-2.352,-2.2742,-2.225,-2.3784,-2.5003,-2.5961,-2.6487,-2.6657,-2.686,0.0,-2.7672,-2.7874,-2.8604,-2.8807,-2.8874,-2.8874,-2.9533,-3.0565,-3.1955,-3.2797,-3.3761,-3.516,-3.5346,-3.5092,-3.4438,-3.3795,-3.3406,-3.3406,-3.3406,-3.3372,-3.3288,-3.3964,-3.4049,-3.3322,-3.4585,-3.5064,-3.4387,-3.5098,-3.5481,-3.5481,-3.5549,-3.56,-3.56,-3.56,-3.56,-3.56,-3.56,-3.56,-3.56,-3.56,-3.56,-3.56,-3.56,-3.5549,-3.5481,-3.5481,-3.543,-3.5194,-3.3875,-3.3406,-3.3406,0.0,0.0,0.0,0.0,0.0,0.0,0.0,0.0,0.0,-0.8857,-0.8837,-0.8716,-0.8398,-0.8643,-0.8918,-0.9139,-0.9159,-0.9079,-0.8837,-0.8736,-0.8837,-0.9159,-0.9858,-1.0692,-1.1575,-1.2093,-1.2651,-1.3242,-1.3242,-1.3594,-1.4258,-1.4434,-1.4736,-1.5156,-1.5332,-1.583,-1.6629,-1.758,-1.8421,-1.9236,-2.0751,-2.1366,-2.1385,-2.1302,-2.1126,-2.0779,-2.0412,-2.0064,0.0,-1.9952,-2.0342,-2.0891,-2.152,-2.2079,-2.2488,-2.2488,-2.2596,-2.3079,-2.4853,-2.5324,-2.5638,-2.6994,-2.7689,-2.823,-2.8956,-2.9463,-2.9871,-3.0192,-3.0618,-3.0787,-3.0364,-3.1224,-3.2222,-3.2831,-3.3558,-3.4404,-3.5447,-3.5233,-3.4692,-3.3947,-3.3592,-3.3575,-3.3998,-3.4032,-3.4032,-3.4032,-3.4726,-3.4827,-3.4083,-3.5047,-3.5447,-3.5165,-3.543,-3.56,-3.56,-3.56,-3.56,-3.56,-3.56,-3.56,-3.56,-3.56,-3.56,-3.56,-3.56,-3.56,-3.56,-3.56,-3.56,-3.56,-3.56,-3.56,-3.5532,-3.4906,-3.467,-3.467,0.0,0.0,0.0,0.0,0.0,0.0,0.0,0.0,0.0,0.0,-0.9498,-0.9359,-0.8958,-0.9399,-0.9716,-0.9716,-0.9716,-0.9657,-0.9498,-0.9279,-0.9303,-0.9652,-1.0404,-1.1114,-1.1738,-1.2373,-1.291,-1.334,-1.3496,-1.4035,-1.4909,-1.4925,-1.531,-1.5987,-1.5837,-1.6402,-1.7517,-1.8151,-1.8974,-1.9934,-2.1265,-2.1427,-2.0914,-2.0996,-2.0431,-1.9622,-2.0017,-1.9821,-1.9439,-2.0006,-2.0335,-2.0596,-2.1218,-2.1624,-2.1877,-2.1877,-2.2636,-2.3732,-2.4901,-2.527,-2.5778,-2.7669,-2.8721,-2.9533,-3.0497,-3.1123,-3.1546,-3.1765,-3.2073,-3.2073,-3.1345,-3.207,-3.2865,-3.3068,-3.3711,-3.4455,-3.5199,-3.4844,-3.4066,-3.2933,-3.2966,-3.322,-3.3558,-3.4134,-3.4573,-3.4793,-3.5295,-3.5363,-3.4827,-3.5295,-3.56,-3.56,-3.56,-3.56,-3.56,-3.56,-3.56,-3.56,-3.56,-3.56,-3.56,-3.56,-3.56,-3.56,-3.56,-3.56,-3.56,-3.56,-3.56,-3.56,-3.56,-3.56,-3.56,-3.56,-3.56,-3.56,0.0,0.0,0.0,0.0,0.0,0.0,0.0,0.0,0.0,0.0,0.0,0.0,0.0,-0.9961,-1.0283,-1.0283,-1.0283,-1.0059,-0.9538,-0.9981,-1.0201,-1.0082,-1.0618,-1.1307,-1.2164,-1.2213,-1.2461,-1.2925,-1.3501,-1.4261,-1.5195,-1.5241,-1.6081,-1.7501,-1.6995,-1.7062,-1.7689,-1.899,-1.9559,-1.9702,-2.0986,-2.1177,-2.0652,-2.0075,-1.9517,-1.9019,-1.9042,-1.8696,-1.8321,-1.8784,-1.9402,-2.0014,-2.055,-2.1447,-2.2278,-2.2278,-2.2945,-2.3636,-2.3362,-2.4926,-2.7012,-2.857,-2.9516,-3.0446,-3.1904,-3.2242,-3.2479,-3.3186,-3.278,-3.2073,-3.1345,-3.1241,-3.1495,-3.2226,-3.2949,-3.3694,-3.4421,-3.4506,-3.3694,-3.1512,-3.1904,-3.2056,0.0,-3.3237,-3.4793,-3.5498,-3.5583,-3.5583,-3.5566,-3.5583,-3.56,-3.56,-3.56,-3.56,-3.56,-3.56,-3.56,-3.56,-3.56,-3.56,-3.56,-3.56,-3.56,-3.56,-3.56,-3.56,-3.56,-3.56,-3.56,-3.56,-3.56,-3.56,-3.56,-3.56,-3.56,-3.56,0.0,0.0,0.0,0.0,0.0,0.0,0.0,0.0,0.0,0.0,0.0,0.0,0.0,0.0,0.0,0.0,-1.1094,-1.1075,-1.0533,-1.0658,-1.0613,-1.024,-1.0952,-1.1496,-1.18,-1.2774,-1.3471,-1.3897,-1.451,-1.5127,-1.5724,-1.5736,-1.605,-1.6517,-1.6362,-1.7043,-1.8379,-1.8797,-2.0145,-2.186,-2.1222,-2.1081,-2.1083,-1.9771,-1.8956,-1.8504,0.0,-1.8825,-1.8739,-1.9261,-1.9572,-1.9801,-1.9979,-2.0466,-2.114,-2.1929,-2.2737,-2.3742,-2.5406,-2.7014,-2.8705,-3.0685,-3.1732,-3.256,-3.3525,-3.4134,-3.4286,-3.3558,-3.3203,-3.251,-3.0784,-3.048,-3.0869,-3.2107,-3.2513,-3.3106,-3.432,-3.4489,-3.3677,-3.1461,-3.1853,0.0,0.0,0.0,0.0,-3.481,-3.5312,-3.56,-3.56,-3.56,-3.56,-3.56,-3.56,-3.56,-3.56,-3.56,-3.56,-3.56,-3.56,-3.56,-3.56,-3.56,-3.56,-3.56,-3.56,-3.56,-3.56,-3.56,-3.56,-3.56,-3.56,-3.56,-3.56,-3.56,-3.56,-3.56,0.0,0.0,0.0,0.0,0.0,0.0,0.0,0.0,0.0,0.0,0.0,0.0,0.0,0.0,0.0,0.0,0.0,-1.1664,-1.13,-1.1282,-1.1206,-1.1047,-1.1593,-1.1952,-1.2095,-1.3037,-1.364,-1.3893,-1.4516,-1.5187,-1.5846,-1.589,-1.6217,-1.6789,-1.659,-1.7247,-1.8526,-1.8526,-1.9737,-2.153,-2.0513,-2.0284,-2.0447,-1.9364,-1.875,0.0,-1.8787,-1.9024,-1.9244,-1.9584,-1.9708,-1.9708,-1.9708,-1.9965,-2.054,-2.174,-2.2926,-2.4317,-2.6576,-2.8479,-3.0262,-3.2226,-3.3237,-3.3998,-3.4726,-3.4861,-3.4535,-3.3609,-3.256,-3.1393,-2.9973,-2.9482,-2.9685,-3.0922,-3.1345,-3.2019,-3.3512,-3.3694,-3.319,-3.1769,-3.2242,-3.2598,0.0,0.0,0.0,-3.4844,-3.5329,-3.5718,-3.6011,-3.5752,-3.5718,-3.6028,-3.5735,-3.56,-3.56,-3.56,-3.56,-3.56,-3.56,-3.56,-3.56,-3.56,-3.56,-3.56,-3.56,-3.56,-3.56,-3.56,-3.56,-3.56,-3.56,-3.56,-3.56,-3.56,-3.56,-3.56,0.0,0.0,0.0,0.0,0.0,0.0,0.0,0.0,0.0,0.0,0.0,0.0,0.0,0.0,0.0,0.0,0.0,0.0,-1.1847,-1.1847,-1.1994,-1.2357,-1.2424,-1.2607,-1.2957,-1.3076,-1.3108,-1.3043,-1.3755,-1.4601,-1.5606,-1.5669,-1.6581,-1.8138,-1.7586,-1.7674,-1.8213,-1.8213,-1.8544,-1.9068,-1.9021,-1.8998,-1.8982,-1.8927,-1.8905,-1.8893,-1.893,-1.9262,-1.9708,-1.9708,-1.9723,-1.9753,-1.9807,-2.0093,-2.0649,-2.1851,-2.36,-2.5489,-2.6965,-2.9334,-3.1715,-3.3152,-3.4032,-3.4726,-3.538,-3.4416,-3.3372,-3.322,-3.0937,-2.8959,-2.884,-2.8264,-2.8094,-2.8976,-2.9736,-3.0734,-3.2209,-3.2446,-3.2446,-3.2361,0.0,0.0,0.0,0.0,0.0,-3.56,0.0,-3.5994,-3.6761,-3.6079,-3.6045,-3.6829,-3.6079,-3.5667,-3.5718,-3.5667,-3.5633,-3.56,-3.56,-3.56,-3.56,-3.56,-3.56,-3.56,-3.56,-3.56,-3.56,-3.56,-3.56,-3.56,-3.56,-3.56,-3.56,-3.56,-3.56,-3.56,0.0,0.0,0.0,0.0,0.0,0.0,0.0,0.0,0.0,0.0,0.0,0.0,0.0,0.0,0.0,0.0,0.0,0.0,-1.2336,-1.2318,-1.2214,-1.1972,-1.2608,-1.2867,-1.2563,-1.4128,-1.4561,-1.3752,-1.4764,-1.5414,-1.5674,-1.5694,-1.6362,-1.7505,-1.6959,-1.7291,-1.8204,-1.8204,-1.8969,-2.0134,-1.9279,-1.9413,-2.0064,-1.9218,-1.8889,-1.8949,-1.935,-1.9584,-1.9708,-1.9708,-2.0034,-2.0568,-2.121,-2.1608,-2.21,-2.3319,-2.5479,-2.7779,-2.9258,-3.1616,-3.388,-3.4805,-3.5177,-3.5211,-3.4861,-3.4066,-3.278,-3.0565,-2.9517,-2.8485,-2.6776,-2.7198,-2.8415,-3.0328,-3.1261,-3.2259,-3.3728,-3.4404,-3.4353,-3.3254,-3.3761,-3.415,-3.3969,-3.4269,0.0,0.0,-3.6485,-3.6592,-3.6795,-3.6609,-3.684,-3.7601,-3.6874,-3.6755,-3.7307,-3.6772,-3.6197,-3.56,-3.56,-3.56,-3.56,-3.56,-3.56,-3.56,-3.56,-3.56,-3.56,-3.56,-3.56,-3.56,-3.56,-3.56,-3.56,-3.56,-3.56,-3.56,0.0,0.0,0.0,0.0,0.0,0.0,0.0,0.0,0.0,0.0,0.0,0.0,0.0,0.0,0.0,0.0,0.0,0.0,0.0,-1.3057,-1.3077,-1.2823,-1.3536,-1.3812,-1.3497,-1.4914,-1.5349,-1.475,-1.5627,-1.6165,-1.6395,-1.6395,-1.6857,-1.7646,-1.7353,-1.7559,-1.8171,-1.8171,-1.88,0.0,0.0,-1.9407,-2.013,-1.9502,-1.9244,-1.9281,-1.9584,-2.005,-2.0472,-2.0421,-2.0862,-2.1583,-2.2433,-2.3035,-2.3735,-2.55,-2.78,-3.0081,-3.1416,-3.3338,-3.5081,-3.5498,-3.5346,-3.4928,-3.4184,-3.2949,-3.1393,-2.9416,-2.8214,-2.7215,-2.6251,-2.6488,-2.7469,-2.9379,-3.0364,-3.1481,-3.3292,-3.4167,-3.4568,-3.4404,-3.4742,0.0,-3.4979,-3.4979,-3.5487,0.0,-3.6795,-3.7083,-3.7743,-3.7472,-3.7466,-3.7889,-3.7499,-3.7313,-3.7415,-3.7015,-3.64,-3.56,-3.56,-3.56,-3.56,-3.56,-3.56,-3.56,0.0,-3.56,-3.56,-3.56,-3.56,-3.56,-3.56,-3.56,-3.56,-3.56,-3.56,-3.56,0.0,0.0,0.0,0.0,0.0,0.0,0.0,0.0,0.0,0.0,-1.192,0.0,0.0,0.0,0.0,0.0,0.0,0.0,0.0,0.0,-1.4103,-1.4103,-1.4689,-1.5011,-1.4999,-1.5591,-1.5891,-1.5805,-1.6344,-1.6846,-1.7288,-1.7288,-1.7621,-1.8204,-1.8145,-1.8145,-1.8224,-1.8224,-1.8477,-1.8912,-1.8987,-1.9281,-1.9708,0.0,-1.9708,-1.9708,-1.9813,-2.0655,-2.1716,-2.1559,-2.2065,-2.2902,-2.3587,-2.4504,-2.5747,-2.7928,-3.0181,-3.2159,-3.3254,-3.4535,-3.56,-3.56,-3.4979,-3.415,-3.3423,-3.1546,-2.9719,-2.8874,-2.7114,-2.5913,-2.6454,-2.6201,-2.637,-2.7858,-2.8772,-3.0059,-3.2276,-3.3136,-3.4066,-3.543,-3.56,-3.56,-3.56,-3.56,-3.5977,-3.6897,-3.6948,-3.7557,-3.892,-3.8396,-3.8058,-3.8058,-3.8142,-3.7787,-3.6965,-3.6948,-3.6485,-3.56,-3.56,-3.56,-3.56,-3.56,-3.56,-3.56,-3.56,-3.56,-3.56,-3.56,-3.56,-3.56,-3.56,-3.56,-3.56,-3.56,-3.56,-3.56,0.0,0.0,0.0,0.0,0.0,0.0,0.0,0.0,0.0,0.0,-1.2615,-1.2561,0.0,0.0,0.0,0.0,0.0,0.0,0.0,0.0,0.0,-1.4103,-1.5035,-1.5567,-1.5559,-1.652,-1.6807,-1.635,-1.6885,-1.7209,-1.7288,-1.7288,-1.7829,-1.8727,-1.8302,-1.8361,-1.8746,-1.8746,-1.8817,-1.8949,-1.9387,-1.9621,-1.9708,-1.9708,0.0,0.0,-2.0333,-2.1626,-2.3003,-2.2596,-2.3506,-2.4808,-2.4898,-2.6581,-2.869,-2.9733,-3.1496,-3.3288,-3.4078,-3.4945,-3.56,-3.56,-3.4585,-3.3406,-3.2666,-3.0787,-2.879,-2.7402,-2.6776,-2.6353,-2.5879,-2.6674,-2.7925,-2.9447,-3.0328,-3.1579,-3.3795,-3.4218,-3.4641,-3.5498,-3.56,-3.56,-3.56,-3.56,0.0,0.0,-3.7719,-3.8091,-3.8937,-3.887,-3.8802,-3.8802,-3.9394,-3.9056,-3.7719,-3.7719,-3.7009,-3.56,-3.56,-3.56,-3.56,-3.56,-3.56,-3.56,-3.56,0.0,-3.56,-3.56,-3.56,-3.56,-3.56,-3.56,-3.56,-3.56,-3.56,-3.56,0.0,0.0,0.0,0.0,0.0,0.0,0.0,-1.315,-1.3513,-1.403,-1.3642,-1.3304,-1.3206,-1.3198,-1.3198,0.0,0.0,0.0,0.0,0.0,0.0,0.0,0.0,0.0,-1.652,-1.7587,-1.8009,-1.775,0.0,-1.8557,-1.8557,-1.8557,-1.8808,-1.9314,-1.9043,-1.908,-1.9347,-1.9681,-1.9637,-1.9409,-2.0363,-2.0528,-2.0258,0.0,0.0,0.0,0.0,-2.2154,-2.3323,-2.2858,-2.4275,-2.6184,-2.5879,-2.7387,-2.9579,-3.0994,-3.2614,-3.4134,-3.4878,-3.5329,-3.56,-3.56,-3.4201,-3.2628,-3.1904,-2.9989,-2.8061,-2.6928,-2.6691,-2.659,-2.6234,-2.6759,-2.7604,-2.872,-2.955,-3.0838,-3.3038,-3.3677,-3.4353,-3.5464,-3.56,-3.56,-3.56,-3.56,-3.6225,-3.7787,-3.7905,-3.8396,-3.952,-3.9191,-3.9174,-3.9571,-3.9529,-3.9174,-3.8481,-3.8091,-3.7347,-3.6214,-3.5785,-3.56,-3.56,-3.56,-3.56,-3.56,-3.56,-3.56,-3.56,-3.56,-3.56,-3.56,-3.56,-3.56,-3.56,-3.56,-3.56,-3.56,0.0,0.0,0.0,0.0,0.0,0.0,-1.3153,-1.3668,-1.4163,-1.4808,-1.4525,-1.406,-1.3453,-1.3273,-1.3198,0.0,0.0,0.0,0.0,0.0,0.0,0.0,0.0,0.0,0.0,0.0,0.0,0.0,-1.9479,0.0,0.0,0.0,0.0,0.0,-1.9899,-1.9989,-2.0154,-2.0692,-2.0617,0.0,0.0,-2.138,0.0,0.0,0.0,0.0,0.0,-2.2561,-2.34,-2.3157,-2.4669,-2.6648,-2.6345,-2.7709,-2.9806,-3.1547,-3.3123,-3.4421,-3.5143,-3.5481,-3.56,-3.56,-3.3829,-3.1921,-3.1326,-2.9313,-2.7401,-2.6826,-2.6691,-2.6691,-2.6691,-2.6691,-2.6945,-2.7672,-2.8484,-2.9771,-3.1989,-3.2933,-3.3964,-3.5414,-3.56,0.0,-3.56,-3.56,0.0,-3.7787,-3.8193,-3.887,-4.0045,-3.9554,-3.9503,-4.0079,-3.9377,-3.892,-3.8768,-3.8024,-3.728,-3.6535,-3.591,-3.56,-3.56,-3.56,-3.56,-3.56,-3.56,-3.56,-3.56,-3.56,-3.56,-3.56,-3.56,-3.56,-3.56,-3.56,-3.56,-3.56,0.0,0.0,0.0,0.0,0.0,0.0,-1.3153,-1.3338,-1.3738,-1.4782,-1.4865,-1.4626,-1.4072,-1.3534,-1.3198,0.0,0.0,0.0,0.0,0.0,0.0,0.0,0.0,0.0,0.0,0.0,0.0,-1.9621,0.0,0.0,0.0,0.0,0.0,0.0,0.0,0.0,-2.1515,-2.1575,0.0,0.0,0.0,0.0,0.0,0.0,0.0,0.0,0.0,-2.3023,-2.364,-2.4086,-2.4736,-2.5451,-2.5895,-2.7879,-3.0186,-3.1035,-3.2341,-3.366,-3.4387,-3.5098,-3.56,-3.56,-3.344,-3.1275,-3.1207,-2.8907,-2.6776,-2.6708,-2.6691,-2.6691,-2.6691,-2.6691,-2.6945,-2.7672,-2.8484,-2.9771,-3.1989,-3.2933,-3.3964,-3.5414,0.0,0.0,-3.56,-3.56,-3.6225,-3.7787,-3.914,-3.996,-4.0096,-4.0045,-4.0028,-4.0096,-3.9377,-3.8667,-3.8024,-3.7263,-3.6502,-3.5701,-3.5633,-3.56,-3.56,-3.56,-3.56,-3.56,-3.56,-3.56,0.0,-3.56,-3.56,-3.56,-3.56,-3.56,-3.56,-3.56,-3.56,-3.56,0.0,0.0,0.0,0.0,0.0,0.0,-1.3609,-1.4055,-1.4658,-1.5723,-1.5567,-1.5299,-1.5085,-1.4268,-1.3596,-1.3223,0.0,0.0,0.0,0.0,0.0,0.0,0.0,0.0,0.0,0.0,-1.9479,-1.9708,-1.9708,0.0,0.0,0.0,0.0,0.0,0.0,0.0,0.0,0.0,0.0,0.0,0.0,0.0,0.0,0.0,0.0,0.0,0.0,0.0,-2.3638,-2.3858,-2.4491,-2.524,-2.5449,-2.6699,-2.8383,-3.0057,-3.1579,-3.2983,-3.4167,-3.5047,-3.56,-3.56,-3.3389,-3.119,-3.119,-2.8856,-2.6691,-2.6691,-2.6691,-2.6691,-2.6691,-2.6691,-2.6793,-2.7097,-2.7402,-2.8399,-3.0649,-3.1241,-3.229,-3.4658,-3.4945,-3.5115,0.0,0.0,-3.6941,-3.8447,-3.9537,-4.0096,-4.0096,-4.0096,-4.0096,-4.0096,-3.9825,-3.9537,-3.9249,-3.8481,-3.7956,-3.7652,-3.6738,-3.6315,-3.6299,-3.5802,-3.56,-3.56,-3.56,-3.56,0.0,-3.56,-3.56,-3.56,-3.56,-3.56,-3.56,-3.56,-3.56,-3.56,0.0,0.0,0.0,0.0,0.0,-1.2647,-1.37,-1.432,-1.5052,-1.6124,-1.5932,-1.5693,-1.5693,-1.4739,-1.3934,-1.3509,-1.3424,0.0,0.0,0.0,0.0,0.0,0.0,0.0,0.0,0.0,-1.9813,-1.9989,-1.9989,-2.0333,0.0,0.0,0.0,0.0,0.0,0.0,0.0,0.0,0.0,0.0,0.0,0.0,0.0,0.0,0.0,0.0,0.0,0.0,0.0,0.0,0.0,-2.524,-2.5392,-2.6016,-2.7046,-2.8872,-3.048,-3.1918,-3.3169,-3.4387,-3.5211,-3.4991,-3.3068,-3.114,-3.092,-2.8704,-2.6691,-2.6691,-2.6691,-2.6691,-2.6691,-2.6691,-2.6691,-2.6691,-2.708,-2.801,-2.9835,-3.048,-3.1596,-3.3897,0.0,-3.4455,-3.5194,-3.64,-3.7635,-3.8903,-3.969,-4.0096,-4.0096,-4.0096,-4.0096,-4.0096,-3.9893,-3.9774,-3.9774,-3.9039,-3.8565,-3.8328,-3.7303,-3.6694,-3.6417,-3.5853,-3.56,-3.56,-3.56,-3.56,0.0,-3.56,-3.56,-3.56,-3.56,-3.56,-3.56,-3.56,-3.56,-3.56,0.0,0.0,0.0,0.0,0.0,0.0,-1.3153,-1.3755,-1.4482,-1.5569,-1.5693,-1.5693,-1.5693,-1.4739,-1.4103,-1.4091,-1.3973,0.0,0.0,0.0,0.0,0.0,0.0,0.0,0.0,0.0,-2.0019,-2.0688,-2.0688,-2.1017,-2.168,-2.168,-2.2059,-2.2688,0.0,0.0,0.0,0.0,0.0,0.0,0.0,0.0,0.0,0.0,0.0,0.0,0.0,0.0,0.0,0.0,0.0,0.0,0.0,-2.6314,0.0,0.0,-2.8922,-3.0294,-3.1021,-3.2831,-3.4336,-3.3609,-3.2307,-3.1004,-3.0294,-2.8349,-2.6691,-2.6691,-2.6691,-2.6691,-2.6691,-2.6691,-2.6691,-2.6691,-2.7977,0.0,-2.9989,-3.136,-3.2564,0.0,-3.3423,-3.3694,-3.4438,-3.6569,-3.821,-3.8937,-3.969,0.0,-4.0096,-4.0096,-4.0096,-4.0096,-3.9402,-3.9005,-3.9005,-3.8278,-3.755,-3.6829,-3.6812,-3.6366,-3.5616,-3.56,-3.56,-3.56,-3.56,-3.56,0.0,-3.56,-3.56,-3.56,-3.56,-3.56,-3.56,-3.56,-3.56,-3.56,0.0,0.0,0.0,0.0,0.0,0.0,-1.3742,-1.3989,-1.4356,-1.5053,-1.5148,-1.5148,-1.5148,-1.4525,-1.4103,-1.4103,-1.434,0.0,0.0,0.0,0.0,0.0,0.0,0.0,0.0,-1.9708,-2.0034,-2.0703,-2.0703,-2.1276,-2.2388,-2.2388,-2.2718,-2.331,-2.331,-2.3415,0.0,0.0,0.0,0.0,0.0,0.0,0.0,0.0,0.0,0.0,0.0,0.0,0.0,0.0,0.0,0.0,0.0,0.0,0.0,-2.6509,-2.7896,-2.9499,-3.026,-3.1326,-3.2188,-3.1952,-3.0784,-2.9653,-2.9416,-2.796,-2.6691,-2.6691,-2.6691,-2.6691,-2.6691,-2.6691,-2.686,-2.7367,-2.7858,-2.8636,0.0,0.0,0.0,-3.3254,-3.4776,-3.5994,0.0,0.0,-3.8954,-3.9706,-3.9977,-4.0096,-4.0096,-4.0096,-4.0096,-4.0096,-3.9876,-3.9757,-3.9757,-3.9005,-3.8531,-3.8278,-3.7286,-3.6677,-3.64,-3.5836,-3.56,-3.56,-3.56,-3.56,-3.56,-3.56,-3.56,-3.56,-3.56,-3.56,-3.56,-3.56,-3.56,-3.56,0.0,0.0,0.0,0.0,0.0,0.0,-1.3702,-1.3946,-1.4229,-1.4551,-1.4777,-1.4896,-1.4896,-1.4412,-1.4103,-1.4103,-1.474,0.0,0.0,0.0,0.0,0.0,0.0,0.0,-1.9708,-1.9708,-2.0139,-2.1081,-2.1081,-2.1754,-2.3047,-2.3047,-2.3236,-2.3595,-2.3595,-2.3595,0.0,0.0,0.0,0.0,0.0,0.0,-2.3595,0.0,0.0,0.0,0.0,0.0,0.0,0.0,0.0,0.0,0.0,0.0,0.0,0.0,-2.7035,-2.8083,-2.8987,-2.9989,-3.0717,-3.0448,-2.9687,-2.8925,-2.8619,-2.7588,-2.6691,-2.6691,-2.6691,-2.6691,-2.6691,-2.6928,-2.7283,-2.7722,-2.8297,-2.899,0.0,0.0,0.0,-3.3271,-3.4895,0.0,0.0,-3.8142,-3.9005,-4.0028,-4.0096,-4.0096,-4.0096,-4.0096,-3.9977,-3.9706,-3.996,-4.0096,-4.0096,-3.9385,-3.8853,-3.8565,-3.7371,-3.6643,-3.6332,-3.5842,-3.56,-3.56,-3.56,-3.56,0.0,-3.56,-3.56,-3.56,-3.56,-3.56,-3.56,-3.56,-3.56,-3.56,0.0,0.0,0.0,0.0,0.0,0.0,0.0,-1.3715,-1.4103,-1.4103,-1.4563,-1.4896,-1.4896,-1.4412,-1.4116,-1.4154,-1.5097,0.0,0.0,0.0,0.0,0.0,0.0,0.0,-1.9708,-1.9708,-2.0367,-2.1695,-2.1695,-2.2353,-2.3595,-2.3595,-2.3595,-2.3595,-2.3595,-2.3595,-2.3595,-2.3595,-2.3595,-2.3595,-2.3595,-2.3595,0.0,0.0,0.0,0.0,0.0,0.0,0.0,0.0,0.0,0.0,0.0,0.0,0.0,0.0,0.0,0.0,0.0,-2.877,-2.9702,-2.901,-2.884,-2.8654,-2.7891,-2.7199,0.0,-2.6691,-2.6691,-2.6708,-2.6759,-2.7334,-2.7841,-2.7959,-2.9159,-3.0125,0.0,-3.1444,0.0,0.0,-3.4201,0.0,-3.666,-3.7466,-3.8481,-3.991,-4.0028,-4.0045,-4.0096,-4.0096,-3.9791,-3.9089,-3.9706,-3.9994,-3.9943,-3.9242,-3.8548,-3.7821,-3.706,-3.6315,-3.56,-3.56,-3.56,0.0,-3.56,-3.56,-3.56,-3.56,-3.56,-3.56,-3.56,-3.56,-3.56,-3.56,-3.56,-3.56,0.0,0.0,0.0,0.0,0.0,0.0,0.0,0.0,0.0,0.0,-1.4563,-1.4896,-1.4896,-1.4412,-1.428,0.0,0.0,0.0,0.0,0.0,0.0,0.0,0.0,0.0,-1.9708,-1.9708,-2.0367,-2.1695,-2.1695,-2.2353,-2.3595,-2.3595,-2.3595,-2.3595,-2.3595,-2.3595,-2.3595,-2.3595,-2.3595,-2.3595,-2.3595,-2.3595,0.0,0.0,0.0,0.0,-2.3595,-2.3595,0.0,0.0,0.0,0.0,0.0,0.0,0.0,0.0,-2.6016,-2.6606,-2.6877,0.0,-2.7452,-2.7283,-2.7232,-2.7182,0.0,0.0,0.0,0.0,0.0,0.0,-2.7435,-2.7689,-2.8196,-2.9362,-2.9852,-3.0311,-3.0869,-3.2205,0.0,-3.4923,-3.5774,-3.6406,-3.6761,-3.7466,-3.8278,-3.9174,-3.9242,-3.9495,-4.0079,-4.0096,-4.0028,-3.9859,-3.9469,-3.8988,-3.843,-3.8261,-3.7787,-3.7066,-3.6265,-3.5769,-3.56,-3.56,-3.56,-3.56,-3.56,-3.56,-3.56,-3.56,-3.56,-3.56,-3.56,-3.56,-3.56,-3.56,-3.56,-3.56,0.0,0.0,0.0,0.0,0.0,0.0,0.0,0.0,0.0,0.0,-1.4921,-1.5173,-1.4941,-1.4865,-1.4846,0.0,0.0,0.0,0.0,0.0,0.0,0.0,0.0,-1.9708,-1.9708,-1.9989,-2.0662,-2.1695,-2.1994,-2.2637,-2.3595,-2.3595,-2.3595,-2.3595,-2.3595,-2.3595,-2.3595,-2.3595,-2.3789,-2.4073,-2.4073,0.0,0.0,0.0,0.0,0.0,-2.3595,-2.3595,0.0,-2.3595,-2.3595,-2.3638,0.0,0.0,0.0,0.0,-2.5598,-2.6016,-2.6016,-2.635,-2.6776,-2.7131,-2.6945,-2.6793,-2.7131,0.0,0.0,0.0,0.0,0.0,0.0,-2.8382,-2.9125,-2.9954,-3.0378,0.0,0.0,0.0,-3.3829,-3.4962,-3.5774,-3.6383,0.0,-3.7144,-3.7838,-3.8903,-3.8988,-3.9309,-4.0062,-4.0096,-3.9943,-3.9622,-3.9191,-3.8802,-3.8413,-3.7736,-3.7178,-3.6795,-3.5994,-3.56,-3.56,-3.56,-3.56,-3.56,-3.56,-3.56,-3.56,-3.56,-3.56,-3.56,-3.56,-3.56,-3.56,-3.56,-3.56,-3.56,0.0,0.0,0.0,0.0,0.0,0.0,0.0,0.0,0.0,0.0,0.0,0.0,0.0,0.0,0.0,0.0,0.0,0.0,0.0,0.0,0.0,0.0,-1.9708,-1.9753,-1.9839,-2.0423,-2.1081,-2.1844,-2.2418,-2.3062,-2.3759,-2.3759,-2.3759,-2.3744,-2.3655,-2.3595,-2.3595,-2.3595,-2.3999,-2.4605,-2.4605,0.0,0.0,0.0,0.0,0.0,0.0,0.0,0.0,-2.3595,-2.3595,-2.3681,-2.4122,0.0,0.0,0.0,0.0,0.0,-2.5297,-2.6026,-2.691,-2.7533,-2.7366,-2.7199,-2.7841,0.0,0.0,0.0,0.0,0.0,0.0,-2.921,0.0,0.0,0.0,0.0,-3.2513,-3.3169,-3.3846,-3.4573,-3.5211,0.0,-3.6535,-3.6626,-3.7212,-3.8717,-3.8717,-3.9046,-3.9893,-3.9943,-3.9605,-3.8853,-3.8819,-3.8768,-3.8667,-3.7422,-3.6745,-3.6609,-3.5943,-3.56,-3.56,-3.56,-3.56,-3.56,0.0,0.0,-3.56,-3.56,-3.56,-3.56,-3.56,-3.56,-3.56,-3.56,-3.56,-3.56,0.0,0.0,0.0,0.0,0.0,0.0,0.0,0.0,0.0,0.0,0.0,0.0,0.0,0.0,0.0,0.0,0.0,0.0,0.0,0.0,0.0,-1.9639,-1.9708,-1.9959,-2.0524,-2.0643,-2.1321,-2.2553,-2.2643,-2.3295,-2.4455,-2.4455,-2.4455,-2.4425,-2.3864,-2.3595,-2.3595,-2.3595,-2.3999,-2.4605,-2.4605,0.0,0.0,0.0,0.0,0.0,0.0,0.0,0.0,-2.3595,-2.3595,-2.3616,-2.3702,0.0,0.0,0.0,0.0,0.0,-2.5744,-2.644,-2.7063,-2.7179,-2.7943,-2.8688,-2.879,0.0,0.0,0.0,0.0,0.0,0.0,-2.9937,-3.0311,0.0,0.0,-3.2615,0.0,0.0,-3.4607,-3.5329,0.0,-3.565,-3.5769,-3.5769,-3.6434,-3.7956,-3.7483,-3.7743,-3.9089,-3.9157,-3.8819,-3.8091,-3.8075,-3.777,-3.7151,-3.6914,-3.6451,-3.5769,-3.565,-3.56,-3.56,-3.56,-3.56,-3.56,0.0,-3.56,-3.56,-3.56,-3.56,-3.56,-3.56,-3.56,-3.56,-3.56,-3.56,-3.56,0.0,0.0,0.0,0.0,0.0,0.0,0.0,0.0,0.0,0.0,0.0,0.0,0.0,0.0,0.0,0.0,0.0,0.0,0.0,0.0,-1.8184,-1.9324,-1.9657,-2.0081,-2.0688,-2.141,-2.2069,-2.2703,-2.3032,-2.367,-2.4619,-2.4963,-2.4948,-2.459,-2.4276,-2.3954,-2.3625,-2.3999,-2.4515,-2.5173,0.0,0.0,0.0,0.0,0.0,0.0,0.0,0.0,0.0,0.0,-2.3595,-2.3595,-2.3595,0.0,0.0,0.0,0.0,0.0,-2.4697,-2.5947,-2.7257,-2.7257,-2.8135,-2.9111,-2.9499,0.0,0.0,0.0,0.0,0.0,0.0,0.0,-3.1529,-3.2273,0.0,-3.3119,-3.3812,-3.4252,-3.4624,0.0,0.0,-3.56,-3.56,-3.56,-3.6056,-3.7212,-3.6998,-3.7286,-3.8345,-3.8413,-3.8261,-3.7922,-3.7499,-3.7127,-3.6795,-3.6366,-3.5977,-3.56,-3.56,-3.56,-3.56,-3.56,-3.56,-3.56,0.0,-3.56,-3.56,-3.56,-3.56,-3.56,-3.56,-3.56,-3.56,-3.56,-3.56,-3.56,0.0,0.0,0.0,0.0,0.0,0.0,0.0,0.0,0.0,0.0,0.0,0.0,0.0,0.0,0.0,0.0,0.0,0.0,0.0,-1.7076,-1.7894,-1.9237,-1.9841,-2.0469,-2.1152,-2.2179,-2.2763,-2.2912,-2.3535,-2.4246,-2.5068,-2.5427,-2.5397,-2.5053,-2.4575,-2.4156,-2.3879,-2.438,-2.4993,-2.5674,0.0,0.0,0.0,0.0,0.0,0.0,0.0,0.0,0.0,0.0,0.0,0.0,0.0,0.0,0.0,-2.3709,-2.39,-2.4158,-2.3858,-2.5357,-2.7029,-2.7313,-2.8461,-2.9721,0.0,0.0,0.0,0.0,0.0,0.0,0.0,-3.141,0.0,-3.3288,-3.3541,-3.3728,-3.3897,-3.4404,-3.4759,-3.4759,-3.5267,-3.56,-3.56,-3.56,-3.5943,-3.6745,-3.6643,-3.684,-3.7601,-3.7652,-3.7567,-3.7381,-3.6992,-3.6711,-3.6502,-3.591,-3.56,-3.56,-3.56,-3.56,-3.56,-3.56,-3.56,-3.56,-3.56,-3.56,-3.56,-3.56,-3.56,-3.56,-3.56,-3.56,-3.56,-3.56,-3.56,-3.56,0.0,0.0,0.0,0.0,0.0,0.0,0.0,0.0,0.0,0.0,0.0,0.0,0.0,0.0,0.0,0.0,0.0,0.0,0.0,-1.7271,-1.8058,-1.9764,-2.0489,-2.1372,-2.2517,-2.2643,-2.2972,-2.3535,-2.4201,-2.5187,-2.6437,-2.5869,-2.5914,-2.6363,-2.4507,-2.3999,-2.453,-2.459,-2.4993,-2.5674,-2.6318,0.0,0.0,0.0,0.0,0.0,0.0,0.0,0.0,0.0,0.0,0.0,0.0,0.0,-2.3659,-2.3616,-2.3638,-2.3752,-2.422,-2.4973,-2.5921,-2.7014,-2.918,0.0,-3.1972,-3.2107,0.0,-3.2056,0.0,0.0,0.0,-3.1769,-3.2547,-3.3288,-3.3964,-3.4658,-3.5346,0.0,-3.5515,-3.5515,-3.5566,-3.56,-3.56,-3.56,-3.5943,-3.6745,-3.6113,-3.6045,-3.6846,-3.688,-3.6535,-3.5785,-3.6434,-3.6434,-3.5684,-3.5616,-3.56,-3.56,-3.56,-3.56,-3.56,-3.56,-3.56,-3.56,-3.56,-3.56,-3.56,-3.56,-3.56,-3.56,-3.56,-3.56,-3.56,-3.56,-3.56,-3.56,0.0,0.0,0.0,0.0,0.0,0.0,0.0,0.0,0.0,0.0,0.0,0.0,0.0,0.0,0.0,0.0,0.0,0.0,0.0,-1.7161,-1.8152,-1.9943,-2.0584,-2.1643,-2.3236,-2.3251,-2.337,-2.3595,-2.4702,-2.5704,-2.6587,-2.6776,-2.6752,-2.6581,-2.5794,-2.5375,-2.5247,-2.5674,-2.5989,-2.6273,-2.6956,-2.7375,0.0,0.0,0.0,0.0,0.0,0.0,0.0,0.0,-2.3595,-2.3595,-2.3595,-2.3595,-2.3595,-2.3595,-2.3595,-2.3638,-2.3858,-2.5258,-2.6693,-2.6771,-2.9022,0.0,0.0,-3.2013,-3.2293,-3.2293,-3.2666,0.0,0.0,0.0,-3.322,-3.3964,-3.4709,-3.5278,-3.5566,-3.56,-3.56,-3.56,-3.56,-3.56,-3.56,-3.56,-3.5718,-3.6045,-3.5769,-3.5718,-3.6045,-3.6062,-3.5904,-3.56,-3.591,-3.591,-3.56,-3.56,-3.56,-3.56,-3.56,-3.56,-3.56,-3.56,-3.56,-3.56,-3.56,-3.56,-3.56,-3.56,-3.56,-3.56,-3.56,-3.56,-3.56,-3.56,-3.56,-3.56,0.0,0.0,0.0,0.0,0.0,0.0,0.0,0.0,0.0,0.0,0.0,0.0,0.0,0.0,0.0,0.0,0.0,0.0,-1.7014,-1.7426,-1.838,-1.9983,-2.0611,-2.1654,-2.3275,-2.3508,-2.3699,-2.3924,-2.5255,-2.6258,-2.6926,-2.7165,-2.7151,-2.6911,-2.6467,-2.6153,-2.5959,-2.6393,-2.6587,-2.6647,-2.733,-2.76,0.0,0.0,0.0,0.0,0.0,0.0,0.0,0.0,-2.3595,-2.3595,-2.3595,-2.3595,-2.3595,-2.3595,-2.3744,-2.3968,-2.4154,-2.5487,-2.6859,-2.7052,0.0,0.0,-3.1517,-3.2202,-3.2716,-3.2953,-3.3017,-3.3119,-3.3372,0.0,0.0,0.0,-3.5131,-3.56,-3.56,-3.56,-3.56,-3.56,-3.56,-3.56,-3.56,-3.56,-3.56,-3.56,-3.56,-3.56,-3.56,-3.56,-3.56,-3.56,-3.56,-3.56,-3.56,-3.56,-3.56,-3.56,-3.56,-3.56,-3.56,-3.56,-3.56,-3.56,-3.56,-3.56,-3.56,-3.56,-3.56,-3.56,-3.56,-3.56,-3.56,-3.56,-3.56,-3.56,0.0,0.0,0.0,0.0,0.0,0.0,0.0,0.0,0.0,0.0,0.0,0.0,0.0,0.0,0.0,0.0,0.0,0.0,-1.8179,-1.8204,-1.8739,-1.9959,-2.0579,-2.1465,-2.2657,-2.329,-2.3939,-2.4605,-2.5929,-2.6941,-2.757,-2.6926,-2.6971,-2.754,-2.6213,-2.5989,-2.6602,-2.6602,-2.6602,-2.6686,-2.733,-2.76,-2.7525,0.0,0.0,0.0,0.0,0.0,0.0,0.0,-2.3595,-2.3595,-2.3595,-2.3595,-2.3595,-2.3595,-2.4066,-2.4724,-2.5321,-2.5558,-2.6076,-2.7929,0.0,0.0,-3.1873,-3.2949,-3.3588,-3.4336,-3.3322,-3.2547,-3.3271,-3.3423,0.0,-3.437,-3.5131,-3.56,-3.56,-3.56,-3.56,-3.56,-3.56,-3.56,-3.56,-3.56,-3.56,-3.56,-3.56,-3.56,-3.56,-3.56,-3.56,-3.56,-3.56,-3.56,-3.56,-3.56,-3.56,-3.56,-3.56,-3.56,-3.56,-3.56,-3.56,-3.56,-3.56,-3.56,-3.56,-3.56,-3.56,-3.56,-3.56,-3.56,-3.56,-3.56,-3.56,-3.56,0.0,0.0,0.0,0.0,0.0,0.0,0.0,0.0,0.0,0.0,0.0,0.0,0.0,0.0,0.0,0.0,0.0,0.0,-1.8191,-1.8544,-1.9124,-1.9948,-2.0537,-2.1431,-2.2672,-2.3747,-2.4395,-2.4605,-2.4993,-2.5779,-2.6896,-2.6701,-2.6971,-2.7585,-2.718,-2.7121,-2.73,-2.73,-2.73,-2.733,-2.7525,-2.76,-2.757,0.0,0.0,0.0,0.0,0.0,0.0,0.0,0.0,0.0,-2.3595,-2.3595,-2.3595,-2.3595,-2.4066,-2.465,-2.4821,-2.6192,-2.7605,-2.7736,0.0,0.0,0.0,-3.2232,0.0,0.0,-3.3436,-3.3305,-3.4032,-3.4167,0.0,-3.4455,-3.5131,-3.56,-3.56,-3.56,-3.56,-3.56,-3.56,-3.56,-3.56,-3.56,-3.56,-3.56,-3.56,-3.56,-3.56,-3.56,-3.56,-3.56,-3.56,-3.56,-3.56,-3.56,-3.56,-3.56,-3.56,-3.56,-3.56,-3.56,-3.56,-3.56,-3.56,-3.56,-3.56,-3.56,-3.56,-3.56,-3.56,-3.56,-3.56,-3.56,-3.56,-3.56,0.0,0.0,0.0,0.0,0.0,0.0,0.0,0.0,0.0,0.0,-1.6722,-1.6861,0.0,0.0,0.0,0.0,0.0,0.0,-1.8832,-1.9145,-1.9497,-1.9891,-2.072,-2.1748,-2.3031,-2.3561,-2.3963,-2.4201,-2.4739,-2.5555,-2.6587,-2.6587,-2.6971,-2.76,-2.76,-2.76,-2.76,-2.76,-2.76,-2.76,-2.76,-2.76,-2.76,0.0,0.0,0.0,0.0,0.0,0.0,0.0,0.0,0.0,-2.3595,-2.3789,-2.4043,-2.4273,-2.5006,-2.5864,-2.6336,-2.7622,-2.8838,-2.8947,-2.9922,-3.1057,-3.1869,0.0,0.0,0.0,-3.4101,-3.4066,-3.481,-3.4692,0.0,-3.4895,-3.5295,-3.56,-3.56,-3.56,-3.56,-3.56,-3.56,-3.56,-3.56,-3.56,-3.56,-3.56,-3.56,-3.56,-3.56,-3.56,-3.56,-3.56,-3.56,-3.56,-3.56,-3.56,-3.56,-3.56,-3.56,-3.56,-3.56,-3.56,-3.56,-3.56,-3.56,-3.56,-3.56,-3.56,-3.56,-3.56,-3.56,-3.56,-3.56,-3.56,-3.56,-3.56,0.0,0.0,0.0,0.0,0.0,0.0,0.0,0.0,0.0,0.0,-1.6974,-1.7348,0.0,0.0,0.0,0.0,0.0,0.0,0.0,-1.985,-1.9901,-1.9901,-2.111,-2.2294,-2.3406,-2.3009,-2.3054,-2.3595,-2.4822,-2.5794,-2.6497,-2.6497,-2.6911,-2.76,-2.76,-2.76,-2.76,-2.76,-2.76,-2.76,-2.76,-2.76,-2.76,-2.76,0.0,0.0,0.0,0.0,0.0,0.0,0.0,0.0,-2.3595,-2.4073,-2.4702,-2.5272,-2.641,-2.7738,-2.8839,-2.927,-2.9651,-3.076,-3.0729,-3.0578,-3.1323,-3.3567,-3.5498,-3.5414,0.0,-3.481,-3.5481,-3.5064,-3.481,-3.5481,-3.56,-3.56,-3.56,-3.56,-3.56,-3.56,-3.56,-3.56,-3.56,-3.56,-3.56,-3.56,-3.56,-3.56,-3.56,-3.56,-3.56,-3.56,-3.56,-3.56,-3.56,-3.56,-3.56,-3.56,-3.56,-3.56,-3.56,-3.56,-3.56,-3.56,-3.56,-3.56,-3.56,-3.56,-3.56,-3.56,-3.56,-3.56,-3.56,-3.56,-3.56,-3.56,0.0,0.0,0.0,0.0,0.0,0.0,0.0,0.0,0.0,0.0,0.0,0.0,0.0,0.0,0.0,0.0,0.0,0.0,0.0,-2.0295,-2.0572,-2.0572,-2.1809,-2.2369,-2.2109,-2.2958,-2.3465,-2.3595,-2.3894,-2.4642,-2.5824,-2.5824,-2.6437,-2.76,-2.76,-2.76,-2.76,-2.76,-2.76,-2.76,-2.76,-2.76,-2.76,-2.76,-2.718,0.0,0.0,0.0,0.0,0.0,0.0,0.0,-2.3595,-2.4073,-2.4627,-2.4747,-2.6084,-2.7572,-2.7828,-2.864,0.0,-2.9717,-3.0489,-3.1317,-3.1959,-3.3478,-3.4599,-3.4139,-3.4756,-3.5397,-3.5566,-3.5464,-3.5414,-3.5566,-3.56,-3.56,-3.56,-3.56,-3.56,-3.56,-3.56,-3.56,-3.56,-3.56,-3.56,-3.56,-3.56,-3.56,-3.56,-3.56,-3.56,-3.56,-3.56,-3.56,-3.56,-3.56,-3.56,-3.56,-3.56,-3.56,-3.56,-3.56,-3.56,-3.56,-3.56,-3.56,-3.56,-3.56,-3.56,-3.56,-3.56,-3.56,-3.56,-3.56,-3.56,-3.56,0.0,0.0,0.0,0.0,0.0,0.0,0.0,0.0,0.0,0.0,0.0,0.0,0.0,0.0,0.0,0.0,0.0,0.0,0.0,0.0,-2.0584,-2.121,-2.1269,-2.1724,-2.2606,-2.2674,-2.298,-2.3595,-2.3924,-2.459,-2.5615,-2.5929,-2.6617,-2.76,-2.76,-2.76,-2.76,-2.76,-2.76,-2.76,-2.76,-2.76,-2.76,-2.76,-2.739,-2.7091,-2.7091,0.0,0.0,0.0,0.0,0.0,0.0,0.0,-2.5601,-2.5895,-2.6919,-2.8047,-2.833,-2.8894,0.0,-2.9406,0.0,-3.1127,-3.1745,-3.3009,-3.4063,-3.4041,-3.4863,-3.56,-3.56,-3.56,-3.56,-3.56,-3.56,-3.56,-3.56,-3.56,-3.56,-3.56,-3.56,-3.56,-3.56,-3.56,-3.56,-3.56,-3.56,-3.56,-3.56,-3.56,-3.56,-3.56,-3.56,-3.56,-3.56,-3.56,-3.56,-3.56,-3.56,-3.56,-3.56,-3.56,-3.56,-3.56,-3.56,-3.56,-3.56,-3.56,-3.56,-3.56,-3.56,-3.56,-3.56,-3.56,-3.56,-3.56,0.0,0.0,0.0,0.0,0.0,0.0,0.0,0.0,0.0,0.0,0.0,0.0,0.0,0.0,0.0,0.0,0.0,0.0,0.0,0.0,0.0,-2.1649,-2.089,-2.1339,-2.3238,-2.2455,-2.2603,-2.3774,-2.444,-2.5113,-2.5794,-2.6333,-2.6971,-2.76,-2.76,-2.76,-2.76,-2.76,-2.76,-2.76,-2.76,-2.76,-2.76,-2.76,-2.76,-2.76,-2.76,-2.718,-2.6587,-2.6587,0.0,0.0,0.0,0.0,-2.6708,-2.7195,-2.7898,-2.8606,-2.9111,-2.9248,-2.9248,-2.9248,-2.9793,0.0,-3.1227,-3.2519,-3.3739,-3.4368,-3.5098,-3.56,-3.56,-3.56,-3.56,-3.56,-3.56,-3.56,-3.56,-3.56,-3.56,-3.56,-3.56,-3.56,-3.56,-3.56,-3.56,-3.56,-3.56,-3.56,-3.56,-3.56,-3.56,-3.56,-3.56,-3.56,-3.56,-3.56,-3.56,-3.56,-3.56,-3.56,-3.56,-3.56,-3.56,-3.56,-3.56,-3.56,-3.56,-3.56,-3.56,-3.56,-3.56,-3.56,-3.56,-3.56,-3.56,-3.56,0.0,0.0,0.0,0.0,0.0,0.0,0.0,0.0,0.0,0.0,-1.7815,0.0,0.0,0.0,0.0,0.0,0.0,0.0,0.0,0.0,0.0,-2.1697,-2.2606,-2.2741,-2.1955,-2.2868,-2.3703,-2.447,-2.5128,-2.5809,-2.6452,-2.6557,-2.6971,-2.76,-2.76,-2.76,-2.76,-2.76,-2.76,-2.76,-2.76,-2.76,-2.76,-2.76,-2.76,-2.76,-2.76,-2.718,-2.6587,-2.6587,-2.6153,0.0,0.0,0.0,-2.6611,-2.6708,-2.7573,-2.8511,-2.8606,0.0,-2.863,0.0,-2.9098,-2.9875,0.0,0.0,-3.3625,0.0,-3.5098,-3.56,-3.56,-3.56,-3.56,-3.56,-3.56,-3.56,-3.56,-3.56,-3.56,-3.56,-3.56,-3.56,-3.56,-3.56,-3.56,-3.56,-3.56,-3.56,-3.56,-3.56,-3.56,-3.56,-3.56,-3.56,-3.56,-3.56,-3.56,-3.56,-3.56,-3.56,-3.56,-3.56,-3.56,-3.56,-3.56,-3.56,-3.56,-3.56,-3.56,-3.56,-3.56,-3.56,-3.56,-3.56,-3.56,-3.56,0.0,0.0,0.0,0.0,0.0,0.0,0.0,0.0,0.0,0.0,0.0,-1.8732,0.0,0.0,0.0,0.0,0.0,0.0,0.0,0.0,0.0,-2.1687,-2.1899,-2.2262,-2.2741,-2.2972,-2.3415,-2.4036,-2.5091,-2.5749,-2.6063,-2.7186,-2.7874,-2.8128,-2.7764,-2.7809,-2.8154,-2.7764,-2.76,-2.76,-2.76,-2.76,-2.76,-2.76,-2.76,-2.76,-2.76,-2.7405,-2.7165,-2.7165,-2.6971,-2.6707,-2.6707,0.0,0.0,0.0,-2.7559,-2.7993,-2.7993,-2.7993,-2.7993,0.0,-2.875,-2.9761,-3.0687,-3.1949,-3.3143,-3.3794,-3.4535,-3.5144,-3.5515,-3.56,-3.56,-3.56,-3.56,-3.56,-3.56,-3.56,-3.56,-3.56,-3.56,-3.56,-3.56,-3.56,-3.56,-3.56,-3.56,-3.56,-3.56,-3.56,-3.56,-3.56,-3.56,-3.56,-3.56,-3.56,-3.56,-3.56,-3.56,-3.56,-3.56,-3.56,-3.56,-3.56,-3.56,-3.56,-3.56,-3.56,-3.56,-3.56,-3.56,-3.56,-3.56,-3.56,-3.56,-3.56,0.0,0.0,0.0,0.0,0.0,0.0,0.0,0.0,0.0,0.0,0.0,0.0,0.0,0.0,0.0,0.0,0.0,0.0,0.0,0.0,0.0,-2.1922,-2.1524,-2.1927,-2.3334,-2.3076,-2.3231,-2.3864,-2.5031,-2.5689,-2.5899,-2.7739,-2.8682,-2.8831,-2.8334,-2.8304,-2.8562,-2.8079,-2.7854,-2.7839,-2.766,-2.76,-2.76,-2.76,-2.76,-2.76,-2.76,-2.76,-2.76,-2.76,-2.76,-2.76,-2.76,-2.76,0.0,0.0,0.0,-2.76,0.0,0.0,-2.76,-2.76,-2.8482,-2.9529,0.0,0.0,-3.2539,0.0,-3.4098,-3.4759,-3.5253,-3.5492,-3.56,-3.56,-3.56,-3.56,-3.56,-3.56,-3.56,-3.56,-3.56,-3.56,-3.56,-3.56,-3.56,-3.56,-3.56,-3.56,-3.56,-3.56,-3.56,-3.56,-3.56,-3.56,-3.56,-3.56,-3.56,-3.56,-3.56,-3.56,-3.56,-3.56,-3.56,-3.56,-3.56,-3.56,-3.56,-3.56,-3.56,-3.56,-3.56,-3.56,-3.56,-3.56,-3.56,-3.56,0.0,0.0,0.0,0.0,0.0,0.0,0.0,0.0,0.0,0.0,0.0,0.0,-1.9761,-1.9786,-1.9788,-1.9791,-1.9799,-2.0295,-2.1506,-2.1088,-2.1345,-2.2603,-2.2626,0.0,-2.274,-2.329,-2.388,-2.4545,-2.5247,-2.5929,-2.6572,-2.7949,-2.8936,-2.9562,-2.9517,-2.9146,-2.8607,-2.8562,-2.8547,-2.8487,-2.7869,-2.76,-2.76,-2.76,-2.76,-2.76,-2.76,-2.76,-2.76,-2.76,-2.76,-2.76,-2.76,-2.76,-2.76,0.0,0.0,0.0,0.0,-2.76,0.0,-2.76,-2.8097,-2.8904,0.0,0.0,-3.1919,-3.3233,-3.4098,-3.46,-3.4664,-3.5184,-3.56,-3.56,-3.56,-3.56,-3.56,-3.56,-3.56,-3.56,-3.56,-3.56,-3.56,-3.56,-3.56,-3.56,-3.56,-3.56,-3.56,-3.56,-3.56,-3.56,-3.56,-3.56,-3.56,-3.56,-3.56,-3.56,-3.56,-3.56,-3.56,-3.56,-3.56,-3.56,-3.56,-3.56,-3.56,-3.56,-3.56,-3.56,-3.56,-3.56,-3.56,-3.56,-3.56,-3.56,0.0,0.0,0.0,0.0,0.0,0.0,0.0,0.0,0.0,0.0,0.0,0.0,0.0,-2.0169,-2.0444,-2.0432,-2.0429,-2.0794,-2.1625,-2.1137,-2.1175,-2.203,-2.2475,-2.2904,-2.3322,-2.3519,-2.4148,-2.5232,-2.5472,-2.5944,-2.6641,-2.7964,-2.8487,-2.8349,-2.9217,-2.9472,-2.9205,-2.8786,-2.8353,-2.7974,-2.8184,-2.8233,-2.8278,-2.8723,-2.8888,-2.8888,0.0,0.0,0.0,0.0,0.0,0.0,0.0,0.0,0.0,0.0,0.0,0.0,0.0,0.0,0.0,-2.76,-2.8412,-2.933,-2.9815,-3.0757,-3.1703,-3.2184,-3.2837,-3.3313,-3.3313,-3.4585,-3.56,-3.56,-3.56,-3.56,-3.56,-3.56,-3.56,-3.56,-3.56,-3.56,-3.56,-3.56,-3.56,-3.56,-3.56,-3.56,-3.56,-3.56,-3.56,-3.56,-3.56,-3.56,-3.56,-3.56,-3.56,-3.56,-3.56,-3.56,-3.56,-3.56,-3.56,-3.56,-3.56,-3.56,-3.56,-3.56,-3.56,-3.56,-3.56,-3.56,-3.56,-3.56,-3.56,-3.56,0.0,0.0,0.0,0.0,0.0,0.0,0.0,0.0,0.0,-1.9505,0.0,0.0,0.0,0.0,-2.0547,-2.0771,-2.1,-2.1366,-2.1993,-2.1438,-2.1462,-2.2294,-2.279,-2.3328,-2.3996,-2.3963,-2.4388,-2.5247,-2.5495,-2.5839,-2.6303,-2.7874,-2.8353,-2.7989,-2.9112,-2.9487,-2.922,-2.8786,-2.8457,-2.8289,-2.8502,-2.8727,-2.8981,-2.9442,-2.9606,0.0,0.0,0.0,0.0,0.0,0.0,0.0,0.0,0.0,0.0,0.0,0.0,0.0,-2.76,0.0,0.0,0.0,-2.8278,-2.8981,-2.9186,-3.0119,-3.099,-3.1186,-3.1951,-3.2586,-3.2586,-3.3878,-3.5005,-3.523,-3.5253,-3.5339,-3.5577,-3.56,-3.56,-3.56,-3.56,-3.56,-3.56,-3.56,-3.56,-3.56,-3.56,0.0,-3.56,-3.56,-3.56,-3.56,-3.56,-3.56,-3.56,-3.56,-3.56,-3.56,-3.56,-3.56,-3.56,-3.56,-3.56,-3.56,-3.56,-3.56,-3.56,-3.56,-3.56,-3.56,-3.56,-3.56,-3.56,-3.56,-3.56,-3.56,0.0,0.0,0.0,0.0,0.0,0.0,0.0,0.0,-1.9509,-2.0624,0.0,0.0,0.0,0.0,0.0,-2.0795,-2.1397,-2.2002,-2.2688,-2.21,-2.2271,-2.353,-2.3668,-2.4002,-2.4589,-2.4612,-2.4649,-2.4694,-2.5307,-2.5644,-2.5704,-2.7664,-2.8562,-2.8607,-2.9235,-2.916,-2.8562,-2.8592,-2.8966,-2.9532,-2.8876,-2.9026,-2.9636,0.0,0.0,0.0,-2.9666,-2.9666,0.0,-2.9636,0.0,0.0,0.0,0.0,0.0,0.0,0.0,0.0,0.0,0.0,0.0,0.0,0.0,0.0,-2.8343,0.0,-2.975,-3.032,-3.1557,-3.2544,-3.2544,-3.3103,-3.3761,-3.4431,-3.4576,-3.4847,-3.547,-3.56,-3.56,-3.56,-3.56,-3.56,-3.56,-3.56,-3.56,-3.56,-3.56,-3.56,-3.56,-3.56,-3.56,-3.56,-3.56,-3.56,-3.56,-3.56,-3.56,-3.56,-3.56,-3.56,-3.56,-3.56,-3.56,-3.56,-3.56,-3.56,-3.56,-3.56,-3.56,-3.56,-3.56,-3.56,-3.56,-3.56,-3.56,-3.56,0.0,0.0,0.0,0.0,0.0,-1.8388,-1.9565,-1.9757,-1.9853,0.0,0.0,0.0,-2.0894,-2.1465,-2.1974,-2.2151,-2.2332,-2.2701,-2.3319,-2.277,-2.2589,-2.292,-2.3857,-2.4454,-2.4674,-2.5106,-2.5809,-2.6752,-2.6467,-2.6557,-2.7061,-2.763,-2.7884,-2.7884,-2.8064,-2.8049,-2.7914,-2.8382,-2.8712,-2.8891,-2.919,-2.9684,0.0,0.0,0.0,0.0,0.0,-3.0957,-3.0883,0.0,-3.0253,-3.0133,0.0,0.0,0.0,0.0,0.0,0.0,-2.76,0.0,0.0,0.0,0.0,0.0,0.0,0.0,-2.8914,-2.9083,-3.0162,-3.1069,-3.1069,-3.163,-3.2312,-3.3039,-3.3962,-3.4648,-3.4847,-3.5276,-3.56,-3.56,-3.56,-3.56,-3.56,-3.56,-3.56,0.0,-3.56,-3.56,-3.56,-3.56,-3.56,-3.56,-3.56,-3.56,-3.56,-3.56,-3.56,-3.56,-3.56,-3.56,-3.56,-3.56,-3.56,-3.56,-3.56,-3.56,-3.56,-3.56,-3.56,-3.56,-3.56,-3.56,-3.56,-3.56,-3.56,-3.56,0.0,0.0,0.0,0.0,0.0,-1.9664,-2.0653,-2.0786,-2.0868,0.0,0.0,0.0,-2.1659,-2.2734,-2.3387,-2.3144,-2.3102,-2.3209,-2.3573,-2.3268,-2.3208,-2.3486,-2.4468,-2.5167,-2.5477,-2.5836,-2.6393,-2.718,-2.6806,-2.6806,-2.7195,-2.7465,-2.76,-2.76,-2.76,-2.76,-2.763,-2.8034,-2.8502,0.0,-2.9457,0.0,0.0,-3.1346,-3.1511,0.0,0.0,0.0,-3.1451,-3.1032,-3.0746,0.0,0.0,0.0,0.0,0.0,0.0,0.0,0.0,0.0,0.0,0.0,0.0,0.0,-2.8034,-2.8308,-2.8607,-2.8607,-2.9415,-3.0118,-3.0118,-3.0447,-3.0932,-3.1604,-3.2636,-3.3548,-3.4112,-3.4759,-3.5168,-3.5168,-3.5447,-3.56,-3.56,-3.56,-3.56,-3.56,-3.56,-3.56,-3.56,-3.56,-3.56,-3.56,-3.56,-3.56,-3.56,-3.56,-3.56,-3.56,-3.56,-3.56,-3.56,-3.56,-3.56,-3.56,-3.56,-3.56,-3.56,-3.56,-3.56,-3.56,-3.56,-3.56,-3.56,-3.56,-3.56,-3.56,0.0,0.0,-1.9057,-1.8645,-1.9913,-2.1235,-2.1989,-2.2048,-2.2192,0.0,-2.2809,-2.2864,-2.301,-2.4043,-2.4489,-2.3972,-2.3859,-2.3819,-2.3819,-2.3744,-2.3984,-2.4575,-2.5232,-2.5884,-2.6467,-2.6617,-2.6692,-2.6692,-2.6692,-2.6692,-2.6707,-2.733,-2.76,-2.76,-2.76,0.0,-2.76,-2.76,-2.8378,-2.9606,-2.9606,-3.0357,0.0,0.0,-3.1511,-3.1511,-3.1511,-3.1511,-3.1511,-3.1511,-3.1092,0.0,0.0,0.0,0.0,0.0,-2.9666,0.0,0.0,0.0,0.0,0.0,0.0,0.0,-2.8622,-2.8607,-2.8577,-2.8502,-2.9011,-2.9502,-2.9502,-2.9562,-2.9786,-3.0313,-3.1024,-3.1955,-3.3296,-3.4062,-3.4503,-3.4576,-3.5121,-3.5515,-3.56,-3.56,-3.56,-3.56,-3.56,-3.56,-3.56,-3.56,-3.56,-3.56,-3.56,-3.56,-3.56,-3.56,-3.56,-3.56,-3.56,-3.56,-3.56,-3.56,-3.56,-3.56,-3.56,-3.56,-3.56,-3.56,-3.56,-3.56,-3.56,-3.56,-3.56,-3.56,-3.56,-3.56,0.0,-1.9217,-1.9855,-2.0174,-2.0948,-2.1957,-2.3158,-2.2884,-2.2775,-2.3418,-2.3504,-2.3891,-2.4917,-2.5265,-2.5373,-2.5242,-2.5216,-2.5211,-2.5211,-2.4694,-2.447,-2.459,-2.5232,-2.5674,-2.5794,-2.6866,-2.7405,-2.7405,-2.7405,-2.7405,-2.7405,-2.754,-2.76,-2.76,-2.76,-2.76,-2.76,0.0,0.0,-2.9606,-2.9606,-3.0357,-3.1511,-3.1511,-3.1511,-3.1511,-3.1511,-3.1511,-3.1511,-3.1511,-3.1406,-3.1301,0.0,0.0,0.0,-3.0313,0.0,0.0,0.0,0.0,0.0,0.0,0.0,0.0,-2.8727,-2.8607,-2.8442,-2.7914,-2.8323,-2.8801,-2.8801,-2.922,-2.9651,-2.9771,-3.0301,-3.1217,-3.2586,-3.3365,-3.3987,-3.4528,-3.4712,-3.5005,-3.5538,-3.56,-3.56,-3.56,-3.56,-3.56,-3.56,-3.56,-3.56,-3.56,-3.56,-3.56,-3.56,-3.56,-3.56,-3.56,-3.56,-3.56,-3.56,-3.56,-3.56,-3.56,-3.56,-3.56,-3.56,-3.56,-3.56,-3.56,-3.56,-3.56,-3.56,-3.56,-3.56,-3.56,-1.8893,-1.9724,-2.0489,-2.0736,-2.1821,-2.2996,-2.4002,-2.3862,-2.3891,-2.4561,-2.4938,-2.5396,-2.604,-2.6093,-2.6093,-2.6093,-2.5794,-2.5615,-2.5615,-2.5277,-2.5247,-2.5576,-2.5929,-2.6258,-2.6572,-2.7255,-2.76,-2.76,-2.76,-2.76,-2.76,-2.76,-2.76,-2.76,-2.76,-2.76,-2.7615,0.0,-2.8693,-2.9606,-2.9606,0.0,-3.1511,-3.1511,-3.1511,-3.1511,-3.1511,-3.1511,-3.1511,-3.1511,-3.1511,0.0,-3.1511,-3.1271,-3.0987,0.0,-3.0763,-3.0552,0.0,0.0,0.0,-3.0552,0.0,0.0,0.0,-2.9056,-2.8502,-2.8184,-2.8109,-2.8109,-2.8109,-2.8378,-2.8723,-2.9041,-2.9355,-2.9925,-3.0955,-3.1964,-3.2728,-3.307,-3.3096,-3.3223,-3.3568,-3.3877,-3.4337,-3.5008,-3.5064,-3.5216,-3.5583,-3.56,-3.56,-3.56,-3.56,-3.56,-3.56,-3.56,-3.56,-3.56,-3.56,-3.56,-3.56,-3.56,-3.56,-3.56,-3.56,-3.56,-3.56,-3.56,-3.56,-3.56,-3.56,-3.56,-3.56,-3.56,-3.56,-3.56,-1.9043,-2.0142,-2.1044,-2.1044,-2.2475,-2.3834,-2.45,-2.4605,-2.4889,-2.5689,-2.6258,-2.6632,-2.6791,-2.6806,-2.6806,-2.6806,-2.6303,-2.5989,-2.5989,-2.5869,-2.6033,-2.6572,-2.6587,-2.6866,-2.7405,-2.7525,-2.76,-2.76,-2.76,-2.76,-2.76,-2.76,-2.76,-2.76,-2.7735,-2.7794,-2.7839,0.0,0.0,-2.9786,0.0,-3.0477,-3.1511,-3.1511,-3.1511,-3.1511,-3.1511,-3.1511,-3.1511,-3.1511,-3.1511,-3.1511,-3.1511,-3.1511,0.0,0.0,0.0,0.0,0.0,0.0,0.0,0.0,0.0,-3.0672,0.0,0.0,0.0,-2.8816,0.0,0.0,0.0,0.0,0.0,-2.8143,0.0,0.0,0.0,-3.0266,0.0,-3.1388,-3.141,-3.1462,-3.1598,-3.2046,-3.2833,-3.4022,-3.4251,-3.4633,-3.5346,-3.5515,-3.56,-3.56,-3.56,-3.56,-3.56,-3.56,-3.56,-3.56,-3.56,-3.56,-3.56,-3.56,-3.56,-3.56,-3.56,-3.56,-3.56,-3.56,-3.56,-3.56,-3.56,-3.56,-3.56,-3.56,-3.56,-3.56,-1.9603,-2.0691,-2.1615,-2.1615,-2.27,-2.3834,-2.45,-2.4605,-2.5053,-2.6318,-2.6542,-2.6836,-2.742,-2.748,-2.748,-2.748,-2.742,-2.7375,-2.7375,-2.6821,-2.6512,-2.6587,-2.6587,-2.6632,-2.6692,-2.73,-2.76,-2.76,-2.76,-2.76,-2.76,-2.76,-2.76,-2.763,-2.8203,-2.8487,0.0,0.0,-2.9834,0.0,-3.0402,-3.0823,0.0,-3.1511,-3.1511,-3.1511,-3.1511,-3.1511,-3.1511,0.0,-3.1511,-3.1511,0.0,-3.1511,-3.1511,-3.1511,0.0,0.0,0.0,0.0,0.0,0.0,-3.1451,0.0,0.0,0.0,-3.0133,-2.9579,0.0,0.0,0.0,0.0,0.0,0.0,0.0,0.0,-2.7899,-2.846,-2.939,-3.0572,-3.0709,-3.0964,-3.1534,-3.1654,-3.1985,-3.2679,-3.3342,-3.3984,-3.4585,-3.525,-3.56,-3.56,-3.56,-3.56,-3.56,-3.56,-3.56,-3.56,-3.56,-3.56,-3.56,-3.56,-3.56,-3.56,-3.56,-3.56,-3.56,-3.56,-3.56,-3.56,-3.56,-3.56,-3.56,-3.56,-3.56,-3.56,-2.0288,-2.1051,-2.1814,-2.2224,-2.2996,-2.3834,-2.45,-2.5247,-2.5959,-2.6512,-2.6941,-2.7285,-2.757,-2.76,-2.76,0.0,0.0,-2.76,0.0,-2.7345,-2.718,-2.718,-2.718,-2.718,-2.718,-2.745,-2.76,-2.76,-2.76,-2.76,-2.76,-2.76,-2.76,-2.763,-2.8293,0.0,-2.8667,0.0,-3.0268,0.0,0.0,-3.1241,0.0,-3.1511,-3.1511,-3.1511,-3.1511,-3.1511,-3.1511,0.0,-3.1511,0.0,0.0,0.0,0.0,-3.1511,0.0,0.0,0.0,0.0,0.0,0.0,0.0,0.0,-3.1137,0.0,-3.0432,0.0,0.0,0.0,0.0,0.0,0.0,0.0,-2.8233,0.0,0.0,0.0,-2.8362,0.0,0.0,0.0,-2.9745,-2.9792,-3.0376,-3.1753,-3.2155,-3.2962,-3.4416,-3.4793,-3.5165,-3.5583,-3.56,-3.56,-3.56,-3.56,-3.56,-3.56,-3.56,-3.56,-3.56,-3.56,-3.56,-3.56,-3.56,-3.56,-3.56,-3.56,-3.56,-3.56,-3.56,-3.56,-3.56,-3.56,-3.56,-3.56,-2.1216,0.0,0.0,-2.2613,-2.3212,-2.3894,-2.4739,-2.5704,-2.6452,-2.6836,-2.73,-2.76,-2.76,-2.76,0.0,0.0,-2.76,-2.76,0.0,0.0,-2.76,-2.76,-2.76,-2.76,-2.76,-2.76,-2.76,-2.76,-2.76,-2.76,-2.76,-2.76,-2.76,-2.763,-2.8472,-2.8861,-2.8951,0.0,-3.0763,-3.0836,-3.1301,-3.1511,-3.1511,-3.1511,-3.1511,-3.1511,-3.1511,-3.1511,-3.1511,-3.1511,-3.1511,0.0,-3.1511,0.0,-3.1511,0.0,0.0,0.0,-3.1511,0.0,0.0,0.0,0.0,0.0,0.0,0.0,0.0,0.0,0.0,0.0,0.0,0.0,0.0,0.0,0.0,-2.8293,0.0,-2.748,0.0,0.0,0.0,0.0,0.0,-2.8262,-2.8912,-3.0496,-3.0774,-3.1802,-3.3822,-3.4135,-3.4672,-3.5566,-3.56,-3.56,-3.56,-3.56,-3.56,-3.56,-3.56,-3.56,-3.56,-3.56,-3.56,-3.56,-3.56,-3.56,-3.56,-3.56,-3.56,-3.56,-3.56,-3.56,-3.56,-3.56,-3.56,-3.56,-2.2508,-2.2643,0.0,-2.2703,-2.3212,-2.4044,-2.5375,-2.5615,-2.6093,-2.7405,-2.7585,-2.76,0.0,0.0,0.0,0.0,0.0,-2.76,-2.76,0.0,-2.76,-2.76,0.0,-2.76,0.0,-2.76,-2.76,-2.76,-2.76,-2.76,-2.76,-2.76,-2.76,-2.766,-2.8978,-2.9577,-2.9666,-3.0913,-3.1466,-3.1466,-3.1496,-3.1511,-3.1511,0.0,-3.1511,-3.1511,-3.1511,0.0,0.0,-3.1511,-3.1511,0.0,0.0,0.0,0.0,0.0,0.0,0.0,0.0,0.0,0.0,-3.1511,0.0,0.0,0.0,0.0,-3.1466,0.0,0.0,0.0,0.0,0.0,0.0,0.0,0.0,0.0,0.0,0.0,0.0,0.0,0.0,0.0,0.0,-2.7625,-2.7885,-2.8542,-2.9252,-3.0513,-3.2457,-3.3234,-3.4239,-3.5543,-3.56,-3.56,-3.56,-3.56,-3.56,-3.56,-3.56,-3.56,-3.56,-3.56,-3.56,-3.56,-3.56,-3.56,-3.56,-3.56,-3.56,-3.56,-3.56,-3.56,-3.56,-3.56,-3.56,-3.56,0.0,0.0,0.0,0.0,0.0,-2.3909,-2.4799,-2.5307,-2.5929,0.0,-2.733,0.0,0.0,-2.76,-2.76,0.0,0.0,-2.8248,-2.8248,-2.8248,0.0,0.0,0.0,-2.8248,0.0,-2.8248,-2.8049,-2.76,-2.76,-2.76,-2.76,-2.76,-2.7839,-2.8293,-2.9217,-2.9804,0.0,0.0,0.0,0.0,0.0,-3.1511,-3.1511,0.0,-3.1511,-3.1511,-3.1511,-3.1511,0.0,-3.1511,-3.1511,-3.1511,-3.1511,-3.1511,-3.1511,-3.1511,-3.1511,-3.1511,0.0,0.0,-3.1511,-3.1511,0.0,0.0,0.0,0.0,0.0,0.0,0.0,0.0,0.0,0.0,0.0,0.0,0.0,0.0,0.0,0.0,0.0,0.0,0.0,0.0,0.0,0.0,-2.786,-2.8439,-2.8728,-2.9943,-3.2362,-3.2749,-3.3694,-3.5526,-3.56,-3.56,-3.56,-3.56,-3.56,-3.56,-3.56,-3.56,-3.56,-3.56,-3.56,-3.56,-3.56,-3.56,-3.56,-3.56,-3.56,-3.56,-3.56,-3.56,-3.56,-3.56,-3.56,-3.56,-2.352,0.0,0.0,0.0,0.0,0.0,0.0,0.0,0.0,0.0,-2.733,0.0,-2.76,0.0,-2.7705,0.0,-2.8353,-2.8607,-2.8607,-2.8816,0.0,-2.922,-2.9056,-2.8951,0.0,0.0,0.0,-2.8304,-2.8079,-2.8079,-2.8304,-2.8079,-2.8293,-2.8981,-2.9624,-3.0133,-3.0552,-3.1212,-3.1511,0.0,0.0,-3.1511,0.0,0.0,-3.1511,-3.1511,0.0,-3.1511,-3.1511,-3.1511,-3.1511,-3.1511,-3.1511,-3.1511,-3.1511,-3.1511,-3.1511,-3.1511,-3.1511,-3.1511,0.0,-3.1511,-3.1511,0.0,-3.1511,0.0,-3.1511,0.0,0.0,0.0,0.0,0.0,0.0,0.0,0.0,0.0,0.0,-2.76,0.0,0.0,0.0,0.0,0.0,-2.76,-2.776,-2.814,-2.8394,-2.9592,-3.205,-3.2406,-3.3482,-3.5543,-3.5362,-3.523,-3.523,-3.5005,-3.5005,-3.523,-3.523,-3.5362,-3.56,-3.56,-3.56,-3.56,-3.56,-3.56,-3.56,-3.56,-3.56,-3.56,-3.56,-3.56,-3.56,-3.56,-3.56,-3.56,-2.364,-2.4186,0.0,0.0,-2.4201,0.0,0.0,0.0,-2.6851,0.0,-2.76,-2.76,-2.76,-2.76,-2.7869,-2.8547,-2.8622,-2.8667,-2.8697,-2.928,0.0,0.0,-2.931,-2.9651,-2.9651,0.0,0.0,0.0,0.0,-2.8921,-2.9547,-2.8891,-2.8951,-2.9636,-3.0223,0.0,-3.0597,-3.1227,-3.1511,-3.1511,-3.1511,-3.1511,-3.1511,-3.1511,-3.1511,-3.1511,-3.1511,-3.1511,-3.1511,-3.1511,-3.1511,-3.1511,-3.1511,-3.1511,-3.1511,-3.1511,-3.1511,-3.1511,-3.1511,-3.1511,-3.1511,-3.1511,-3.1511,0.0,0.0,0.0,-3.1511,0.0,0.0,0.0,0.0,0.0,0.0,0.0,0.0,0.0,0.0,0.0,-2.76,0.0,0.0,0.0,0.0,-2.76,-2.76,-2.76,-2.8173,-2.9434,0.0,-3.2151,-3.3421,-3.5453,-3.4894,-3.4552,-3.4552,-3.3912,-3.3937,-3.46,-3.46,-3.4941,-3.5538,-3.5577,-3.5577,-3.5538,-3.56,-3.56,-3.56,-3.56,-3.56,-3.56,-3.56,-3.56,-3.56,-3.56,-3.56,-3.56,-2.4246,-2.4874,-2.5277,0.0,-2.4814,-2.4993,0.0,0.0,0.0,0.0,-2.76,-2.76,-2.76,-2.76,-2.7869,-2.8547,-2.9041,0.0,0.0,0.0,0.0,-3.0733,-3.0447,-3.0268,-3.0268,-3.0268,-3.0043,-2.9606,0.0,0.0,-2.8846,-2.8682,-2.8951,-2.9636,0.0,-3.0791,-3.1256,-3.1436,-3.1511,-3.1511,-3.1511,-3.1511,-3.1511,0.0,-3.1511,-3.1511,-3.1511,-3.1511,-3.1511,-3.1511,-3.1511,-3.1511,-3.1511,-3.1511,-3.1511,-3.1511,-3.1511,-3.1511,-3.1511,-3.1511,-3.1511,-3.1511,-3.1511,-3.1511,0.0,0.0,0.0,0.0,0.0,0.0,0.0,0.0,0.0,0.0,0.0,0.0,0.0,0.0,0.0,-2.8278,0.0,0.0,-2.76,-2.76,-2.76,-2.76,-2.7764,-2.8728,-3.0751,0.0,-3.2044,-3.4054,-3.3937,-3.3862,-3.3862,-3.3684,-3.3937,-3.46,-3.46,-3.4688,-3.4871,-3.5362,-3.5339,-3.4894,-3.5385,-3.56,-3.56,-3.56,-3.56,-3.56,-3.56,-3.56,-3.56,-3.56,-3.56,-3.56,-2.4903,-2.5337,0.0,-2.6363,0.0,0.0,-2.6482,-2.6866,0.0,-2.754,-2.76,0.0,-2.76,-2.76,-2.7989,-2.8951,-2.937,0.0,-3.0462,0.0,0.0,-3.1047,-3.0972,-3.0956,-3.0956,-3.0657,0.0,-2.9983,0.0,0.0,-2.9026,-2.9026,-2.937,0.0,0.0,-3.1137,-3.1511,-3.1511,-3.1511,-3.1511,-3.1511,-3.1511,0.0,-3.1511,-3.1511,-3.1511,-3.1511,-3.1511,-3.1511,-3.1511,-3.1511,-3.1511,-3.1511,-3.1511,-3.1511,-3.1511,-3.1511,-3.1511,-3.1511,-3.1511,-3.1511,-3.1511,-3.1511,-3.1511,-3.1511,-3.1511,-3.1511,0.0,-3.1511,-3.1511,0.0,0.0,0.0,0.0,0.0,0.0,0.0,0.0,0.0,0.0,-2.8453,0.0,-2.8049,-2.7764,-2.76,-2.76,-2.7869,-2.8803,0.0,0.0,-3.1804,-3.355,-3.3313,-3.3172,-3.3172,-3.2853,-3.3024,-3.3735,-3.3735,-3.4037,-3.46,-3.4988,-3.4965,-3.464,-3.5316,-3.543,-3.5184,-3.547,-3.56,-3.56,-3.56,-3.56,-3.56,-3.56,-3.56,-3.56,-2.5615,-2.5809,0.0,0.0,0.0,0.0,0.0,-2.7225,0.0,-2.76,0.0,-2.76,-2.76,-2.76,-2.8109,-2.9367,-2.9487,-2.9714,-3.0342,-3.0987,-3.1107,-3.0537,-3.1137,-3.1511,-3.1511,-3.0913,-3.0597,0.0,0.0,0.0,-2.9487,-2.9577,0.0,0.0,0.0,0.0,0.0,-3.1511,-3.1511,-3.1511,-3.1511,-3.1511,-3.1511,-3.1511,-3.1511,-3.1511,-3.1511,-3.1511,-3.1511,-3.1511,-3.1511,-3.1511,-3.1511,-3.1511,-3.1511,-3.1511,-3.1511,-3.1511,-3.1511,-3.1511,-3.1511,-3.1511,-3.1511,-3.1511,-3.1511,-3.1511,-3.1511,-3.1511,-3.1511,-3.1511,0.0,0.0,0.0,0.0,0.0,0.0,0.0,0.0,0.0,0.0,0.0,0.0,0.0,-2.8004,-2.76,-2.76,-2.8128,-2.9044,-3.0418,0.0,-3.1939,-3.3282,-3.2761,-3.2465,-3.2465,-3.1824,-3.1881,-3.2586,-3.2586,-3.3209,-3.4333,-3.4431,-3.4431,-3.4382,-3.5138,-3.5138,-3.4664,-3.5316,-3.5538,-3.547,-3.547,-3.547,-3.547,-3.547,-3.5515,-3.56,-2.6288,0.0,0.0,0.0,0.0,-2.742,-2.742,-2.7525,-2.76,-2.76,-2.76,-2.76,-2.76,-2.76,-2.7929,-2.8712,-2.8771,0.0,0.0,0.0,0.0,-3.0507,-3.1137,-3.1511,-3.1511,-3.1391,-3.1047,0.0,0.0,0.0,-2.8786,0.0,0.0,0.0,0.0,0.0,-3.1511,-3.1511,0.0,-3.1511,-3.1511,-3.1511,-3.1511,-3.1511,-3.1511,-3.1511,-3.1511,-3.1511,-3.1511,-3.1511,-3.1511,-3.1511,-3.1511,-3.1511,-3.1511,-3.1511,-3.1511,-3.1511,-3.1511,-3.1511,-3.1511,-3.1511,-3.1511,-3.1511,-3.1511,-3.1511,-3.1511,-3.1511,-3.1511,-3.1511,-3.1511,0.0,0.0,0.0,0.0,0.0,0.0,0.0,0.0,0.0,0.0,-2.8607,0.0,0.0,-2.76,-2.76,-2.7705,-2.8355,0.0,0.0,-3.0558,0.0,-3.1739,0.0,0.0,0.0,-3.1881,-3.2586,-3.2586,-3.2722,-3.2975,-3.3521,-3.3453,-3.3013,-3.4235,-3.4712,-3.4664,-3.5316,-3.5276,-3.4783,-3.4783,-3.4783,-3.4783,-3.4783,-3.5121,-3.56,-2.7061,0.0,0.0,0.0,0.0,0.0,0.0,-2.76,-2.76,-2.76,-2.7899,-2.8004,-2.763,-2.7914,-2.8233,-2.8562,-2.8607,-2.8876,-2.9562,-3.0163,-3.0507,-3.0507,-3.1137,-3.1511,-3.1511,-3.1152,-3.0808,-3.0507,0.0,0.0,0.0,0.0,0.0,-2.9666,0.0,-3.1511,0.0,0.0,0.0,-3.1511,-3.1511,-3.1511,-3.1511,-3.1511,-3.1511,-3.1511,-3.1511,-3.1511,-3.1511,-3.1511,-3.1511,-3.1511,-3.1511,-3.1511,-3.1511,-3.1511,-3.1511,-3.1511,-3.1511,-3.1511,-3.1511,-3.1511,-3.1511,-3.1511,-3.1511,-3.1511,-3.1511,-3.1511,-3.1511,-3.1511,-3.1511,-3.1511,0.0,0.0,0.0,0.0,0.0,0.0,-3.0702,0.0,0.0,0.0,0.0,0.0,0.0,0.0,0.0,0.0,0.0,0.0,-3.0507,0.0,0.0,0.0,-3.1511,0.0,-3.1697,-3.2035,-3.2035,-3.2216,-3.2614,-3.2933,-3.2922,-3.2641,-3.3659,-3.3887,-3.3608,-3.4276,-3.4374,-3.4087,-3.4087,-3.4087,-3.4087,-3.4087,-3.4301,-3.4657,-2.7779,-2.7705,0.0,0.0,-2.769,-2.76,-2.76,-2.76,-2.76,-2.76,-2.8064,-2.8173,-2.766,-2.8079,-2.8382,-2.8382,-2.8382,-2.8607,-2.9142,-2.9744,-3.0163,-3.0298,-3.0956,-3.1346,-3.1511,-3.0972,-3.0657,0.0,0.0,0.0,0.0,0.0,0.0,0.0,0.0,0.0,0.0,0.0,-3.1511,-3.1511,-3.1511,-3.1511,-3.1511,-3.1511,-3.1511,-3.1511,-3.1511,-3.1511,-3.1511,-3.1511,-3.1511,-3.1511,-3.1511,-3.1511,-3.1511,-3.1511,-3.1511,-3.1511,-3.1511,-3.1511,-3.1511,-3.1511,-3.1511,-3.1511,-3.1511,-3.1511,-3.1511,-3.1511,-3.1511,-3.1511,-3.1511,-3.1511,0.0,0.0,0.0,0.0,0.0,0.0,0.0,0.0,0.0,0.0,-2.9621,0.0,0.0,0.0,0.0,0.0,-3.0447,0.0,0.0,0.0,0.0,-3.1511,-3.1511,0.0,-3.1511,-3.1511,-3.1511,-3.1796,-3.2355,-3.2355,-3.2355,-3.2394,-3.3093,-3.3172,-3.2841,-3.3391,-3.3521,-3.3391,-3.3391,-3.3391,-3.3391,-3.3391,-3.3495,-3.3735,0.0,0.0,0.0,0.0,0.0,-2.76,-2.76,-2.76,-2.76,-2.76,-2.7645,-2.766,-2.76,-2.766,-2.769,-2.769,-2.769,-2.772,-2.7779,-2.8397,-2.9041,-2.9666,-3.0268,-3.0896,-3.1496,-3.1436,-3.1107,0.0,0.0,-3.0103,0.0,0.0,0.0,0.0,0.0,0.0,0.0,-3.1511,-3.1511,-3.1511,-3.1511,-3.1511,-3.1511,-3.1511,-3.1511,-3.1511,-3.1511,-3.1511,-3.1511,-3.1511,-3.1511,-3.1511,-3.1511,-3.1511,-3.1511,-3.1511,-3.1511,-3.1511,-3.1511,-3.1511,-3.1511,-3.1511,-3.1511,-3.1511,-3.1511,-3.1511,-3.1511,-3.1511,-3.1511,-3.1511,-3.1511,-3.1511,-3.1511,0.0,0.0,0.0,0.0,0.0,-3.1511,-3.1511,0.0,0.0,-2.9666,-2.9547,0.0,0.0,-2.9517,0.0,0.0,0.0,0.0,-3.1481,-3.1511,-3.1511,-3.1511,-3.1511,-3.1511,-3.1511,-3.1511,-3.1539,-3.1611,-3.1611,-3.1611,-3.164,-3.2382,-3.2986,-3.3505,-3.3556,-3.3235,-3.2695,-3.2695,-3.2695,-3.2695,-3.2695,-3.3093,-3.3608,0.0,0.0,0.0,0.0,0.0,0.0,0.0,-2.7944,-2.8064,-2.7645,-2.7959,-2.8064,-2.7645,-2.7959,-2.8049,-2.763,-2.76,-2.76,-2.76,-2.8244,-2.8891,-2.9577,-3.0178,-3.0821,-3.1496,-3.1511,-3.1376,0.0,0.0,0.0,0.0,0.0,0.0,0.0,0.0,-3.1511,-3.1511,-3.1511,-3.1511,-3.1511,-3.1511,-3.1511,-3.1511,-3.1511,-3.1511,-3.1511,-3.1511,-3.1511,-3.1511,-3.1511,-3.1511,-3.1511,-3.1511,-3.1511,-3.1511,-3.1511,-3.1511,-3.1511,-3.1511,-3.1511,-3.1511,-3.1511,-3.1511,-3.1511,-3.1511,-3.1511,-3.1511,-3.1511,-3.1511,-3.1511,-3.1511,-3.1511,-3.1511,-3.1511,0.0,0.0,0.0,0.0,0.0,-3.1511,0.0,-3.0417,0.0,-3.0133,0.0,0.0,0.0,0.0,0.0,0.0,0.0,-3.1496,0.0,-3.1511,-3.1511,-3.1511,-3.1511,-3.1511,-3.1511,-3.1511,-3.1511,-3.1511,-3.1511,-3.1511,-3.1824,-3.2076,-3.2324,-3.2324,-3.2173,-3.1923,-3.1923,-3.1923,-3.1923,-3.1923,-3.2364,-3.2877,-2.9116,0.0,-2.8727,0.0,-2.8438,-2.8368,-2.7705,-2.8004,-2.8154,-2.766,-2.8019,-2.8139,-2.7645,-2.8034,-2.8124,-2.7645,-2.76,-2.76,-2.76,-2.8244,-2.8891,-2.9577,-3.0178,0.0,-3.1496,-3.1511,-3.1511,-3.1511,-3.1511,0.0,0.0,0.0,0.0,0.0,-3.1511,-3.1511,-3.1511,-3.1511,-3.1511,-3.1511,-3.1511,-3.1511,-3.1511,-3.1511,-3.1511,-3.1511,-3.1511,-3.1511,-3.1511,-3.1511,-3.1511,-3.1511,-3.1511,-3.1511,-3.1511,-3.1511,-3.1511,-3.1511,-3.1511,-3.1511,-3.1511,-3.1511,-3.1322,-3.1219,-3.1438,-3.1322,-3.1219,-3.1438,-3.1511,-3.1511,-3.1511,-3.1511,-3.1511,-3.1511,0.0,0.0,0.0,-3.1511,0.0,-3.1511,-3.1077,-3.0731,-3.0522,-3.0687,0.0,0.0,0.0,0.0,0.0,0.0,0.0,0.0,0.0,0.0,-3.1511,-3.1511,-3.1511,-3.1511,-3.1511,-3.1511,-3.1511,-3.1511,-3.1511,-3.1511,-3.1511,-3.1511,-3.1511,-3.1511,-3.1511,-3.1511,-3.1511,-3.1511,-3.1525,-3.172,-3.2079,-3.2452,-3.0357,-2.9983,-2.9592,-2.9592,-2.9026,-2.8368,-2.7705,-2.76,-2.76,-2.76,-2.76,-2.76,-2.76,-2.76,-2.76,-2.76,-2.76,-2.76,-2.76,-2.8244,-2.8891,0.0,0.0,-3.0821,-3.1496,-3.1511,-3.1511,-3.1511,0.0,0.0,-3.1496,0.0,-3.1511,-3.1511,-3.1511,-3.1511,-3.1511,-3.1511,-3.1511,-3.1511,-3.1511,-3.1511,-3.1511,-3.1511,-3.1511,-3.1511,-3.1511,-3.1511,-3.1511,-3.1511,-3.1511,-3.1511,-3.1511,-3.1511,-3.1511,-3.1511,-3.1511,-3.1511,-3.1511,-3.1511,-3.1511,-3.1511,-3.0896,-3.0524,-3.1322,-3.0896,-3.0554,-3.1351,-3.1511,-3.1511,-3.1511,-3.1511,-3.1511,-3.1511,0.0,0.0,0.0,-3.1511,0.0,-3.1511,-3.1496,-3.1227,-3.0567,-3.1092,0.0,0.0,0.0,0.0,0.0,0.0,0.0,-3.1511,-3.1511,0.0,-3.1511,-3.1511,-3.1511,-3.1511,-3.1511,-3.1511,-3.1511,-3.1511,-3.1511,-3.1511,-3.1511,-3.1511,-3.1511,-3.1511,-3.1511,-3.1511,-3.1511,-3.1511,-3.1585,-3.2228,-3.2497,-3.2602,-3.0462,-2.9998,-2.9472,-2.8996,-2.8742,-2.8368,-2.7705,-2.8004,-2.8113,-2.766,-2.76,-2.76,-2.76,-2.76,-2.76,0.0,-2.76,-2.7794,0.0,-2.8472,-2.9086,-3.0163,-3.0402,-3.0821,-3.1496,-3.1511,-3.1511,-3.1511,0.0,0.0,0.0,-3.1511,-3.1511,-3.1511,-3.1511,-3.1511,-3.1511,-3.1511,-3.1511,-3.1511,-3.1511,-3.1511,-3.1511,-3.1511,-3.1511,-3.1511,-3.1511,-3.1511,-3.1511,-3.1511,-3.1511,-3.1511,-3.1511,-3.1511,-3.1511,-3.1511,-3.1117,-3.0673,-3.0673,-3.0673,-3.0673,-3.0673,-3.0896,-3.119,-3.1438,-3.1307,-3.119,-3.1438,-3.1511,-3.1511,-3.1511,-3.1511,-3.1511,-3.1511,-3.1511,0.0,-3.1511,0.0,-3.1511,-3.1511,-3.1511,-3.1421,-3.1197,-3.1376,0.0,0.0,0.0,0.0,0.0,0.0,0.0,0.0,-3.1511,0.0,-3.1511,-3.1511,-3.1511,-3.1511,-3.1511,-3.1511,-3.1511,-3.1511,-3.1511,-3.1511,-3.1511,-3.1511,-3.1511,-3.1511,-3.1765,-3.2123,-3.1675,-3.178,-3.2198,-3.2407,-3.2796,-3.3215,-3.0896,-3.0582,-3.0103,-2.943,-2.9131,-2.8742,-2.8094,-2.8113,-2.8053,-2.7645,-2.76,-2.76,-2.76,-2.76,0.0,-2.76,-2.76,-2.7884,-2.8562,-2.8831,-2.943,-3.0462,-3.0746,-3.1062,-3.1496,-3.1511,0.0,-3.1511,-3.1511,-3.1511,-3.1511,-3.1511,-3.1511,-3.1511,-3.1511,-3.1511,-3.1511,-3.1511,-3.1511,-3.1511,-3.1511,-3.1511,-3.1511,-3.1511,-3.1511,-3.1511,-3.1511,-3.1511,-3.1511,-3.1511,-3.1511,-3.1511,-3.1511,-3.1511,-3.1511,-3.1511,-3.1161,-3.0673,-3.0389,-3.0299,-3.0299,-3.0299,-3.0419,-3.0644,-3.097,-3.1058,-3.1161,-3.1438,-3.1248,-3.1161,-3.1438,-3.1511,-3.1511,-3.1511,-3.1511,-3.1511,-3.1511,0.0,-3.1511,0.0,0.0,0.0,0.0,-3.1511,-3.1511,0.0,0.0,0.0,0.0,0.0,0.0,-3.1511,-3.1511,-3.1511,-3.1511,-3.1511,-3.1511,-3.1511,-3.1511,-3.1511,-3.1511,-3.1511,-3.1511,-3.1511,-3.1511,-3.1511,-3.1511,-3.1511,-3.175,-3.2079,-3.166,-3.175,-3.2138,-3.2392,-3.2931,-3.3529,-3.1511,-3.1466,-3.1212,-3.0552,-2.9924,-2.928,-2.8622,-2.8004,-2.76,-2.76,-2.76,-2.76,-2.76,-2.76,-2.76,-2.76,0.0,0.0,-2.8622,-2.9235,-2.9879,-3.0552,-3.1167,-3.1511,-3.1511,-3.1511,-3.1511,-3.1511,-3.1511,-3.1511,-3.1511,-3.1511,-3.1511,-3.1511,-3.1511,-3.1511,-3.1511,-3.1511,-3.1511,-3.1511,-3.1511,-3.1511,-3.1511,-3.1511,-3.1511,-3.1511,-3.1511,-3.1511,-3.1511,-3.1511,-3.1511,-3.1511,-3.1511,-3.1511,-3.1511,-3.1511,-3.1467,-3.1248,-3.0494,-3.0299,-3.0299,-3.0299,-2.969,-2.9286,-3.0103,-3.0299,-3.0524,-3.1322,-3.0866,-3.0554,-3.1351,-3.1438,-3.1438,-3.1511,-3.1511,-3.1511,-3.1511,-3.1511,-3.1511,0.0,0.0,0.0,-3.1511,-3.1511,-3.1511,0.0,0.0,0.0,0.0,0.0,-3.1511,-3.1511,-3.1511,-3.1511,-3.1511,-3.1511,-3.1511,-3.1511,-3.1511,-3.1511,-3.1511,-3.1511,-3.1511,-3.1511,-3.1511,-3.1511,-3.1511,-3.1511,-3.1525,-3.157,-3.1525,-3.1525,-3.1645,-3.2258,-3.2901,-3.3529,0.0,0.0,-3.0552,-2.9909,-2.9265,-2.8607,-2.7944,-2.7705,-2.76,-2.76,-2.76,-2.76,-2.76,-2.76,-2.76,-2.76,-2.76,-2.8109,-2.9292,-2.9517,-3.0088,-3.1212,-3.1421,-3.1511,-3.1511,-3.1511,-3.1511,-3.1511,-3.1511,-3.1511,-3.1511,-3.1511,-3.1511,-3.1511,-3.1511,-3.1511,-3.1511,-3.1511,-3.1511,-3.1511,-3.1511,-3.1511,-3.1511,-3.1511,-3.1511,-3.1511,-3.1511,-3.1511,-3.1511,-3.1511,-3.1511,-3.1511,-3.1511,-3.1511,-3.1511,-3.1511,-3.1058,-3.0554,-3.0359,-3.0299,-3.0299,-3.0299,-3.0133,-3.0042,-3.0238,-3.0299,-3.0524,-3.1322,-3.0866,-3.0554,-3.1351,-3.0999,-3.0807,-3.1409,-3.1511,-3.1511,-3.1511,-3.1511,-3.1511,0.0,-3.1511,-3.1511,-3.1511,-3.1511,-3.1511,0.0,0.0,-3.1511,-3.1511,-3.1511,-3.1511,-3.1511,-3.1511,-3.1511,-3.1511,-3.1511,-3.1511,-3.1511,-3.1511,-3.1511,-3.1511,-3.1511,-3.1511,-3.1511,-3.1511,-3.1511,-3.1511,-3.1511,-3.1795,-3.2198,-3.1705,-3.1809,-3.2273,-3.2452,-3.2617,-3.2841,-3.1511,-3.1212,-3.0776,-3.0118,-2.9475,-2.8816,-2.8169,-2.7809,-2.76,-2.76,-2.76,-2.76,-2.76,-2.76,-2.76,-2.76,-2.76,-2.8049,-2.9071,-2.9442,-3.0028,-3.0987,-3.1331,-3.1511,-3.1511,-3.1511,-3.1511,-3.1511,-3.1511,-3.1511,-3.1511,-3.1511,-3.1511,-3.1511,-3.1511,-3.1511,-3.1511,-3.1511,-3.1511,-3.1511,-3.1511,-3.1511,-3.1511,-3.1511,-3.1511,-3.1511,-3.1511,-3.1511,-3.1511,-3.1511,-3.1511,-3.1511,-3.1511,-3.1511,-3.1511,-3.1511,-3.119,-3.0777,-3.0389,-3.0299,-3.0299,-3.0299,-3.0584,-3.0837,-3.0837,-3.0554,-3.0524,-3.1322,-3.0866,-3.0554,-3.1351,-3.1161,-3.0999,-3.1438,-3.1511,-3.1511,-3.1511,-3.1511,-3.1511,-3.1511,-3.1511,-3.1511,-3.1511,-3.1511,-3.1511,-3.1511,-3.1511,0.0,-3.1511,-3.1511,-3.1511,-3.1511,-3.1511,-3.1511,-3.1511,-3.1511,-3.1511,-3.1511,-3.1511,-3.1511,-3.1511,-3.1511,-3.1511,-3.1511,-3.1511,-3.1511,-3.1511,-3.1511,-3.1705,-3.2004,-3.1645,-3.172,-3.2034,-3.2034,-3.2228,-3.2557,-3.1346,-3.1346,-3.1107,-3.0357,-2.9864,-2.9352,-2.8562,-2.7974,-2.76,-2.76,-2.76,-2.76,-2.76,-2.76,-2.76,-2.76,-2.76,-2.7884,-2.8562,-2.9131,-2.9744,-3.0477,-3.1032,-3.1406,-3.1511,-3.1511,-3.1511,-3.1511,-3.1511,-3.1511,-3.1511,-3.1511,-3.1511,-3.1511,-3.1511,-3.1511,-3.1511,-3.1511,-3.1511,-3.1511,-3.1511,-3.1511,-3.1511,-3.1511,-3.1511,-3.1511,-3.1511,-3.1511,-3.1511,-3.1511,-3.1511,-3.1511,-3.1511,-3.1511,-3.1511,-3.1511,-3.1409,-3.119,-3.0614,-3.0494,-3.0419,-3.0178,-3.0718,-3.1278,-3.1161,-3.0703,-3.0524,-3.1322,-3.0866,-3.0554,-3.1351,-3.1409,-3.1351,-3.1467,-3.1511,-3.1511,-3.1511,0.0,-3.1511,-3.1511,-3.1511,-3.1511,-3.1511,-3.1511,-3.1511,-3.1511,-3.1511,-3.1511,-3.1511,-3.1511,-3.1511,-3.1511,-3.1511,-3.1511,-3.1511,-3.1511,-3.1511,-3.1511,-3.1511,-3.1511,-3.1511,-3.1511,-3.1511,-3.1511,-3.1511,-3.1511,-3.1511,-3.1511,-3.1511,-3.1511,-3.1511,-3.1511,-3.1511,-3.1511,-3.1854,-3.2348,-3.0672,-3.0672,-3.0283,-2.9101,-2.9307,-2.9187,-2.7944,-2.766,-2.76,-2.76,-2.76,-2.76,-2.76,-2.76,-2.76,-2.76,-2.76,-2.7884,-2.8562,-2.8697,-2.928,-3.0447,-3.0612,-3.0913,-3.1496,-3.1511,-3.1511,-3.1511,-3.1511,-3.1511,-3.1511,-3.1511,-3.1511,-3.1511,-3.1511,-3.1511,-3.1511,-3.1511,-3.1511,-3.1511,-3.1511,-3.1511,-3.1511,-3.1511,-3.1511,-3.1511,-3.1511,-3.1511,-3.1511,-3.1511,-3.1511,-3.1511,-3.1511,-3.1511,-3.1511,-3.1511,-3.1029,-3.0614,-3.1161,-3.1307,-3.097,-2.9566,-2.9858,-3.0299,-2.9566,-2.9858,-3.0524,-3.1322,-3.0866,-3.0554,-3.1351,-3.094,-3.0703,-3.138,-3.1511,-3.1511,-3.1511,0.0,-3.1511,-3.1511,-3.1511,-3.1511,-3.1511,-3.1511,-3.1511,-3.1511,-3.1511,-3.1511,-3.1511,-3.1511,-3.1511,-3.1511,-3.1511,-3.1511,-3.1511,-3.1511,-3.1511,-3.1511,-3.1511,-3.1511,-3.1511,-3.1511,-3.1511,-3.1511,-3.1511,-3.1511,-3.1511,-3.1511,-3.1511,-3.1511,-3.1511,-3.1511,-3.1511,-3.1511,-3.157,-3.1735,-3.1032,-3.1032,-3.0629,-2.9355,-2.9385,-2.9157,-2.7794,-2.76,-2.76,-2.76,-2.76,-2.76,-2.76,-2.76,-2.76,-2.76,-2.76,-2.7735,-2.8049,-2.8397,-2.9026,-2.9968,-3.0328,-3.0821,-3.1496,-3.1511,-3.1511,-3.1511,-3.1511,-3.1511,-3.1511,-3.1511,-3.1511,-3.1511,-3.1511,-3.1511,-3.1511,-3.1511,-3.1511,-3.1511,-3.1511,-3.1511,-3.1511,-3.1511,-3.1511,-3.1511,-3.1511,-3.1511,-3.1511,-3.1511,-3.1511,-3.1511,-3.1511,-3.1511,-3.1511,-3.1511,-3.0925,-3.0389,-3.0748,-3.0524,-3.0072,-2.9797,-3.0011,-3.0208,-2.9797,-3.0359,-3.1058,-3.1409,-3.119,-3.1058,-3.1438,-3.119,-3.1058,-3.1438,-3.1511,0.0,-3.1511,-3.1511,-3.1511,-3.1511,-3.1511,-3.1511,-3.1511,-3.1511,-3.1511,-3.1511,-3.1511,-3.166,-3.2019,-3.1705,-3.1675,-3.2019,-3.169,-3.1511,-3.1511,-3.1511,-3.1511,-3.1511,-3.1511,-3.169,-3.2034,-3.2034,-3.2228,-3.2587,-3.2587,-3.2363,-3.2034,-3.2034,-3.1824,-3.1511,-3.1511,-3.1511,-3.154,-3.1899,-3.2034,-3.2123,-3.0676,-3.0837,-3.0582,-2.9305,-2.9352,-2.9157,-2.7794,-2.76,-2.76,-2.76,-2.76,-2.76,-2.76,-2.76,-2.76,-2.76,-2.76,-2.76,-2.76,-2.8244,-2.8891,-2.9577,-3.0328,-3.0957,-3.1496,-3.1511,-3.1511,-3.1511,-3.1511,-3.1511,-3.1511,-3.1511,-3.1511,-3.1511,-3.1511,-3.1511,-3.1511,-3.1511,-3.1511,-3.1511,-3.1511,-3.1511,-3.1511,-3.1511,-3.1511,-3.1511,-3.1511,-3.1511,-3.1511,-3.1511,-3.1511,-3.1511,-3.1511,-3.1511,-3.1511,-3.1511,-3.0925,-3.0329,-3.0524,-3.0072,-2.969,-3.0178,-3.0419,-3.0524,-3.0329,-3.0925,-3.1511,-3.1511,-3.1511,-3.1511,-3.1511,-3.1511,-3.1511,-3.1511,0.0,-3.1511,-3.1511,-3.1511,-3.1511,-3.1511,-3.1511,-3.1511,-3.1511,-3.1511,-3.157,-3.172,-3.1735,-3.1959,-3.2452,-3.2153,-3.2123,-3.2497,-3.1989,-3.166,-3.1511,-3.1809,-3.1809,-3.1511,-3.1809,-3.2138,-3.2527,-3.2677,-3.3021,-3.3499,-3.3499,-3.3215,-3.2736,-3.2572,-3.2183,-3.1735,-3.1735,-3.1735,-3.1809,-3.2497,-3.2736,-3.2841,-2.8252,-2.8902,-2.9045,-2.7691,-2.8658,-2.9157,-2.7794,-2.76,-2.76,-2.76,-2.76,-2.76,-2.76,-2.76,-2.76,-2.76,-2.76,-2.76,-2.76,-2.8244,-2.8891,-2.9577,-3.0763,-3.1451,-3.1511,-3.1511,-3.1511,-3.1511,-3.1511,-3.1511,-3.1511,-3.1511,-3.1511,-3.1511,-3.1511,-3.1511,-3.1511,-3.1511,-3.1511,-3.1511,-3.1511,-3.1511,-3.1511,-3.1511,-3.1511,-3.1511,-3.1511,-3.1511,-3.1511,-3.1511,-3.1511,-3.1511,-3.1511,-3.1511,-3.1511,-3.1511,-3.0925,-3.045,-3.1219,-3.1351,-3.1161,-3.0464,-3.0866,-3.1219,-3.0464,-3.0925,-3.1511,-3.1511,-3.1511,-3.1511,-3.1511,-3.1511,-3.1511,-3.1511,0.0,0.0,-3.1511,-3.1511,-3.1511,-3.1511,-3.1511,-3.1511,-3.1511,-3.1511,-3.1765,-3.2392,-3.2437,-3.2437,-3.2512,-3.3036,-3.3095,-3.2527,-3.2437,-3.2123,-3.1511,-3.2736,-3.2736,-3.1511,-3.2766,-3.3051,-3.2512,-3.314,-3.344,-3.3499,-3.3499,-3.3469,-3.338,-3.2766,-3.2452,-3.2437,-3.2437,-3.2437,-3.2497,-3.3185,-3.3425,-3.3514,-2.8626,-2.8875,-2.8713,-2.7465,-2.8096,-2.8367,-2.7094,-2.7306,-2.76,-2.76,-2.76,-2.76,-2.76,-2.76,-2.76,-2.76,-2.76,-2.7779,-2.8173,-2.8858,-2.949,-3.0118,-3.1017,-3.1511,-3.1511,-3.1511,-3.1511,-3.1511,-3.1511,-3.1511,-3.1511,-3.1511,-3.1511,-3.1511,-3.1511,-3.1511,-3.1511,-3.1511,-3.1511,-3.1511,-3.1511,-3.1511,-3.1511,-3.1511,-3.1511,-3.1511,-3.1511,-3.1511,-3.1511,-3.1511,-3.1511,-3.1511,-3.1511,-3.1511,-3.1511,-3.1511,-3.1278,-3.1117,-3.1409,-3.0748,-3.0011,-3.0238,-3.0524,-3.0673,-3.0359,-3.0925,-3.1511,-3.1511,-3.1511,-3.1511,-3.1511,-3.1511,-3.1511,-3.1511,0.0,-3.1511,-3.1511,-3.1511,-3.1511,-3.1511,-3.1869,-3.2108,-3.2108,-3.2512,-3.2856,-3.3095,-3.3125,-3.3305,-3.3709,-3.3963,-3.3799,-3.314,-3.3514,-3.3021,-3.1511,-3.2841,-3.3036,-3.2123,-3.3066,-3.3574,-3.3739,-3.3978,-3.4337,-3.4741,-3.4741,-3.4502,-3.4114,-3.3844,-3.3499,-3.3125,-3.3125,-3.3125,-3.32,-3.3858,-3.4098,-3.4234,-2.8214,-2.847,-2.8364,-2.7299,-2.7826,-2.8125,-2.7304,-2.7606,-2.7989,-2.8199,-2.8049,-2.7914,-2.7914,-2.7914,-2.7839,-2.7615,-2.7989,-2.8334,-2.8577,-2.94,-3.0163,-3.0806,-3.1256,-3.1511,-3.1511,-3.1511,-3.1511,-3.1511,-3.1511,-3.1511,-3.1511,-3.1511,-3.1511,-3.1511,-3.1511,-3.1511,-3.1511,-3.1511,-3.1511,-3.1511,-3.1511,-3.1511,-3.1511,-3.1511,-3.1511,-3.1511,-3.1511,-3.1511,-3.1511,-3.1511,-3.1511,-3.1511,-3.1511,-3.1511,-3.1511,-3.1511,-3.1511,-3.1511,-3.1511,-3.0819,-3.0192,-3.0568,-3.0673,-3.0673,-3.0673,-3.1279,-3.1809,-3.1809,-3.1974,-3.2123,-3.2123,-3.2123,-3.2123,-3.2123,-3.2123,-3.2123,-3.2123,-3.2123,-3.2123,-3.2123,-3.2512,-3.2826,-3.2826,-3.323,-3.3589,-3.3784,-3.3799,-3.4129,-3.4788,-3.4623,-3.4294,-3.3814,-3.4442,-3.3948,-3.2138,-3.3469,-3.3694,-3.2826,-3.3709,-3.4247,-3.4518,-3.4728,-3.5055,-3.5504,-3.5504,-3.5235,-3.4786,-3.4593,-3.4234,-3.3799,-3.3799,-3.3799,-3.3888,-3.4562,-3.4801,-3.4861,-2.6487,-2.7293,-2.7776,-2.7127,-2.7877,-2.8581,-2.8581,-2.8607,-2.8846,-2.9517,-2.9011,-2.8607,-2.8607,-2.8607,-2.8338,-2.7675,-2.8843,-2.931,-2.8667,-2.9804,-3.0806,-3.1466,-3.1511,-3.1511,-3.1511,-3.1511,-3.1511,-3.1511,-3.1511,-3.1511,-3.1511,-3.1511,-3.1511,-3.1511,-3.1511,-3.1511,-3.1511,-3.1511,-3.1511,-3.1511,-3.1511,-3.1511,-3.1511,-3.1511,-3.1511,-3.1511,-3.1511,-3.1511,-3.1511,-3.1511,-3.1511,-3.1511,-3.1511,-3.1511,-3.1511,-3.1511,-3.1511,-3.1511,-3.1511,-3.1989,-3.2333,-3.1675,-3.1511,-3.1511,-3.1525,-3.2034,-3.2497,-3.2497,-3.3036,-3.3499,-3.3499,-3.3499,-3.3499,-3.3499,-3.3499,-3.3499,-3.3499,-3.3499,-3.3499,-3.3499,-3.3499,-3.3499,-3.3499,-3.3499,-3.3784,-3.4474,-3.4518,-3.4786,-3.5474,-3.4861,-3.4518,-3.4518,-3.5145,-3.4861,-3.3529,-3.4831,-3.4831,-3.3514,-3.4861,-3.5145,-3.4533,-3.519,-3.5504,-3.5504,-3.5504,-3.5504,-3.5444,-3.4788,-3.4518,-3.4518,-3.4518,-3.4518,-3.4593,-3.525,-3.5504,-3.5504,-2.5971,-2.6098,-2.6265,-2.6052,-2.6897,-2.7612,-2.7612,-2.8583,-2.9355,-2.9577,-2.9442,-2.928,-2.928,-2.928,-2.9232,-2.9022,-2.9382,-2.9684,-2.9924,-3.0718,-3.1286,-3.1496,-3.1511,-3.1511,-3.1511,-3.1511,-3.1511,-3.1511,-3.1511,-3.1511,-3.1511,-3.1511,-3.1511,-3.1511,-3.1511,-3.1511,-3.1511,-3.1511,-3.1511,-3.1511,-3.1511,-3.1511,-3.1511,-3.1511,-3.1511,-3.1511,-3.1511,-3.1511,-3.1511,-3.1511,-3.1511,-3.1511,-3.1511,-3.1511,-3.1511,-3.1511,-3.1824,-3.2183,-3.2183,-3.2706,-3.2884,-3.1535,-3.2076,-3.275,-3.2077,-3.2594,-3.32,-3.32,-3.3365,-3.3499,-3.3499,-3.3499,-3.3499,-3.3499,-3.3499,-3.3499,-3.3499,-3.3499,-3.3499,-3.3499,-3.3934,-3.4219,-3.4219,-3.4622,-3.4996,-3.519,-3.519,-3.5295,-3.5489,-3.531,-3.519,-3.519,-3.54,-3.531,-3.4921,-3.531,-3.5055,-3.4219,-3.5085,-3.54,-3.5205,-3.5415,-3.5504,-3.5504,-3.5504,-3.5504,-3.5489,-3.528,-3.519,-3.519,-3.519,-3.519,-3.522,-3.5429,-3.5504,-3.5504,-2.6047,-2.6003,-2.6023,-2.6023,-2.6924,-2.7733,-2.8001,-2.8857,-2.9584,-2.9835,-2.9345,-2.8971,-2.8971,-2.8971,-2.887,-2.8594,-2.9123,-2.9873,-3.0838,-3.1271,-3.1511,-3.1511,-3.1511,-3.1511,-3.1511,-3.1511,-3.1511,-3.1511,-3.1511,-3.1511,-3.1511,-3.1511,-3.1511,-3.1511,-3.1511,-3.1511,-3.1511,-3.1511,-3.1511,-3.1511,-3.1511,-3.1511,-3.1511,-3.1511,-3.1511,-3.1511,-3.1511,-3.1511,-3.1511,-3.1511,-3.1511,-3.1511,-3.1511,-3.1511,-3.1555,-3.1809,-3.2168,-3.2572,-3.2826,-3.338,-3.3583,-3.2228,-3.27,-3.3362,-3.2788,-3.3291,-3.3888,-3.3888,-3.4098,-3.4292,-3.4292,-3.4292,-3.4292,-3.4292,-3.4292,-3.4292,-3.4292,-3.4292,-3.4292,-3.4292,-3.4637,-3.4891,-3.4891,-3.5265,-3.5504,-3.5504,-3.5744,-3.5774,-3.5519,-3.5504,-3.5504,-3.5504,-3.5504,-3.5504,-3.5504,-3.5759,-3.5549,-3.4891,-3.531,-3.5504,-3.5504,-3.5504,-3.5504,-3.5504,-3.5504,-3.5504,-3.5504,-3.5504,-3.5504,-3.5504,-3.5504,-3.5504,-3.5504,-3.5504,-3.5504,-3.5504,-2.6424,-2.6526,-2.6627,-2.668,-2.7511,-2.8411,-2.9068,-2.9228,-2.9488,-3.0092,-2.8951,-2.8081,-2.8081,-2.8081,-2.7847,-2.7209,-2.8546,-3.0002,-3.1408,-3.1511,-3.1511,-3.1511,-3.1511,-3.1511,-3.1511,-3.1511,-3.1511,-3.1511,-3.1511,-3.1511,-3.1511,-3.1511,-3.1511,-3.1511,-3.1511,-3.1511,-3.1511,-3.1511,-3.1511,-3.1511,-3.1511,-3.1511,-3.1511,-3.1511,-3.1511,-3.1511,-3.1511,-3.1511,-3.1511,-3.1511,-3.1511,-3.1511,-3.1511,-3.1511,-3.163,-3.2288,-3.2557,-3.2751,-3.341,-3.4068,-3.4388,-3.3532,-3.3483,-3.3679,-3.3571,-3.4097,-3.4593,-3.4593,-3.5115,-3.5579,-3.5519,-3.5549,-3.5579,-3.5519,-3.5504,-3.5504,-3.5504,-3.5504,-3.5534,-3.5594,-3.5594,-3.5609,-3.5669,-3.5669,-3.5669,-3.5669,-3.6178,-3.6252,-3.5714,-3.5564,-3.5534,-3.5594,-3.5594,-3.5594,-3.5594,-3.6237,-3.6237,-3.5594,-3.5654,-3.5654,-3.5594,-3.5654,-3.5654,-3.5594,-3.5594,-3.5594,-3.5594,-3.5534,-3.5504,-3.5504,-3.5504,-3.5504,-3.5504,-3.5504,-3.5549,-3.5594,-2.5908,-2.5807,-2.5991,-2.6447,-2.6915,-2.7404,-2.7964,-2.862,-2.9101,-2.9258,-2.8986,-2.8778,-2.8778,-2.8778,-2.8709,-2.8584,-2.9513,-3.0498,-3.1438,-3.1511,-3.1511,-3.1511,-3.1511,-3.1511,-3.1511,-3.1511,-3.1511,-3.1511,-3.1511,-3.1511,-3.1511,-3.1511,-3.1511,-3.1511,-3.1511,-3.1511,-3.1511,-3.1511,-3.1511,-3.1511,-3.1511,-3.1511,-3.1511,-3.1511,-3.1511,-3.1511,-3.1511,-3.1511,-3.1511,-3.1511,-3.1511,-3.1511,-3.1511,-3.1511,-3.163,-3.2288,-3.2886,-3.3425,-3.4114,-3.4756,-3.5215,-3.5038,-3.4999,-3.4847,-3.4072,-3.4628,-3.528,-3.528,-3.5818,-3.6118,-3.5609,-3.5923,-3.6103,-3.5594,-3.5504,-3.5504,-3.5504,-3.5504,-3.5699,-3.6207,-3.6267,-3.6462,-3.6941,-3.7,-3.7,-3.7,-3.6671,-3.6626,-3.6985,-3.6043,-3.5744,-3.6252,-3.6267,-3.6267,-3.6267,-3.6896,-3.6896,-3.6282,-3.6761,-3.6746,-3.6297,-3.6776,-3.6731,-3.6267,-3.6267,-3.6267,-3.6237,-3.5714,-3.5504,-3.5504,-3.5504,-3.5504,-3.5504,-3.5504,-3.5833,-3.6267,-2.6097,-2.6047,-2.6135,-2.6436,-2.6917,-2.7393,-2.7664,-2.8084,-2.8363,-2.8363,-2.8051,-2.7802,-2.7802,-2.7802,-2.8149,-2.8939,-2.9797,-3.0644,-3.1438,-3.1511,-3.1511,-3.1511,-3.1511,-3.1511,-3.1511,-3.1511,-3.1511,-3.1511,-3.1511,-3.1511,-3.1511,-3.1511,-3.1511,-3.1511,-3.1511,-3.1511,-3.1511,-3.1511,-3.1511,-3.1511,-3.1511,-3.1511,-3.1511,-3.1511,-3.1511,-3.1511,-3.1511,-3.1511,-3.1511,-3.1511,-3.1511,-3.1555,-3.1869,-3.1974,-3.2168,-3.3155,-3.3694,-3.4113,-3.4786,-3.5235,-3.5504,-3.5504,-3.5744,-3.5747,-3.4913,-3.537,-3.5968,-3.5968,-3.6477,-3.6821,-3.6477,-3.6686,-3.6806,-3.6462,-3.6417,-3.6417,-3.6417,-3.6417,-3.6552,-3.6881,-3.6926,-3.7045,-3.7375,-3.7689,-3.7749,-3.7434,-3.7404,-3.7389,-3.7404,-3.6776,-3.6567,-3.6911,-3.6926,-3.6926,-3.6926,-3.7554,-3.7719,-3.7389,-3.7404,-3.724,-3.6941,-3.727,-3.724,-3.6911,-3.6611,-3.6492,-3.6432,-3.5774,-3.5504,-3.5504,-3.5504,-3.5504,-3.5549,-3.5863,-3.6193,-3.6432,-2.6499,-2.6499,-2.6499,-2.6499,-2.704,-2.7484,-2.7484,-2.7484,-2.7484,-2.7484,-2.6905,-2.6499,-2.6499,-2.6499,-2.7162,-2.8844,-2.9504,-3.0329,-3.1438,-3.138,-3.1278,-3.1278,-3.1278,-3.1278,-3.1278,-3.1278,-3.1351,-3.1511,-3.1511,-3.1511,-3.1511,-3.1511,-3.1511,-3.1511,-3.1511,-3.1511,-3.1511,-3.1511,-3.1511,-3.1511,-3.1511,-3.1511,-3.1511,-3.1511,-3.1511,-3.1511,-3.1511,-3.1511,-3.1525,-3.163,-3.1675,-3.1795,-3.2452,-3.2557,-3.2689,-3.4082,-3.4377,-3.4448,-3.5277,-3.5504,-3.5534,-3.5639,-3.6088,-3.6372,-3.5923,-3.6252,-3.6641,-3.6641,-3.7135,-3.7539,-3.7434,-3.7494,-3.7539,-3.7419,-3.7404,-3.7404,-3.7404,-3.7404,-3.7449,-3.7569,-3.7674,-3.7749,-3.7749,-3.8242,-3.8332,-3.7793,-3.8153,-3.8197,-3.7778,-3.7539,-3.7464,-3.7569,-3.7584,-3.7584,-3.7584,-3.8242,-3.8556,-3.8556,-3.8018,-3.7689,-3.7584,-3.7704,-3.7689,-3.7539,-3.703,-3.6806,-3.6746,-3.5983,-3.5669,-3.5669,-3.5669,-3.5669,-3.5744,-3.6402,-3.6582,-3.6432,-2.6499,-2.6499,-2.6499,-2.6499,-2.6589,-2.6658,-2.6658,-2.6658,-2.6658,-2.6658,-2.6555,-2.6499,-2.6499,-2.6499,-2.7162,-2.8844,-2.8427,-2.9034,-3.1351,-3.0837,-3.045,-3.045,-3.045,-3.045,-3.045,-3.045,-3.0807,-3.1511,-3.1511,-3.1511,-3.1511,-3.1511,-3.1511,-3.1511,-3.1511,-3.1511,-3.1511,-3.1511,-3.1511,-3.1511,-3.1511,-3.1511,-3.1511,-3.1511,-3.1511,-3.1511,-3.1511,-3.1511,-3.1585,-3.2168,-3.2348,-3.2467,-3.3155,-3.2827,-3.2457,-3.4044,-3.3947,-3.3609,-3.5115,-3.5504,-3.5639,-3.6207,-3.6417,-3.6596,-3.7045,-3.7225,-3.7285,-3.7285,-3.7808,-3.8078,-3.7524,-3.7868,-3.8063,-3.7494,-3.7404,-3.7404,-3.7404,-3.7404,-3.7629,-3.8197,-3.8781,-3.9155,-3.9155,-3.9194,-3.9245,-3.9119,-3.8676,-3.8616,-3.9089,-3.8048,-3.7674,-3.8242,-3.8257,-3.8257,-3.8257,-3.8931,-3.9239,-3.9239,-3.9185,-3.8841,-3.8272,-3.8871,-3.8826,-3.8257,-3.8167,-3.8123,-3.8048,-3.6851,-3.6357,-3.6357,-3.6357,-3.6357,-3.6432,-3.7045,-3.6941,-3.6552,-2.6499,-2.6499,-2.6499,-2.6499,-2.6499,-2.6499,-2.6499,-2.6499,-2.6499,-2.6499,-2.6499,-2.6499,-2.6499,-2.6905,-2.7484,-2.8214,-2.8363,-2.8907,-3.0042,-2.9766,-2.9566,-2.9566,-2.9566,-2.9797,-3.0299,-3.0299,-3.0673,-3.1511,-3.1511,-3.1511,-3.1511,-3.1511,-3.1511,-3.1511,-3.1511,-3.1511,-3.1511,-3.1511,-3.1511,-3.1511,-3.1511,-3.1511,-3.1511,-3.1511,-3.1511,-3.1511,-3.1511,-3.1511,-3.16,-3.2258,-3.2512,-3.2691,-3.3724,-3.3758,-3.3655,-3.475,-3.4783,-3.4614,-3.5317,-3.5774,-3.6118,-3.6417,-3.7015,-3.7629,-3.7898,-3.8257,-3.8422,-3.8033,-3.8497,-3.8871,-3.8586,-3.8766,-3.8871,-3.8586,-3.8527,-3.8527,-3.8527,-3.8527,-3.8646,-3.8931,-3.923,-3.9388,-3.9388,-3.9388,-3.9388,-3.9388,-3.914,-3.9095,-3.9373,-3.8856,-3.8661,-3.896,-3.896,-3.896,-3.896,-3.9275,-3.9388,-3.9388,-3.9388,-3.926,-3.8975,-3.929,-3.9245,-3.8945,-3.8556,-3.8392,-3.8317,-3.7389,-3.6791,-3.6522,-3.6866,-3.7225,-3.7539,-3.7449,-3.7464,-3.7539]},{"header":{"parameterUnit":"m.s-1","parameterCategory":1,"la1":30.6,"la2":28.766,"lo1":-90.7593,"lo2":-88.6598,"dy":0.0162,"dx":0.0183,"nx":116,"ny":114,"refTime":"2023-04-03T06:00:00:Z","depth":0,"parameterNumber":3,"parameterNumberName":"V-component_of_WINDS"},"data":[0.0,0.0,0.0,0.0,0.0,0.0,0.0,0.0,0.0,0.0,0.0,0.0,0.0,0.0,0.0,0.0,0.0,0.0,0.0,0.0,0.0,0.0,0.0,0.0,0.0,0.0,0.0,0.0,0.0,0.0,0.0,0.0,0.0,0.0,0.0,0.0,0.0,0.0,0.0,0.0,0.0,0.0,0.0,0.0,0.0,0.0,0.0,0.0,0.0,0.0,0.0,0.0,0.0,0.0,0.0,0.0,0.0,0.0,0.0,0.0,0.0,0.0,0.0,0.0,0.0,0.0,0.0,0.0,0.0,0.0,0.0,0.0,0.0,0.0,0.0,0.0,0.0,0.0,0.0,0.0,0.0,0.0,0.0,0.0,0.0,0.0,0.0,0.0,0.0,0.0,0.0,0.0,0.0,0.0,0.0,0.0,0.0,0.0,0.0,0.0,0.0,0.0,0.0,0.0,0.0,0.0,0.0,0.0,0.0,0.0,0.0,0.0,0.0,0.0,0.0,0.0,0.0,0.0,0.0,0.0,0.0,0.0,0.0,0.0,0.0,0.0,0.0,0.0,0.0,0.0,0.0,0.0,0.0,0.0,0.0,0.0,0.0,0.0,0.0,0.0,0.0,0.0,0.0,0.0,0.0,0.0,0.0,0.0,0.0,0.0,0.0,0.0,0.0,0.0,0.0,0.0,0.0,0.0,0.0,0.0,0.0,0.0,0.0,0.0,0.0,0.0,0.0,0.0,0.0,0.0,0.0,0.0,0.0,0.0,0.0,0.0,0.0,0.0,0.0,0.0,0.0,0.0,0.0,0.0,0.0,0.0,0.0,0.0,0.0,0.0,0.0,0.0,0.0,0.0,0.0,0.0,0.0,0.0,0.0,0.0,0.0,0.0,0.0,0.0,0.0,0.0,0.0,0.0,0.0,0.0,0.0,0.0,0.0,0.0,0.0,0.0,0.0,0.0,0.0,0.0,0.0,0.0,0.0,0.0,0.0,0.0,0.0,0.0,0.0,0.0,0.0,0.0,0.0,0.0,0.0,0.0,0.0,0.0,0.0,0.0,0.0,0.0,0.0,0.0,0.0,0.0,0.0,0.0,0.0,0.0,0.0,0.0,0.0,0.0,0.0,0.0,0.0,0.0,0.0,0.0,0.0,0.0,0.0,0.0,0.0,0.0,0.0,0.0,0.0,0.0,0.0,0.0,0.0,0.0,0.0,0.0,0.0,0.0,0.0,0.0,0.0,0.0,0.0,0.0,0.0,0.0,0.0,0.0,0.0,0.0,0.0,0.0,0.0,0.0,0.0,0.0,0.0,0.0,0.0,0.0,0.0,0.0,0.0,0.0,0.0,0.0,0.0,0.0,0.0,0.0,0.0,0.0,0.0,0.0,0.0,0.0,0.0,0.0,0.0,0.0,0.0,0.0,0.0,0.0,0.0,0.0,0.0,0.0,0.0,0.0,0.0,0.0,0.0,0.0,0.0,0.0,0.0,0.0,0.0,0.0,0.0,0.0,0.0,0.0,0.0,0.0,0.0,0.0,0.0,0.0,0.0,0.0,0.0,0.0,0.0,0.0,0.0,0.0,0.0,0.0,0.0,0.0,0.0,0.0,0.0,0.0,0.0,0.0,0.0,0.0,0.0,0.0,0.0,0.0,0.0,0.0,0.0,0.0,0.0,0.0,0.0,0.0,0.0,0.0,0.0,0.0,0.0,0.0,0.0,0.0,0.0,0.0,0.0,0.0,0.0,0.0,0.0,0.0,0.0,0.0,0.0,0.0,0.0,0.0,0.0,0.0,0.0,0.0,0.0,0.0,0.0,0.0,0.0,0.0,0.0,0.0,0.0,0.0,0.0,0.0,0.0,0.0,0.0,0.0,0.0,0.0,0.0,0.0,0.0,0.0,0.0,0.0,0.0,0.0,0.0,0.0,0.0,0.0,0.0,0.0,0.0,0.0,0.0,0.0,0.0,0.0,0.0,0.0,0.0,0.0,0.0,0.0,0.0,0.0,0.0,0.0,0.0,0.0,0.0,0.0,0.0,0.0,0.0,0.0,0.0,0.0,0.0,0.0,0.0,0.0,0.0,0.0,0.0,0.0,0.0,0.0,0.0,0.0,0.0,0.0,0.0,0.0,0.0,0.0,0.0,0.0,0.0,0.0,0.0,0.0,0.0,0.0,0.0,0.0,0.0,0.0,0.0,0.0,0.0,0.0,0.0,0.0,0.0,0.0,0.0,0.0,0.0,0.0,0.0,0.0,0.0,0.0,0.0,0.0,0.0,0.0,0.0,0.0,0.0,0.0,0.0,0.0,0.0,0.0,0.0,0.0,0.0,0.0,0.0,0.0,0.0,0.0,0.0,0.0,0.0,0.0,0.0,0.0,0.0,0.0,0.0,0.0,0.0,0.0,0.0,0.0,0.0,0.0,0.0,0.0,0.0,0.0,0.0,0.0,0.0,0.0,0.0,0.0,0.0,0.0,0.0,0.0,0.0,0.0,0.0,0.0,0.0,0.0,0.0,0.0,0.0,0.0,0.0,0.0,0.0,0.0,0.0,0.0,0.0,0.0,0.0,0.0,0.0,0.0,0.0,0.0,0.0,0.0,0.0,0.0,0.0,0.0,0.0,0.0,0.0,0.0,0.0,0.0,0.0,0.0,0.0,0.0,0.0,0.0,0.0,0.0,0.0,0.0,0.0,0.0,0.0,0.0,0.0,0.0,0.0,0.0,0.0,0.0,0.0,0.0,0.0,0.0,0.0,0.0,0.0,0.0,0.0,0.0,0.0,0.0,0.0,0.0,0.0,0.0,0.0,0.0,0.0,0.0,0.0,0.0,0.0,0.0,0.0,0.0,0.0,0.0,0.0,0.0,0.0,0.0,0.0,0.0,0.0,0.0,0.0,0.0,0.0,0.0,0.0,0.0,0.0,0.0,0.0,0.0,0.0,0.0,0.0,0.0,0.0,0.0,0.0,0.0,0.0,0.0,0.0,0.0,0.0,0.0,0.0,0.0,0.0,0.0,0.0,0.0,0.0,0.0,0.0,0.0,0.0,0.0,0.0,0.0,0.0,0.0,0.0,0.0,0.0,0.0,0.0,0.0,0.0,0.0,0.0,0.0,0.0,0.0,0.0,0.0,0.0,0.0,0.0,0.0,0.0,0.0,0.0,0.0,0.0,0.0,0.0,0.0,0.0,0.0,0.0,0.0,0.0,0.0,0.0,0.0,0.0,0.0,0.0,0.0,0.0,0.0,0.0,0.0,0.0,0.0,0.0,0.0,0.0,0.0,0.0,0.0,0.0,0.0,0.0,0.0,0.0,0.0,0.0,0.0,0.0,0.0,0.0,0.0,0.0,0.0,0.0,0.0,0.0,0.0,0.0,0.0,0.0,0.0,0.0,0.0,0.0,0.0,0.0,0.0,0.0,0.0,0.0,0.0,0.0,0.0,0.0,0.0,0.0,0.0,0.0,0.0,0.0,0.0,0.0,0.0,0.0,0.0,0.0,0.0,0.0,0.0,0.0,0.0,0.0,0.0,0.0,0.0,0.0,0.0,0.0,0.0,0.0,0.0,0.0,0.0,0.0,0.0,0.0,0.0,0.0,0.0,0.0,0.0,0.0,0.0,0.0,0.0,0.0,0.0,0.0,0.0,0.0,0.0,0.0,0.0,0.0,0.0,0.0,0.0,0.0,0.0,0.0,0.0,0.0,0.0,0.0,0.0,0.0,0.0,0.0,0.0,0.0,0.0,0.0,0.0,0.0,0.0,0.0,0.0,0.0,0.0,0.0,0.0,0.0,0.0,0.0,0.0,0.0,0.0,0.0,0.0,0.0,0.0,0.0,0.0,0.0,0.0,0.0,0.0,0.0,0.0,0.0,0.0,0.0,0.0,0.0,0.0,0.0,0.0,0.0,0.0,0.0,0.0,0.0,0.0,0.0,0.0,0.0,0.0,0.0,0.0,0.0,0.0,0.0,0.0,0.0,0.0,0.0,0.0,0.0,0.0,0.0,0.0,0.0,0.0,0.0,0.0,0.0,0.0,0.0,0.0,0.0,0.0,0.0,0.0,0.0,0.0,0.0,0.0,0.0,0.0,0.0,0.0,0.0,0.0,0.0,0.0,0.0,0.0,0.0,0.0,0.0,0.0,0.0,0.0,0.0,0.0,0.0,0.0,0.0,0.0,0.0,0.0,0.0,0.0,0.0,0.0,0.0,0.0,0.0,0.0,0.0,0.0,0.0,0.0,0.0,0.0,0.0,0.0,0.0,0.0,0.0,0.0,0.0,0.0,0.0,0.0,0.0,0.0,0.0,0.0,0.0,0.0,0.0,0.0,0.0,0.0,0.0,0.0,0.0,0.0,0.0,0.0,0.0,0.0,0.0,0.0,0.0,0.0,0.0,0.0,0.0,0.0,0.0,0.0,0.0,0.0,0.0,0.0,0.0,0.0,0.0,0.0,0.0,0.0,0.0,0.0,0.0,0.0,0.0,0.0,0.0,0.0,0.0,0.0,0.0,0.0,0.0,0.0,0.0,0.0,0.0,0.0,0.0,0.0,0.0,0.0,0.0,0.0,0.0,0.0,0.0,0.0,0.0,0.0,0.0,0.0,0.0,0.0,0.0,0.0,0.0,0.0,0.0,0.0,0.0,0.0,0.0,0.0,0.0,0.0,0.0,0.0,0.0,0.0,0.0,0.0,0.0,0.0,0.0,0.0,0.0,0.0,0.0,0.0,0.0,0.0,0.0,0.0,0.0,0.0,0.0,0.0,0.0,0.0,0.0,0.0,0.0,0.0,0.0,0.0,0.0,0.0,0.0,0.0,0.0,0.0,0.0,0.0,0.0,0.0,0.0,0.0,0.0,0.0,0.0,0.0,0.0,0.0,0.0,0.0,0.0,0.0,0.0,0.0,0.0,0.0,0.0,0.0,0.0,0.0,0.0,0.0,0.0,0.0,0.0,0.0,0.0,0.0,0.0,0.0,0.0,0.0,0.0,0.0,0.0,0.0,0.0,0.0,0.0,0.0,0.0,0.0,0.0,0.0,0.0,0.0,0.0,0.0,0.0,0.0,0.0,0.0,0.0,0.0,0.0,0.0,0.0,0.0,0.0,0.0,0.0,0.0,0.0,0.0,0.0,0.0,0.0,0.0,0.0,0.0,0.0,0.0,0.0,0.0,0.0,0.0,0.0,0.0,0.0,0.0,0.0,0.0,0.0,0.0,0.0,0.0,0.0,0.0,0.0,0.0,0.0,0.0,0.0,0.0,0.0,0.0,0.0,0.0,0.0,0.0,0.0,0.0,0.0,0.0,0.0,0.0,0.0,0.0,0.0,0.0,0.0,0.0,0.0,0.0,0.0,0.0,0.0,0.0,0.0,0.0,0.0,0.0,0.0,0.0,0.0,0.0,0.0,0.0,0.0,0.0,0.0,0.0,0.0,0.0,0.0,0.0,0.0,0.0,0.0,0.0,0.0,0.0,0.0,0.0,0.0,0.0,0.0,0.0,0.0,0.0,0.0,0.0,0.0,0.0,0.0,0.0,0.0,0.0,0.0,0.0,0.0,0.0,0.0,0.0,0.0,0.0,0.0,0.0,0.0,0.0,0.0,0.0,0.0,0.0,0.0,0.0,0.0,0.0,0.0,0.0,0.0,0.0,0.0,0.0,0.0,0.0,0.0,0.0,0.0,0.0,0.0,0.0,0.0,0.0,0.0,0.0,0.0,0.0,0.0,0.0,0.0,0.0,0.0,0.0,0.0,0.0,0.0,0.0,0.0,0.0,0.0,0.0,0.0,0.0,0.0,0.0,0.0,0.0,0.0,0.0,0.0,0.0,0.0,0.0,0.0,0.0,0.0,0.0,0.0,0.0,0.0,0.0,0.0,0.0,0.0,0.0,0.0,0.0,0.0,0.0,0.0,0.0,0.0,0.0,0.0,0.0,0.0,0.0,0.0,0.0,0.0,0.0,0.0,0.0,0.0,0.0,0.0,0.0,0.0,0.0,0.0,0.0,0.0,0.0,0.0,0.0,0.0,0.0,0.0,0.0,0.0,0.0,0.0,0.0,0.0,0.0,0.0,0.0,0.0,0.0,0.0,0.0,0.0,0.0,0.0,0.0,1.3938,0.0,0.0,0.0,0.0,0.0,0.0,0.0,0.0,0.0,0.0,0.0,0.0,0.0,0.0,0.0,0.0,0.0,0.0,0.0,0.0,0.0,0.0,0.0,0.0,0.0,0.0,0.0,0.0,0.0,0.0,0.0,0.0,0.0,0.0,0.0,0.0,0.0,0.0,0.0,1.8208,1.8603,1.8964,1.8691,1.8694,1.8894,0.0,0.0,0.0,0.0,0.0,0.0,0.0,0.0,0.0,0.0,0.0,0.0,0.0,0.0,0.0,0.0,0.0,0.0,0.0,0.0,0.0,0.0,0.0,0.0,0.0,0.0,0.0,0.0,0.0,0.0,0.0,0.0,0.0,0.0,0.0,0.0,0.0,0.0,0.0,0.0,0.0,0.0,0.0,0.0,0.0,0.0,0.0,0.0,0.0,0.0,0.0,0.0,0.0,0.0,0.0,0.0,0.0,0.0,0.0,0.0,0.0,0.0,0.0,0.0,0.0,0.0,0.0,0.0,0.0,0.0,0.0,1.4561,0.0,0.0,0.0,0.0,0.0,0.0,0.0,0.0,0.0,0.0,0.0,0.0,0.0,0.0,0.0,0.0,0.0,0.0,0.0,0.0,0.0,0.0,0.0,1.9885,1.9744,1.9609,1.9427,1.9297,0.0,0.0,0.0,0.0,0.0,0.0,0.0,1.81,1.8082,1.7861,1.8336,1.8999,1.9864,1.9917,1.9737,1.9396,1.9877,0.0,0.0,0.0,0.0,0.0,0.0,0.0,0.0,0.0,0.0,0.0,0.0,0.0,0.0,0.0,0.0,0.0,0.0,0.0,0.0,0.0,0.0,0.0,0.0,0.0,0.0,0.0,0.0,0.0,0.0,0.0,0.0,0.0,0.0,0.0,0.0,0.0,0.0,0.0,0.0,0.0,0.0,0.0,0.0,0.0,0.0,0.0,0.0,0.0,0.0,0.0,0.0,0.0,0.0,0.0,0.0,0.0,0.0,0.0,0.0,0.0,0.0,0.0,1.4752,1.4926,1.541,1.541,1.541,1.5391,1.5049,1.5088,1.5381,1.5039,0.0,0.0,0.0,0.0,0.0,0.0,0.0,0.0,0.0,0.0,0.0,0.0,0.0,0.0,0.0,0.0,0.0,0.0,0.0,0.0,0.0,1.9885,1.9744,1.9609,1.9427,1.9297,1.9297,0.0,0.0,0.0,0.0,0.0,1.8146,1.8177,1.8177,1.8146,1.9345,2.0011,2.0192,2.1474,2.1788,2.1209,2.0685,2.1139,2.2212,0.0,0.0,0.0,0.0,0.0,0.0,0.0,0.0,0.0,0.0,0.0,0.0,0.0,0.0,0.0,0.0,0.0,0.0,0.0,0.0,0.0,0.0,0.0,0.0,0.0,0.0,0.0,0.0,0.0,0.0,0.0,0.0,0.0,0.0,0.0,0.0,0.0,0.0,0.0,0.0,0.0,1.2701,1.3094,0.0,0.0,0.0,0.0,0.0,0.0,0.0,0.0,0.0,0.0,0.0,0.0,0.0,1.4902,1.5322,1.4557,1.4557,1.5303,1.4613,1.467,1.541,1.541,1.541,1.541,1.5352,0.0,1.541,1.5352,0.0,0.0,0.0,0.0,0.0,0.0,0.0,0.0,0.0,0.0,0.0,0.0,0.0,0.0,0.0,0.0,0.0,0.0,0.0,0.0,0.0,1.9836,1.9707,1.9445,1.9525,1.9492,1.9312,1.9185,0.0,0.0,0.0,1.8351,1.8198,1.8351,1.872,1.9327,1.9761,2.0597,2.178,2.2114,2.246,2.2762,2.2047,2.2005,2.2399,2.118,0.0,0.0,0.0,0.0,0.0,0.0,0.0,0.0,0.0,0.0,0.0,0.0,0.0,0.0,0.0,0.0,0.0,0.0,0.0,0.0,0.0,0.0,0.0,0.0,0.0,0.0,0.0,0.0,0.0,0.0,0.0,0.0,0.0,0.0,0.0,0.0,0.0,0.0,0.0,1.3126,1.3552,1.3995,1.4163,1.4228,0.0,0.0,0.0,0.0,0.0,0.0,0.0,0.0,0.0,1.5127,1.5137,1.5225,1.541,1.505,1.505,1.541,1.505,1.505,1.542,1.5664,1.5781,1.5821,1.6015,1.6016,1.5762,1.5508,1.5303,1.5137,0.0,0.0,0.0,0.0,1.501,1.5186,0.0,0.0,0.0,0.0,0.0,0.0,0.0,0.0,0.0,0.0,0.0,0.0,1.9869,1.9813,1.9701,1.9402,1.9605,1.9625,1.932,1.9298,1.9206,0.0,1.8743,1.8508,1.831,1.8566,1.9093,1.9885,2.0087,2.1,2.2556,2.2432,2.276,2.3414,2.2923,2.2586,2.2371,2.1955,2.1703,2.1502,0.0,0.0,0.0,0.0,0.0,0.0,0.0,0.0,0.0,0.0,0.0,0.0,0.0,0.0,0.0,0.0,0.0,0.0,0.0,0.0,0.0,0.0,0.0,0.0,0.0,0.0,0.0,0.0,0.0,0.0,0.0,0.0,0.0,0.0,0.0,0.0,0.0,1.34,1.3789,1.4475,1.4317,1.4355,0.0,0.0,0.0,0.0,0.0,0.0,1.5332,1.541,1.541,1.541,1.541,1.541,1.541,1.541,1.541,1.541,1.5527,1.5576,1.5596,1.6065,1.6261,1.6281,1.656,1.6543,1.6232,1.5762,1.5508,1.541,1.541,1.541,1.542,1.5537,1.5811,1.6065,0.0,0.0,0.0,0.0,0.0,0.0,0.0,0.0,0.0,0.0,0.0,2.0205,2.0012,1.988,1.9744,1.9596,1.9596,1.9527,1.9312,1.9485,1.9413,1.9027,1.8743,1.8585,1.8576,1.8834,1.902,1.9064,2.0507,2.1282,2.1409,2.2598,2.301,2.2759,2.2721,2.2695,2.2656,2.2385,2.2003,2.1597,2.1519,0.0,0.0,0.0,0.0,0.0,0.0,0.0,0.0,0.0,0.0,0.0,0.0,0.0,0.0,0.0,0.0,0.0,0.0,0.0,0.0,0.0,0.0,0.0,0.0,0.0,0.0,0.0,0.0,0.0,0.0,0.0,0.0,0.0,0.0,0.0,0.0,0.0,0.0,1.3696,1.3053,0.0,0.0,0.0,0.0,1.4729,1.5128,1.5332,1.541,1.541,1.541,1.541,1.541,1.541,1.541,1.541,1.541,1.542,1.586,1.6056,1.6075,1.6494,1.6668,1.6668,1.6687,1.6687,1.6638,1.6221,1.5811,1.541,1.541,1.541,1.5459,1.5909,1.6075,1.6153,0.0,0.0,0.0,0.0,0.0,0.0,0.0,0.0,2.0111,2.0111,2.0036,1.9982,2.0007,1.9968,1.988,1.9738,1.9923,1.989,1.9527,1.965,1.9518,1.9018,1.8914,1.887,1.887,1.8949,1.9322,1.9975,2.0861,2.1552,2.2082,2.2629,2.2822,2.2695,2.2527,2.2436,2.244,2.2335,2.2209,2.2017,2.1718,2.126,0.0,0.0,0.0,0.0,0.0,0.0,0.0,0.0,0.0,0.0,0.0,0.0,0.0,0.0,0.0,0.0,0.0,0.0,0.0,0.0,0.0,0.0,0.0,0.0,0.0,0.0,0.0,0.0,0.0,0.0,0.0,0.0,0.0,0.0,0.0,0.0,0.0,1.4687,1.4094,0.0,1.4357,1.4152,1.4123,1.4386,1.4554,1.4835,1.5381,1.541,1.5537,1.585,1.586,1.5967,1.6229,1.6229,1.6229,1.6229,1.6426,1.6494,1.6514,1.6953,1.7148,1.7168,1.7432,1.7402,1.7139,1.7014,1.666,1.62,1.5947,1.586,1.588,1.6036,1.625,1.6514,0.0,0.0,0.0,0.0,0.0,0.0,0.0,0.0,1.9958,1.9984,1.9885,1.9852,1.9998,1.9968,1.9901,1.9802,2.0001,1.9971,1.9616,1.9593,1.9418,1.9018,1.901,1.901,1.901,1.9069,1.938,2.0001,2.0767,2.136,2.18,2.2307,2.2577,2.2581,2.2643,2.2533,2.2313,2.2581,2.253,2.2265,2.1974,2.1583,2.115,0.0,0.0,0.0,0.0,0.0,0.0,0.0,0.0,0.0,0.0,0.0,0.0,0.0,0.0,0.0,0.0,0.0,0.0,0.0,0.0,0.0,0.0,0.0,0.0,0.0,0.0,0.0,0.0,0.0,0.0,0.0,0.0,0.0,0.0,0.0,1.4068,1.5274,1.4451,1.4004,1.454,1.4362,1.4293,1.4569,1.4599,1.4901,1.5595,1.5635,1.583,1.6279,1.6289,1.6436,1.6697,1.6697,1.6697,1.6697,1.6853,1.6953,1.6941,1.7393,1.7598,1.7607,1.7891,1.7852,1.7598,1.7598,1.7422,1.7077,1.6514,1.6289,1.6309,1.6486,1.6699,1.6973,0.0,0.0,0.0,0.0,0.0,0.0,0.0,1.988,1.9841,1.9959,1.988,1.9847,1.9974,1.9885,1.9796,1.9815,1.9796,1.9738,1.9603,1.9365,1.9149,1.9009,1.8992,1.901,1.901,1.9198,1.9198,1.9011,2.0223,2.0676,2.0464,2.1704,2.2313,2.2364,2.3088,2.3021,2.2429,2.3122,2.3021,2.2364,2.2313,2.2017,2.1536,0.0,0.0,0.0,0.0,0.0,0.0,0.0,0.0,0.0,0.0,0.0,0.0,0.0,0.0,0.0,0.0,0.0,0.0,0.0,0.0,0.0,0.0,0.0,0.0,0.0,0.0,0.0,0.0,0.0,0.0,0.0,0.0,0.0,1.4863,1.4138,1.4049,1.5274,1.3995,1.3644,1.5196,1.4697,1.4558,1.5342,1.541,1.5635,1.6095,1.6114,1.6289,1.6707,1.6716,1.6726,1.6746,1.6746,1.6746,1.6746,1.7197,1.7435,1.7422,1.7822,1.8008,1.8008,1.8018,1.8027,1.8037,1.8047,1.8047,1.7959,1.7058,1.6716,1.6775,1.7227,1.7425,1.7461,0.0,0.0,0.0,0.0,0.0,0.0,0.0,1.9676,1.9663,1.9713,1.9676,1.9738,1.9964,1.9885,1.9836,1.9943,1.9858,1.9738,1.9603,1.9523,1.9416,1.9238,1.9086,1.901,1.901,1.9052,1.9218,1.9505,2.0175,2.0737,2.1206,2.1942,2.2584,2.3105,2.3308,2.3579,2.3915,2.4118,2.4085,2.3814,2.2733,2.184,2.115,0.0,0.0,0.0,0.0,0.0,0.0,0.0,0.0,0.0,0.0,0.0,0.0,0.0,0.0,0.0,0.0,0.0,0.0,0.0,0.0,0.0,0.0,0.0,0.0,0.0,0.0,0.0,0.0,0.0,0.0,0.0,1.5342,1.5371,1.5254,1.4549,1.4352,1.5274,1.4481,1.4025,1.4481,1.5177,1.5417,1.5044,1.5835,1.6395,1.6543,1.6553,1.6748,1.7187,1.7207,1.7353,1.7656,1.7623,1.7623,1.7623,1.7783,1.7842,1.7842,1.7959,1.8008,1.8027,1.8295,1.8432,1.8451,1.8799,1.8936,1.8828,1.7656,1.7207,1.7217,1.7344,1.7578,1.7852,0.0,0.0,0.0,0.0,0.0,0.0,0.0,1.9527,1.9506,1.9582,1.9527,1.9585,1.9871,1.9809,1.9774,1.9893,1.9784,1.9682,1.9614,1.952,1.9372,1.9182,1.906,1.901,1.901,1.8896,1.907,1.9531,2.0119,2.0727,2.1392,2.2343,2.2987,2.3427,2.4052,2.4391,2.4508,2.4829,2.4778,2.4457,2.39,2.3066,2.2086,2.1702,2.1024,2.0347,2.0563,2.0301,1.9817,1.953,0.0,0.0,0.0,0.0,0.0,0.0,0.0,0.0,0.0,0.0,0.0,0.0,0.0,0.0,0.0,0.0,0.0,0.0,0.0,0.0,0.0,0.0,0.0,0.0,1.5684,1.5752,1.5907,1.5402,1.5234,1.5877,1.5533,1.5249,1.5249,1.5915,1.6152,1.5707,1.629,1.6775,1.6992,1.7002,1.7207,1.7637,1.7812,1.8027,1.8237,1.8457,1.8545,1.8545,1.8545,1.8545,1.8545,1.8545,1.8545,1.8564,1.8799,1.887,1.8926,1.918,1.9287,0.0,0.0,0.0,0.0,0.0,1.7803,1.8008,0.0,0.0,0.0,0.0,0.0,0.0,0.0,1.9409,1.9357,1.9541,1.9402,1.9419,1.9731,1.965,1.9617,1.9768,1.965,1.9562,1.9562,1.9394,1.9214,1.9019,1.901,1.902,1.9031,1.8802,1.8953,1.9515,2.0165,2.0788,2.136,2.275,2.3427,2.3579,2.4983,2.527,2.4795,2.5541,2.5473,2.4931,2.5628,2.503,2.3651,2.282,2.2489,2.2378,2.1973,2.1567,2.1108,2.0449,0.0,0.0,0.0,0.0,0.0,0.0,0.0,0.0,0.0,0.0,0.0,0.0,0.0,0.0,0.0,0.0,0.0,0.0,0.0,0.0,0.0,0.0,0.0,0.0,1.6212,1.6387,1.6843,1.6602,1.6445,1.6668,1.6697,1.6697,1.6697,1.6746,1.6775,1.6775,1.6863,1.71,1.7432,0.0,0.0,0.0,0.0,1.8676,1.8676,1.9092,1.9287,1.9287,1.9287,1.9287,1.9287,1.9287,1.9287,1.9287,1.9336,1.9355,1.9365,1.9404,1.9404,1.9307,1.8792,1.8568,1.849,1.8144,1.8008,1.8008,0.0,0.0,0.0,0.0,0.0,0.0,0.0,1.932,1.9312,1.935,1.932,1.9387,1.9604,1.9467,1.9431,1.9629,1.9459,1.935,1.935,1.932,1.9214,1.9019,1.901,1.9092,1.9241,1.9195,1.9711,2.0824,2.0977,2.14,2.2124,2.2987,2.3729,2.4321,2.522,2.5845,2.6319,2.7046,2.73,2.7181,2.7548,2.6227,2.4023,2.388,2.3639,2.3272,2.2709,2.276,2.297,2.2364,2.181,2.1261,2.0648,1.9783,0.0,0.0,0.0,0.0,0.0,0.0,0.0,0.0,0.0,0.0,0.0,0.0,0.0,0.0,0.0,0.0,0.0,0.0,0.0,1.6533,1.6894,1.7393,1.813,1.8159,1.7759,1.6814,1.6697,1.6697,1.6697,1.7051,1.7256,1.7256,1.7891,1.812,1.79,1.8545,1.8789,1.849,1.8936,1.916,1.916,1.9248,1.9287,1.9287,0.0,0.0,1.9287,1.9287,1.9287,1.9307,1.9648,1.9795,1.9814,2.0176,2.0145,1.9717,1.89,1.8393,1.8125,1.8037,1.8008,1.8008,0.0,0.0,0.0,0.0,0.0,0.0,0.0,1.915,1.915,1.915,1.915,1.9269,1.9562,1.9409,1.9335,1.9387,1.9251,1.915,1.915,1.9235,1.9214,1.9019,1.9219,1.9328,1.9306,1.9527,2.0159,2.119,2.119,2.1766,2.2868,2.3611,2.4338,2.5067,2.5828,2.6353,2.6742,2.7486,2.7807,2.7856,2.8467,2.7708,2.6146,2.5575,2.5049,2.4522,2.3879,2.3849,2.3926,2.2629,2.1969,2.1544,2.0608,1.9902,1.9334,0.0,0.0,0.0,0.0,0.0,0.0,0.0,0.0,0.0,0.0,0.0,0.0,0.0,0.0,1.5732,1.5732,0.0,1.6897,1.7305,1.7734,1.8232,1.8867,1.8965,1.8721,1.8086,1.8008,1.8008,1.8008,1.8213,1.8242,1.8027,1.8603,1.8779,1.8315,1.8936,1.9189,1.8965,1.9375,1.96,1.96,1.9814,1.9959,1.9959,1.9959,1.9959,1.9959,1.9959,1.9959,1.9979,2.0146,2.0244,2.0254,2.0517,2.0312,1.9873,1.9407,1.9014,1.8652,1.8652,1.8652,1.8652,0.0,0.0,0.0,0.0,0.0,0.0,0.0,1.8949,1.894,1.8984,1.901,1.9127,1.9449,1.9346,1.9193,1.9091,1.8981,1.894,1.9002,1.9091,1.9091,1.8931,1.9217,1.943,1.943,1.9816,2.0454,2.141,2.141,2.2104,2.341,2.4152,2.4897,2.5626,2.637,2.6691,2.6759,2.7516,2.7867,2.7931,2.8867,2.8865,2.8237,2.7108,2.6329,2.5674,2.4739,2.441,2.4104,2.2195,2.1527,2.1318,2.019,1.9813,1.9723,1.9271,1.9296,0.0,0.0,0.0,0.0,0.0,0.0,0.0,0.0,1.5537,1.5566,1.5644,1.5947,1.6222,1.6222,1.6877,1.7549,1.8047,1.8486,1.8945,1.9463,1.9541,1.9502,1.9424,1.9336,1.9287,1.9287,1.9287,1.9141,1.8754,1.917,1.9219,1.8754,1.9258,1.9492,1.9414,1.9824,2.0039,2.0039,2.0429,2.0605,2.0605,2.0605,2.0605,2.0605,2.0605,2.0605,2.0605,2.0605,2.0605,2.0605,2.0605,2.04,2.0039,2.0039,1.9834,1.9512,1.9346,1.9287,1.9287,0.0,0.0,0.0,0.0,0.0,0.0,0.0,0.0,1.8734,1.8966,1.901,1.9027,1.906,1.9043,1.8931,1.8698,1.8651,1.8752,1.8975,1.8807,1.867,1.8659,1.8478,1.8861,1.9895,1.9976,2.0724,2.2192,2.2192,2.2598,2.341,2.4152,2.4897,2.5626,2.637,2.6691,2.6759,2.767,2.8075,2.8151,2.9022,2.9023,2.8404,2.7682,2.7017,2.6243,2.4388,2.3714,2.3434,2.1598,2.0951,2.079,2.0173,1.9896,1.9798,1.9736,1.9083,1.8423,1.8666,1.7752,1.6539,1.5719,1.5468,1.5508,0.0,1.6016,1.6134,1.6473,1.659,1.6629,1.6629,1.7051,1.7646,1.8403,1.8936,1.9492,2.0351,2.0458,2.0312,1.9883,1.9512,1.9287,1.9287,1.9287,1.9268,1.9219,1.9609,1.9658,1.9238,2.0018,2.0244,1.9853,2.0264,2.0537,2.0537,2.0576,2.0605,2.0605,2.0605,2.0605,2.0605,2.0605,2.0605,2.0605,2.0605,2.0605,2.0605,2.0605,2.0576,2.0537,2.0537,2.0507,2.037,1.9607,1.9287,1.9287,0.0,0.0,0.0,0.0,0.0,0.0,0.0,0.0,0.0,1.8518,1.8528,1.8585,1.8752,1.8641,1.8489,1.8381,1.8371,1.841,1.8528,1.8576,1.8528,1.8371,1.9089,1.9642,1.9997,2.0893,2.1857,2.2936,2.2936,2.3545,2.4695,2.5,2.5524,2.6251,2.6556,2.674,2.6872,2.7729,2.8163,2.8253,2.8693,2.8482,2.7806,2.678,2.5742,2.4709,2.3585,2.2929,0.0,2.0482,1.9816,1.9695,1.9123,1.8899,1.8869,1.8869,1.8462,1.7951,1.7524,1.6801,1.6098,1.5861,1.5986,1.6299,1.676,1.7054,1.7246,1.7432,1.7633,1.773,1.7486,1.8027,1.8603,1.8955,1.9375,1.9863,2.0517,2.0342,2.0029,1.96,1.9394,1.9385,1.9629,1.9648,1.9648,1.9648,2.0049,2.0107,1.9678,2.0234,2.0517,2.0303,2.0507,2.0605,2.0605,2.0605,2.0605,2.0605,2.0605,2.0605,2.0605,2.0605,2.0605,2.0605,2.0605,2.0605,2.0605,2.0605,2.0605,2.0605,2.0605,2.0605,2.0566,2.0204,2.0067,2.0067,0.0,0.0,0.0,0.0,0.0,0.0,0.0,0.0,0.0,0.0,1.8198,1.827,1.8469,1.8249,1.8082,1.8082,1.8082,1.8114,1.8198,1.831,1.8408,1.8492,1.9464,2.0101,2.0331,2.1431,2.2361,2.3105,2.2969,2.3649,2.506,2.4778,2.523,2.6281,2.6098,2.6185,2.6466,2.71,2.7414,2.75,2.7651,2.7303,2.6589,2.547,2.4134,2.2822,2.2476,2.1917,2.1076,1.9236,1.8715,1.8749,1.8162,1.7984,1.7954,1.7954,1.7566,1.7045,1.6521,1.606,1.5836,1.6177,1.6582,1.7051,1.7607,1.7969,1.8213,1.834,1.8471,1.8471,1.8052,1.8516,1.8975,1.9092,1.9463,1.9893,2.0322,2.0117,1.9668,1.9014,1.9033,1.918,1.9375,1.9707,1.9961,2.0088,2.0429,2.0468,2.0107,2.0429,2.0605,2.0605,2.0605,2.0605,2.0605,2.0605,2.0605,2.0605,2.0605,2.0605,2.0605,2.0605,2.0605,2.0605,2.0605,2.0605,2.0605,2.0605,2.0605,2.0605,2.0605,2.0605,2.0605,2.0605,2.0605,2.0605,0.0,0.0,0.0,0.0,0.0,0.0,0.0,0.0,0.0,0.0,0.0,0.0,0.0,1.7971,1.7811,1.7811,1.7811,1.7916,1.8177,1.796,1.8262,1.9215,1.9058,1.9633,2.1123,2.1207,2.1583,2.233,2.1871,2.2386,2.3737,2.2702,2.3288,2.5227,2.4556,2.4652,2.5262,2.543,2.549,2.5503,2.5629,2.5294,2.4612,2.3924,2.2551,2.0984,2.0963,2.0538,1.9689,1.7943,1.7739,1.814,1.759,1.7368,1.7327,1.7327,1.6366,1.5386,1.5869,1.5727,1.5635,1.6453,1.7041,1.7578,1.8373,1.8568,1.8705,1.916,1.8926,1.8471,1.8052,1.8037,1.8184,1.8559,1.9023,1.9453,1.9873,1.9922,1.9453,1.8193,1.8373,1.8461,0.0,1.9189,2.0088,2.0546,2.0595,2.0595,2.0586,2.0595,2.0605,2.0605,2.0605,2.0605,2.0605,2.0605,2.0605,2.0605,2.0605,2.0605,2.0605,2.0605,2.0605,2.0605,2.0605,2.0605,2.0605,2.0605,2.0605,2.0605,2.0605,2.0605,2.0605,2.0605,2.0605,2.0605,0.0,0.0,0.0,0.0,0.0,0.0,0.0,0.0,0.0,0.0,0.0,0.0,0.0,0.0,0.0,0.0,1.7248,1.726,1.7573,1.7521,1.7707,1.8285,1.9161,1.9862,2.0386,2.1103,2.1822,2.2568,2.2132,2.2426,2.3366,2.3004,2.319,2.3865,2.364,2.3949,2.4668,2.472,2.5553,2.6756,2.546,2.5068,2.5015,2.2693,2.1146,2.0105,0.0,1.8378,1.8018,1.7078,1.6901,1.7024,1.6876,1.65,1.6148,1.6005,1.5847,1.5864,1.6499,1.6473,1.6531,1.7672,1.832,1.8799,1.9355,1.9707,1.9795,1.9375,1.917,1.8769,1.7773,1.7598,1.7822,1.849,1.8724,1.9065,1.9814,1.9912,1.9443,1.8164,1.8344,0.0,0.0,0.0,0.0,2.0098,2.0439,2.0605,2.0605,2.0605,2.0605,2.0605,2.0605,2.0605,2.0605,2.0605,2.0605,2.0605,2.0605,2.0605,2.0605,2.0605,2.0605,2.0605,2.0605,2.0605,2.0605,2.0605,2.0605,2.0605,2.0605,2.0605,2.0605,2.0605,2.0605,2.0605,0.0,0.0,0.0,0.0,0.0,0.0,0.0,0.0,0.0,0.0,0.0,0.0,0.0,0.0,0.0,0.0,0.0,1.6892,1.7113,1.7126,1.7338,1.7809,1.8734,1.9362,1.9641,2.0317,2.0904,2.1393,2.0974,2.1243,2.2164,2.1771,2.1967,2.2637,2.242,2.2733,2.3447,2.3447,2.4103,2.5097,2.3807,2.3282,2.3061,2.1039,1.9715,0.0,1.7712,1.7167,1.6951,1.6616,1.65,1.65,1.65,1.6095,1.5549,1.5364,1.5573,1.6057,1.6809,1.707,1.7428,1.8559,1.9189,1.9629,2.0049,2.0127,1.9989,1.9404,1.8799,1.8125,1.7305,1.7021,1.7139,1.7808,1.8052,1.8486,1.9299,1.9453,1.9114,1.8295,1.8568,1.8773,0.0,0.0,0.0,2.0117,2.0449,2.0674,2.0791,2.0693,2.0674,2.0801,2.0683,2.0605,2.0605,2.0605,2.0605,2.0605,2.0605,2.0605,2.0605,2.0605,2.0605,2.0605,2.0605,2.0605,2.0605,2.0605,2.0605,2.0605,2.0605,2.0605,2.0605,2.0605,2.0605,2.0605,0.0,0.0,0.0,0.0,0.0,0.0,0.0,0.0,0.0,0.0,0.0,0.0,0.0,0.0,0.0,0.0,0.0,0.0,1.6763,1.6763,1.709,1.7813,1.7909,1.8258,1.8941,1.9026,1.9027,1.8977,1.8589,1.9028,2.0201,1.9178,1.9717,2.152,2.0912,2.1017,2.161,2.161,2.1379,2.0992,2.0849,2.0152,1.919,1.9052,1.8296,1.7312,1.7271,1.693,1.65,1.65,1.6513,1.6538,1.6473,1.6091,1.5631,1.5443,1.5584,1.6005,1.685,1.7582,1.8311,1.9141,1.9648,2.0049,2.0478,1.992,1.9268,1.918,1.7861,1.6677,1.6609,1.6318,1.6261,1.6687,1.7168,1.7744,1.8549,1.8685,1.8685,1.8637,0.0,0.0,0.0,0.0,0.0,2.0605,0.0,2.0781,2.1171,2.083,2.081,2.121,2.083,2.0644,2.0674,2.0644,2.0625,2.0605,2.0605,2.0605,2.0605,2.0605,2.0605,2.0605,2.0605,2.0605,2.0605,2.0605,2.0605,2.0605,2.0605,2.0605,2.0605,2.0605,2.0605,2.0605,0.0,0.0,0.0,0.0,0.0,0.0,0.0,0.0,0.0,0.0,0.0,0.0,0.0,0.0,0.0,0.0,0.0,0.0,1.6407,1.6421,1.662,1.7058,1.809,1.8505,1.8194,1.9357,1.9499,1.8543,1.8603,1.8782,1.9099,1.8828,1.9031,1.9613,1.9857,2.0112,2.0351,2.0351,2.116,2.2214,2.0316,1.9971,2.0373,1.8478,1.7575,1.725,1.6858,1.6616,1.65,1.65,1.681,1.6993,1.6055,1.6209,1.6692,1.648,1.6744,1.7316,1.8194,1.8903,1.9561,2.0145,2.0361,2.038,2.0127,1.9668,1.8926,1.7646,1.6999,1.6404,1.5459,1.5743,1.6447,1.751,1.8003,1.8578,1.9473,1.9863,1.9834,1.9199,1.9492,1.9717,1.9563,1.9785,0.0,0.0,2.1064,2.1073,2.119,2.1083,2.1269,2.1709,2.1289,2.1221,2.1593,2.123,2.0898,2.0605,2.0605,2.0605,2.0605,2.0605,2.0605,2.0605,2.0605,2.0605,2.0605,2.0605,2.0605,2.0605,2.0605,2.0605,2.0605,2.0605,2.0605,2.0605,0.0,0.0,0.0,0.0,0.0,0.0,0.0,0.0,0.0,0.0,0.0,0.0,0.0,0.0,0.0,0.0,0.0,0.0,0.0,1.6342,1.6551,1.6749,1.7801,1.8205,1.7831,1.8458,1.8455,1.7734,1.7624,1.7718,1.801,1.801,1.8196,1.8554,1.8855,1.9037,1.9106,1.9106,1.9639,0.0,0.0,1.8619,1.8936,1.7483,1.6951,1.6909,1.6616,1.6455,1.643,1.6463,1.6818,1.7168,1.6638,1.7006,1.7603,1.724,1.7796,1.857,1.897,1.9637,2.0254,2.0546,2.0458,2.0166,1.9736,1.9023,1.8125,1.6941,1.6248,1.5713,1.5156,1.5332,1.5899,1.7005,1.7486,1.813,1.9173,1.9727,2.0008,1.9863,2.0059,0.0,2.0195,2.0195,2.0488,0.0,2.119,2.1356,2.1736,2.158,2.1631,2.1875,2.165,2.1543,2.1602,2.1317,2.1016,2.0605,2.0605,2.0605,2.0605,2.0605,2.0605,2.0605,0.0,2.0605,2.0605,2.0605,2.0605,2.0605,2.0605,2.0605,2.0605,2.0605,2.0605,2.0605,0.0,0.0,0.0,0.0,0.0,0.0,0.0,0.0,0.0,0.0,1.6712,0.0,0.0,0.0,0.0,0.0,0.0,0.0,0.0,0.0,1.6696,1.6696,1.7428,1.777,1.7601,1.7316,1.7041,1.6801,1.6415,1.6519,1.71,1.71,1.743,1.8007,1.8066,1.8066,1.7987,1.7987,1.7727,1.7291,1.7209,1.6909,1.65,0.0,1.65,1.65,1.6588,1.6577,1.6551,1.6692,1.6931,1.7218,1.7573,1.8009,1.8323,1.7921,1.8631,1.9515,1.9393,1.9989,2.0605,2.0605,2.0195,1.9717,1.9297,1.8213,1.7158,1.6629,1.5654,1.4961,1.5273,1.5127,1.5263,1.6124,1.6611,1.7311,1.8588,1.9131,1.9668,2.0507,2.0605,2.0605,2.0605,2.0605,2.0771,2.1249,2.1278,2.1629,2.2471,2.2168,2.1973,2.1973,2.2021,2.1816,2.1288,2.1278,2.1064,2.0605,2.0605,2.0605,2.0605,2.0605,2.0605,2.0605,2.0605,2.0605,2.0605,2.0605,2.0605,2.0605,2.0605,2.0605,2.0605,2.0605,2.0605,2.0605,0.0,0.0,0.0,0.0,0.0,0.0,0.0,0.0,0.0,0.0,1.6219,1.626,0.0,0.0,0.0,0.0,0.0,0.0,0.0,0.0,0.0,1.6696,1.7878,1.8066,1.7055,1.8029,1.7789,1.6243,1.6702,1.6985,1.71,1.71,1.7217,1.7463,1.7907,1.7847,1.7442,1.7442,1.7394,1.725,1.6816,1.6573,1.65,1.65,0.0,0.0,1.7061,1.7395,1.773,1.8339,1.8037,1.7452,1.7596,1.8013,1.8542,1.876,1.9065,1.9413,1.9725,2.0176,2.0605,2.0605,2.0018,1.9287,1.8812,1.773,1.658,1.5781,1.5459,1.5215,1.4941,1.5439,1.6163,1.7044,1.751,1.8232,1.9512,1.9756,2.0,2.0546,2.0605,2.0605,2.0605,2.0605,0.0,0.0,2.1777,2.1992,2.248,2.2441,2.2402,2.2402,2.2744,2.2549,2.1777,2.1777,2.1367,2.0605,2.0605,2.0605,2.0605,2.0605,2.0605,2.0605,2.0605,0.0,2.0605,2.0605,2.0605,2.0605,2.0605,2.0605,2.0605,2.0605,2.0605,2.0605,0.0,0.0,0.0,0.0,0.0,0.0,0.0,1.6643,1.6576,1.6758,1.6623,1.6319,1.5843,1.5799,1.5799,0.0,0.0,0.0,0.0,0.0,0.0,0.0,0.0,0.0,1.7949,1.8014,1.762,1.6734,0.0,1.6782,1.6782,1.6782,1.6824,1.69,1.7146,1.7105,1.6892,1.7222,1.7183,1.691,1.7238,1.7225,1.6999,0.0,0.0,0.0,0.0,1.786,1.8018,1.8759,1.8251,1.7413,1.7828,1.8213,1.8528,1.8762,1.9211,1.9707,2.0137,2.0449,2.0605,2.0605,1.9746,1.8838,1.8373,1.7314,1.6201,1.5547,1.541,1.5352,1.5146,1.5449,1.5937,1.6623,1.7061,1.7759,1.9026,1.9443,1.9834,2.0527,2.0605,2.0605,2.0605,2.0605,2.0967,2.1816,2.1885,2.2168,2.276,2.2627,2.2617,2.2789,2.2822,2.2617,2.2217,2.1992,2.1562,2.0908,2.0713,2.0605,2.0605,2.0605,2.0605,2.0605,2.0605,2.0605,2.0605,2.0605,2.0605,2.0605,2.0605,2.0605,2.0605,2.0605,2.0605,2.0605,0.0,0.0,0.0,0.0,0.0,0.0,1.7258,1.7029,1.7029,1.7609,1.7234,1.6682,1.6069,1.5888,1.5799,0.0,0.0,0.0,0.0,0.0,0.0,0.0,0.0,0.0,0.0,0.0,0.0,0.0,1.671,0.0,0.0,0.0,0.0,0.0,1.6697,1.6773,1.6911,1.7363,1.73,0.0,0.0,1.794,0.0,0.0,0.0,0.0,0.0,1.8351,1.8365,1.8794,1.8213,1.7347,1.777,1.808,1.831,1.8444,1.9075,1.9873,2.0341,2.0537,2.0605,2.0605,1.9531,1.8383,1.8086,1.6924,1.586,1.5488,1.541,1.541,1.541,1.541,1.5557,1.6016,1.6445,1.7145,1.8422,1.9014,1.9609,2.0498,2.0605,0.0,2.0605,2.0605,0.0,2.1816,2.2051,2.2441,2.3062,2.2779,2.275,2.3081,2.2734,2.2471,2.2383,2.1953,2.1523,2.1094,2.0732,2.0605,2.0605,2.0605,2.0605,2.0605,2.0605,2.0605,2.0605,2.0605,2.0605,2.0605,2.0605,2.0605,2.0605,2.0605,2.0605,2.0605,0.0,0.0,0.0,0.0,0.0,0.0,1.7258,1.7265,1.7348,1.7656,1.7637,1.7354,1.6697,1.6129,1.5799,0.0,0.0,0.0,0.0,0.0,0.0,0.0,0.0,0.0,0.0,0.0,0.0,1.6573,0.0,0.0,0.0,0.0,0.0,0.0,0.0,0.0,1.8053,1.8103,0.0,0.0,0.0,0.0,0.0,0.0,0.0,0.0,0.0,1.9233,1.953,1.8946,1.8221,1.7451,1.6857,1.7043,1.756,1.7964,1.8672,1.9434,1.9853,2.0264,2.0605,2.0605,1.9307,1.8057,1.8018,1.6689,1.5459,1.542,1.541,1.541,1.541,1.541,1.5557,1.6016,1.6445,1.7145,1.8422,1.9014,1.9609,2.0498,0.0,0.0,2.0605,2.0605,2.0967,2.1816,2.2598,2.3013,2.3091,2.3062,2.3052,2.3091,2.2734,2.2324,2.1953,2.1514,2.1074,2.0664,2.0625,2.0605,2.0605,2.0605,2.0605,2.0605,2.0605,2.0605,0.0,2.0605,2.0605,2.0605,2.0605,2.0605,2.0605,2.0605,2.0605,2.0605,0.0,0.0,0.0,0.0,0.0,0.0,1.7696,1.767,1.7861,1.8779,1.8553,1.8192,1.7938,1.6966,1.6204,1.5829,0.0,0.0,0.0,0.0,0.0,0.0,0.0,0.0,0.0,0.0,1.671,1.65,1.65,0.0,0.0,0.0,0.0,0.0,0.0,0.0,0.0,0.0,0.0,0.0,0.0,0.0,0.0,0.0,0.0,0.0,0.0,0.0,1.9747,1.9449,1.8581,1.755,1.7246,1.6724,1.6387,1.7353,1.8232,1.9043,1.9727,2.0234,2.0605,2.0605,1.9277,1.8008,1.8008,1.666,1.541,1.541,1.541,1.541,1.541,1.541,1.5469,1.5644,1.582,1.6396,1.7695,1.8037,1.8643,2.001,2.0176,2.0273,0.0,0.0,2.1328,2.2197,2.2769,2.3091,2.3091,2.3091,2.3091,2.3091,2.2935,2.2769,2.2604,2.2217,2.1914,2.1738,2.1211,2.0967,2.0957,2.0723,2.0605,2.0605,2.0605,2.0605,0.0,2.0605,2.0605,2.0605,2.0605,2.0605,2.0605,2.0605,2.0605,2.0605,0.0,0.0,0.0,0.0,0.0,1.6784,1.7774,1.7883,1.8219,1.9258,1.8986,1.8702,1.8702,1.7488,1.6532,1.6099,1.5787,0.0,0.0,0.0,0.0,0.0,0.0,0.0,0.0,0.0,1.6588,1.6773,1.6773,1.7061,0.0,0.0,0.0,0.0,0.0,0.0,0.0,0.0,0.0,0.0,0.0,0.0,0.0,0.0,0.0,0.0,0.0,0.0,0.0,0.0,0.0,1.755,1.733,1.6415,1.5615,1.6711,1.7598,1.8428,1.915,1.9853,2.038,2.0253,1.9092,1.7978,1.7852,1.6572,1.541,1.541,1.541,1.541,1.541,1.541,1.541,1.541,1.5635,1.6172,1.7269,1.7598,1.8242,1.957,0.0,1.9893,2.037,2.1016,2.1728,2.2461,2.2857,2.3091,2.3091,2.3091,2.3091,2.3091,2.2974,2.2906,2.2906,2.2539,2.2266,2.2129,2.1483,2.1132,2.1025,2.0752,2.0605,2.0605,2.0605,2.0605,0.0,2.0605,2.0605,2.0605,2.0605,2.0605,2.0605,2.0605,2.0605,2.0605,0.0,0.0,0.0,0.0,0.0,0.0,1.7258,1.7805,1.8329,1.8678,1.8702,1.8702,1.8702,1.7488,1.6696,1.6681,1.5724,0.0,0.0,0.0,0.0,0.0,0.0,0.0,0.0,0.0,1.6798,1.7398,1.7398,1.7674,1.8191,1.8191,1.8469,1.8995,0.0,0.0,0.0,0.0,0.0,0.0,0.0,0.0,0.0,0.0,0.0,0.0,0.0,0.0,0.0,0.0,0.0,0.0,0.0,1.6007,0.0,0.0,1.6741,1.749,1.791,1.8955,1.9824,1.9404,1.8652,1.79,1.749,1.6367,1.541,1.541,1.541,1.541,1.541,1.541,1.541,1.541,1.6112,0.0,1.7314,1.8105,1.8754,0.0,1.9297,1.9453,1.9883,2.1113,2.206,2.248,2.2857,0.0,2.3091,2.3091,2.3091,2.3091,2.2691,2.2519,2.2519,2.21,2.168,2.121,2.12,2.0996,2.0615,2.0605,2.0605,2.0605,2.0605,2.0605,0.0,2.0605,2.0605,2.0605,2.0605,2.0605,2.0605,2.0605,2.0605,2.0605,0.0,0.0,0.0,0.0,0.0,0.0,1.6819,1.7045,1.7376,1.7939,1.8012,1.8012,1.8012,1.7234,1.6696,1.6696,1.6102,0.0,0.0,0.0,0.0,0.0,0.0,0.0,0.0,1.65,1.681,1.741,1.741,1.7852,1.8744,1.8744,1.902,1.956,1.956,1.9648,0.0,0.0,0.0,0.0,0.0,0.0,0.0,0.0,0.0,0.0,0.0,0.0,0.0,0.0,0.0,0.0,0.0,0.0,0.0,1.6325,1.6637,1.7031,1.7471,1.8086,1.8584,1.8447,1.7773,1.7077,1.6941,1.6143,1.541,1.541,1.541,1.541,1.541,1.541,1.5508,1.584,1.6124,1.6533,0.0,0.0,0.0,1.9199,2.0078,2.0781,0.0,0.0,2.249,2.2867,2.3023,2.3091,2.3091,2.3091,2.3091,2.3091,2.2964,2.2896,2.2896,2.2519,2.2246,2.21,2.1473,2.1122,2.1016,2.0742,2.0605,2.0605,2.0605,2.0605,2.0605,2.0605,2.0605,2.0605,2.0605,2.0605,2.0605,2.0605,2.0605,2.0605,0.0,0.0,0.0,0.0,0.0,0.0,1.6293,1.6547,1.6845,1.7264,1.7533,1.7713,1.7713,1.71,1.6696,1.6696,1.6479,0.0,0.0,0.0,0.0,0.0,0.0,0.0,1.65,1.65,1.6898,1.7689,1.7689,1.8254,1.9296,1.9296,1.9497,1.9798,1.9798,1.9798,0.0,0.0,0.0,0.0,0.0,0.0,1.9798,0.0,0.0,0.0,0.0,0.0,0.0,0.0,0.0,0.0,0.0,0.0,0.0,0.0,1.6325,1.6666,1.6862,1.7314,1.7734,1.7535,1.7096,1.6658,1.6523,1.5928,1.541,1.541,1.541,1.541,1.541,1.5547,1.5752,1.6046,1.6378,1.678,0.0,0.0,0.0,1.9209,2.0146,0.0,0.0,2.2021,2.2519,2.3052,2.3091,2.3091,2.3091,2.3091,2.3023,2.2867,2.3013,2.3091,2.3091,2.2682,2.2432,2.2266,2.1522,2.1103,2.0977,2.0693,2.0605,2.0605,2.0605,2.0605,0.0,2.0605,2.0605,2.0605,2.0605,2.0605,2.0605,2.0605,2.0605,2.0605,0.0,0.0,0.0,0.0,0.0,0.0,0.0,1.6308,1.6696,1.6696,1.7279,1.7713,1.7713,1.71,1.6711,1.6756,1.6841,0.0,0.0,0.0,0.0,0.0,0.0,0.0,1.65,1.65,1.7052,1.8204,1.8204,1.8756,1.9798,1.9798,1.9798,1.9798,1.9798,1.9798,1.9798,1.9798,1.9798,1.9798,1.9798,1.9798,0.0,0.0,0.0,0.0,0.0,0.0,0.0,0.0,0.0,0.0,0.0,0.0,0.0,0.0,0.0,0.0,0.0,1.6652,1.7148,1.6707,1.6609,1.6502,1.6144,1.5703,0.0,1.541,1.541,1.542,1.5449,1.5821,1.6114,1.6183,1.6877,1.7393,0.0,1.8154,0.0,0.0,1.9746,0.0,2.1112,2.1631,2.2217,2.2984,2.3052,2.3062,2.3091,2.3091,2.2916,2.2568,2.2867,2.3033,2.3003,2.2656,2.2256,2.1836,2.1396,2.0967,2.0605,2.0605,2.0605,0.0,2.0605,2.0605,2.0605,2.0605,2.0605,2.0605,2.0605,2.0605,2.0605,2.0605,2.0605,2.0605,0.0,0.0,0.0,0.0,0.0,0.0,0.0,0.0,0.0,0.0,1.7279,1.7713,1.7713,1.71,1.6905,0.0,0.0,0.0,0.0,0.0,0.0,0.0,0.0,0.0,1.65,1.65,1.7052,1.8204,1.8204,1.8756,1.9798,1.9798,1.9798,1.9798,1.9798,1.9798,1.9798,1.9798,1.9798,1.9798,1.9798,1.9798,0.0,0.0,0.0,0.0,1.9798,1.9798,0.0,0.0,0.0,0.0,0.0,0.0,0.0,0.0,1.6415,1.5633,1.5596,0.0,1.585,1.5712,1.5723,1.5693,0.0,0.0,0.0,0.0,0.0,0.0,1.588,1.6026,1.632,1.6995,1.7279,1.75,1.7822,1.8594,0.0,2.0214,2.0654,2.0966,2.1171,2.1631,2.21,2.2617,2.2656,2.2803,2.3081,2.3091,2.3052,2.2955,2.273,2.251,2.2187,2.209,2.1816,2.1346,2.0937,2.0703,2.0605,2.0605,2.0605,2.0605,2.0605,2.0605,2.0605,2.0605,2.0605,2.0605,2.0605,2.0605,2.0605,2.0605,2.0605,2.0605,0.0,0.0,0.0,0.0,0.0,0.0,0.0,0.0,0.0,0.0,1.7743,1.8042,1.7727,1.7637,1.7654,0.0,0.0,0.0,0.0,0.0,0.0,0.0,0.0,1.65,1.65,1.6773,1.7338,1.8204,1.8455,1.8995,1.9798,1.9798,1.9798,1.9798,1.9798,1.9798,1.9798,1.9798,1.9962,2.02,2.02,0.0,0.0,0.0,0.0,0.0,1.9798,1.9798,0.0,1.9798,1.9798,1.9747,0.0,0.0,0.0,0.0,1.7024,1.6415,1.6415,1.5911,1.5459,1.5664,1.5557,1.5469,1.5664,0.0,0.0,0.0,0.0,0.0,0.0,1.6427,1.6858,1.7337,1.7539,0.0,0.0,0.0,1.9531,2.0185,2.0654,2.1006,0.0,2.1445,2.1846,2.2461,2.251,2.2695,2.3071,2.3091,2.3003,2.2818,2.2627,2.2402,2.2178,2.1787,2.1465,2.119,2.0781,2.0605,2.0605,2.0605,2.0605,2.0605,2.0605,2.0605,2.0605,2.0605,2.0605,2.0605,2.0605,2.0605,2.0605,2.0605,2.0605,2.0605,0.0,0.0,0.0,0.0,0.0,0.0,0.0,0.0,0.0,0.0,0.0,0.0,0.0,0.0,0.0,0.0,0.0,0.0,0.0,0.0,0.0,0.0,1.65,1.6538,1.6647,1.7137,1.7689,1.8329,1.877,1.9309,1.9936,1.9936,1.9936,1.9924,1.9849,1.9798,1.9798,1.9798,2.0137,2.0691,2.0691,0.0,0.0,0.0,0.0,0.0,0.0,0.0,0.0,1.9798,1.9798,1.9695,1.9059,0.0,0.0,0.0,0.0,0.0,1.7468,1.6581,1.5772,1.6177,1.592,1.5703,1.6114,0.0,0.0,0.0,0.0,0.0,0.0,1.6907,0.0,0.0,0.0,0.0,1.8724,1.915,1.9541,1.9961,2.038,0.0,2.1094,2.1093,2.1484,2.2353,2.2353,2.2487,2.2974,2.3003,2.2808,2.2432,2.2412,2.2383,2.2324,2.1551,2.1161,2.1083,2.0752,2.0605,2.0605,2.0605,2.0605,2.0605,0.0,0.0,2.0605,2.0605,2.0605,2.0605,2.0605,2.0605,2.0605,2.0605,2.0605,2.0605,0.0,0.0,0.0,0.0,0.0,0.0,0.0,0.0,0.0,0.0,0.0,0.0,0.0,0.0,0.0,0.0,0.0,0.0,0.0,0.0,0.0,1.6552,1.65,1.6748,1.726,1.736,1.789,1.8882,1.8958,1.9547,2.0566,2.0566,2.0566,2.0541,2.0024,1.9798,1.9798,1.9798,2.0137,2.0691,2.0691,0.0,0.0,0.0,0.0,0.0,0.0,0.0,0.0,1.9798,1.9798,1.9773,1.9669,0.0,0.0,0.0,0.0,0.0,1.6838,1.6804,1.6952,1.7024,1.6748,1.6521,1.658,0.0,0.0,0.0,0.0,0.0,0.0,1.7328,1.75,0.0,0.0,1.8783,0.0,0.0,1.998,2.0449,0.0,2.0635,2.0703,2.0703,2.1035,2.1914,2.1641,2.1736,2.2568,2.2607,2.2412,2.1992,2.1982,2.1807,2.1395,2.1259,2.1045,2.0703,2.0635,2.0605,2.0605,2.0605,2.0605,2.0605,0.0,2.0605,2.0605,2.0605,2.0605,2.0605,2.0605,2.0605,2.0605,2.0605,2.0605,2.0605,0.0,0.0,0.0,0.0,0.0,0.0,0.0,0.0,0.0,0.0,0.0,0.0,0.0,0.0,0.0,0.0,0.0,0.0,0.0,0.0,1.8303,1.7824,1.7544,1.7417,1.7398,1.7965,1.8518,1.9008,1.9284,1.9861,2.0704,2.0993,2.0981,2.0679,2.0415,2.01,1.9823,2.0137,2.0616,2.1169,0.0,0.0,0.0,0.0,0.0,0.0,0.0,0.0,0.0,0.0,1.9798,1.9798,1.9798,0.0,0.0,0.0,0.0,0.0,1.8274,1.821,1.8127,1.8127,1.741,1.6765,1.7031,0.0,0.0,0.0,0.0,0.0,0.0,0.0,1.8203,1.8633,0.0,1.9121,1.9521,1.9775,1.999,0.0,0.0,2.0605,2.0605,2.0605,2.0869,2.1484,2.1307,2.1473,2.2139,2.2178,2.209,2.1894,2.165,2.1435,2.119,2.0996,2.0771,2.0605,2.0605,2.0605,2.0605,2.0605,2.0605,2.0605,0.0,2.0605,2.0605,2.0605,2.0605,2.0605,2.0605,2.0605,2.0605,2.0605,2.0605,2.0605,0.0,0.0,0.0,0.0,0.0,0.0,0.0,0.0,0.0,0.0,0.0,0.0,0.0,0.0,0.0,0.0,0.0,0.0,0.0,1.9132,1.8857,1.8739,1.8502,1.8189,1.7788,1.8569,1.9058,1.9183,1.9748,2.039,2.1081,2.1383,2.1358,2.1069,2.0666,2.0314,2.0037,2.0503,2.1018,2.1543,0.0,0.0,0.0,0.0,0.0,0.0,0.0,0.0,0.0,0.0,0.0,0.0,0.0,0.0,0.0,1.9631,1.9397,1.9044,1.9449,1.9282,1.9014,1.8948,1.7957,1.7116,0.0,0.0,0.0,0.0,0.0,0.0,0.0,1.8135,0.0,1.9219,1.9365,1.9473,1.957,1.9863,2.0068,2.0068,2.0361,2.0605,2.0605,2.0605,2.0752,2.1161,2.1103,2.1269,2.1709,2.1738,2.1689,2.1582,2.1357,2.1142,2.1074,2.0732,2.0605,2.0605,2.0605,2.0605,2.0605,2.0605,2.0605,2.0605,2.0605,2.0605,2.0605,2.0605,2.0605,2.0605,2.0605,2.0605,2.0605,2.0605,2.0605,2.0605,0.0,0.0,0.0,0.0,0.0,0.0,0.0,0.0,0.0,0.0,0.0,0.0,0.0,0.0,0.0,0.0,0.0,0.0,0.0,1.893,1.87,1.8269,1.8692,1.8908,1.8894,1.8958,1.9233,1.9748,2.0352,2.1182,2.2184,2.1707,2.1744,2.2121,2.0564,2.0137,2.0629,2.0679,2.1018,2.1543,2.2083,0.0,0.0,0.0,0.0,0.0,0.0,0.0,0.0,0.0,0.0,0.0,0.0,0.0,1.9721,1.9773,1.9747,1.9579,1.8965,1.9076,1.9312,1.9136,1.85,0.0,1.8412,1.849,0.0,1.8461,0.0,0.0,0.0,1.8295,1.8744,1.9219,1.9609,2.001,2.0458,0.0,2.0556,2.0556,2.0586,2.0605,2.0605,2.0605,2.0752,2.1161,2.085,2.081,2.122,2.1239,2.1094,2.0713,2.1035,2.1035,2.0654,2.0615,2.0605,2.0605,2.0605,2.0605,2.0605,2.0605,2.0605,2.0605,2.0605,2.0605,2.0605,2.0605,2.0605,2.0605,2.0605,2.0605,2.0605,2.0605,2.0605,2.0605,0.0,0.0,0.0,0.0,0.0,0.0,0.0,0.0,0.0,0.0,0.0,0.0,0.0,0.0,0.0,0.0,0.0,0.0,0.0,1.9786,1.9766,1.9217,1.9791,1.9919,1.9497,1.951,1.961,1.9798,2.0727,2.1568,2.2309,2.2418,2.2447,2.2255,2.1644,2.1292,2.1232,2.1543,2.1807,2.2046,2.2569,2.292,0.0,0.0,0.0,0.0,0.0,0.0,0.0,0.0,1.9798,1.9798,1.9798,1.9798,1.9798,1.9798,1.9798,1.9747,1.9449,1.925,1.9216,1.9674,1.8892,0.0,0.0,1.8999,1.8598,1.8598,1.8812,0.0,0.0,0.0,1.918,1.9609,2.0039,2.0419,2.0586,2.0605,2.0605,2.0605,2.0605,2.0605,2.0605,2.0605,2.0674,2.081,2.0703,2.0674,2.081,2.082,2.0781,2.0605,2.0732,2.0732,2.0605,2.0605,2.0605,2.0605,2.0605,2.0605,2.0605,2.0605,2.0605,2.0605,2.0605,2.0605,2.0605,2.0605,2.0605,2.0605,2.0605,2.0605,2.0605,2.0605,2.0605,2.0605,0.0,0.0,0.0,0.0,0.0,0.0,0.0,0.0,0.0,0.0,0.0,0.0,0.0,0.0,0.0,0.0,0.0,0.0,2.0322,2.0767,2.0821,2.0424,2.0656,2.0594,2.0144,1.9901,1.9886,2.0075,2.1192,2.2033,2.2543,2.2744,2.2732,2.2531,2.2209,2.1945,2.1782,2.2146,2.2309,2.2359,2.2882,2.3108,0.0,0.0,0.0,0.0,0.0,0.0,0.0,0.0,1.9798,1.9798,1.9798,1.9798,1.9798,1.9798,1.9924,2.0022,1.9735,1.969,1.9784,2.0017,0.0,0.0,1.9885,1.9445,1.8841,1.8978,1.9062,1.9121,1.9268,0.0,0.0,0.0,2.0283,2.0605,2.0605,2.0605,2.0605,2.0605,2.0605,2.0605,2.0605,2.0605,2.0605,2.0605,2.0605,2.0605,2.0605,2.0605,2.0605,2.0605,2.0605,2.0605,2.0605,2.0605,2.0605,2.0605,2.0605,2.0605,2.0605,2.0605,2.0605,2.0605,2.0605,2.0605,2.0605,2.0605,2.0605,2.0605,2.0605,2.0605,2.0605,2.0605,2.0605,2.0605,0.0,0.0,0.0,0.0,0.0,0.0,0.0,0.0,0.0,0.0,0.0,0.0,0.0,0.0,0.0,0.0,0.0,0.0,2.1665,2.1695,2.17,2.1686,2.1125,2.0819,2.0807,2.0156,2.0087,2.0691,2.1757,2.2556,2.3083,2.2543,2.2581,2.3058,2.1995,2.1807,2.2322,2.2322,2.2322,2.2343,2.2882,2.3108,2.3045,0.0,0.0,0.0,0.0,0.0,0.0,0.0,1.9798,1.9798,1.9798,1.9798,1.9798,1.9798,2.0239,2.0517,1.965,2.0421,2.121,2.0106,0.0,0.0,2.0452,1.9945,1.9441,1.9824,1.9238,1.8744,1.9209,1.9297,0.0,1.9844,2.0283,2.0605,2.0605,2.0605,2.0605,2.0605,2.0605,2.0605,2.0605,2.0605,2.0605,2.0605,2.0605,2.0605,2.0605,2.0605,2.0605,2.0605,2.0605,2.0605,2.0605,2.0605,2.0605,2.0605,2.0605,2.0605,2.0605,2.0605,2.0605,2.0605,2.0605,2.0605,2.0605,2.0605,2.0605,2.0605,2.0605,2.0605,2.0605,2.0605,2.0605,2.0605,0.0,0.0,0.0,0.0,0.0,0.0,0.0,0.0,0.0,0.0,0.0,0.0,0.0,0.0,0.0,0.0,0.0,0.0,2.168,2.2149,2.2194,2.1722,2.1975,2.1713,2.082,2.0553,2.0515,2.0691,2.1018,2.1631,2.2518,2.2355,2.2581,2.3095,2.2757,2.2706,2.2857,2.2857,2.2857,2.2882,2.3045,2.3108,2.3083,0.0,0.0,0.0,0.0,0.0,0.0,0.0,0.0,0.0,1.9798,1.9798,1.9798,1.9798,2.0239,2.0638,2.037,2.028,2.0287,2.057,0.0,0.0,0.0,2.0141,0.0,0.0,1.9892,1.9228,1.9648,1.9727,0.0,1.9893,2.0283,2.0605,2.0605,2.0605,2.0605,2.0605,2.0605,2.0605,2.0605,2.0605,2.0605,2.0605,2.0605,2.0605,2.0605,2.0605,2.0605,2.0605,2.0605,2.0605,2.0605,2.0605,2.0605,2.0605,2.0605,2.0605,2.0605,2.0605,2.0605,2.0605,2.0605,2.0605,2.0605,2.0605,2.0605,2.0605,2.0605,2.0605,2.0605,2.0605,2.0605,2.0605,0.0,0.0,0.0,0.0,0.0,0.0,0.0,0.0,0.0,0.0,1.9929,2.0094,0.0,0.0,0.0,0.0,0.0,0.0,2.2443,2.2817,2.2878,2.2483,2.2366,2.17,2.0421,2.0617,2.0602,2.0352,2.0805,2.1443,2.2309,2.2309,2.2581,2.3108,2.3108,2.3108,2.3108,2.3108,2.3108,2.3108,2.3108,2.3108,2.3108,0.0,0.0,0.0,0.0,0.0,0.0,0.0,0.0,0.0,1.9798,1.9962,2.0085,1.9744,2.0204,2.0665,2.0027,1.9931,2.0006,1.9848,1.9154,1.8846,2.0059,0.0,0.0,0.0,2.0188,1.9668,2.0098,2.0029,0.0,2.0146,2.0429,2.0605,2.0605,2.0605,2.0605,2.0605,2.0605,2.0605,2.0605,2.0605,2.0605,2.0605,2.0605,2.0605,2.0605,2.0605,2.0605,2.0605,2.0605,2.0605,2.0605,2.0605,2.0605,2.0605,2.0605,2.0605,2.0605,2.0605,2.0605,2.0605,2.0605,2.0605,2.0605,2.0605,2.0605,2.0605,2.0605,2.0605,2.0605,2.0605,2.0605,2.0605,0.0,0.0,0.0,0.0,0.0,0.0,0.0,0.0,0.0,0.0,2.0228,2.0628,0.0,0.0,0.0,0.0,0.0,0.0,0.0,2.3551,2.3508,2.3508,2.2294,2.111,1.9991,2.0446,2.0396,1.9798,2.0828,2.1644,2.2234,2.2234,2.2531,2.3108,2.3108,2.3108,2.3108,2.3108,2.3108,2.3108,2.3108,2.3108,2.3108,2.3108,0.0,0.0,0.0,0.0,0.0,0.0,0.0,0.0,1.9798,2.02,2.0544,1.9744,2.022,2.0666,1.9134,1.965,2.0236,1.862,1.8785,1.9433,1.9716,2.0169,2.0546,2.0653,0.0,2.0098,2.0537,2.0244,2.0098,2.0537,2.0605,2.0605,2.0605,2.0605,2.0605,2.0605,2.0605,2.0605,2.0605,2.0605,2.0605,2.0605,2.0605,2.0605,2.0605,2.0605,2.0605,2.0605,2.0605,2.0605,2.0605,2.0605,2.0605,2.0605,2.0605,2.0605,2.0605,2.0605,2.0605,2.0605,2.0605,2.0605,2.0605,2.0605,2.0605,2.0605,2.0605,2.0605,2.0605,2.0605,2.0605,2.0605,0.0,0.0,0.0,0.0,0.0,0.0,0.0,0.0,0.0,0.0,0.0,0.0,0.0,0.0,0.0,0.0,0.0,0.0,0.0,2.3143,2.2897,2.2897,2.1667,2.1088,2.1304,2.0446,1.9952,1.9798,2.0049,2.0677,2.1669,2.1669,2.2184,2.3108,2.3108,2.3108,2.3108,2.3108,2.3108,2.3108,2.3108,2.3108,2.3108,2.3108,2.2757,0.0,0.0,0.0,0.0,0.0,0.0,0.0,1.9798,2.02,2.0665,2.049,2.0702,2.0919,2.0544,2.0523,0.0,2.0139,1.9895,1.9616,1.9014,1.9475,2.0228,2.092,2.0729,2.0488,2.0586,2.0527,2.0498,2.0586,2.0605,2.0605,2.0605,2.0605,2.0605,2.0605,2.0605,2.0605,2.0605,2.0605,2.0605,2.0605,2.0605,2.0605,2.0605,2.0605,2.0605,2.0605,2.0605,2.0605,2.0605,2.0605,2.0605,2.0605,2.0605,2.0605,2.0605,2.0605,2.0605,2.0605,2.0605,2.0605,2.0605,2.0605,2.0605,2.0605,2.0605,2.0605,2.0605,2.0605,2.0605,2.0605,0.0,0.0,0.0,0.0,0.0,0.0,0.0,0.0,0.0,0.0,0.0,0.0,0.0,0.0,0.0,0.0,0.0,0.0,0.0,0.0,2.286,2.2253,2.217,2.1724,2.0805,2.0731,2.0421,1.9798,2.0075,2.0679,2.1493,2.1757,2.2334,2.3108,2.3108,2.3108,2.3108,2.3108,2.3108,2.3108,2.3108,2.3108,2.3108,2.3108,2.2932,2.2681,2.2681,0.0,0.0,0.0,0.0,0.0,0.0,0.0,2.1387,2.0969,2.1126,2.1327,2.0916,2.0705,0.0,2.059,0.0,2.0311,1.9406,1.9883,2.0518,2.0555,2.0587,2.0605,2.0605,2.0605,2.0605,2.0605,2.0605,2.0605,2.0605,2.0605,2.0605,2.0605,2.0605,2.0605,2.0605,2.0605,2.0605,2.0605,2.0605,2.0605,2.0605,2.0605,2.0605,2.0605,2.0605,2.0605,2.0605,2.0605,2.0605,2.0605,2.0605,2.0605,2.0605,2.0605,2.0605,2.0605,2.0605,2.0605,2.0605,2.0605,2.0605,2.0605,2.0605,2.0605,2.0605,2.0605,2.0605,2.0605,0.0,0.0,0.0,0.0,0.0,0.0,0.0,0.0,0.0,0.0,0.0,0.0,0.0,0.0,0.0,0.0,0.0,0.0,0.0,0.0,0.0,2.1744,2.25,2.2049,2.0156,2.0939,2.0894,1.9949,2.0553,2.1119,2.1644,2.2096,2.2581,2.3108,2.3108,2.3108,2.3108,2.3108,2.3108,2.3108,2.3108,2.3108,2.3108,2.3108,2.3108,2.3108,2.3108,2.2757,2.2309,2.2309,0.0,0.0,0.0,0.0,2.2164,2.1438,2.1553,2.1753,2.1005,2.0814,2.0814,2.0814,2.0958,0.0,2.0086,2.0419,2.0675,2.0043,2.0264,2.0605,2.0605,2.0605,2.0605,2.0605,2.0605,2.0605,2.0605,2.0605,2.0605,2.0605,2.0605,2.0605,2.0605,2.0605,2.0605,2.0605,2.0605,2.0605,2.0605,2.0605,2.0605,2.0605,2.0605,2.0605,2.0605,2.0605,2.0605,2.0605,2.0605,2.0605,2.0605,2.0605,2.0605,2.0605,2.0605,2.0605,2.0605,2.0605,2.0605,2.0605,2.0605,2.0605,2.0605,2.0605,2.0605,2.0605,0.0,0.0,0.0,0.0,0.0,0.0,0.0,0.0,0.0,0.0,2.1231,0.0,0.0,0.0,0.0,0.0,0.0,0.0,0.0,0.0,0.0,2.1697,2.0805,2.0657,2.1435,2.0546,2.0244,2.0578,2.1131,2.1656,2.2196,2.2284,2.2581,2.3108,2.3108,2.3108,2.3108,2.3108,2.3108,2.3108,2.3108,2.3108,2.3108,2.3108,2.3108,2.3108,2.3108,2.2757,2.2309,2.2309,2.1945,0.0,0.0,0.0,2.228,2.2164,2.2031,2.1877,2.1753,0.0,2.1721,0.0,2.119,2.0532,0.0,0.0,1.961,0.0,2.0264,2.0605,2.0605,2.0605,2.0605,2.0605,2.0605,2.0605,2.0605,2.0605,2.0605,2.0605,2.0605,2.0605,2.0605,2.0605,2.0605,2.0605,2.0605,2.0605,2.0605,2.0605,2.0605,2.0605,2.0605,2.0605,2.0605,2.0605,2.0605,2.0605,2.0605,2.0605,2.0605,2.0605,2.0605,2.0605,2.0605,2.0605,2.0605,2.0605,2.0605,2.0605,2.0605,2.0605,2.0605,2.0605,2.0605,2.0605,0.0,0.0,0.0,0.0,0.0,0.0,0.0,0.0,0.0,0.0,0.0,2.2373,0.0,0.0,0.0,0.0,0.0,0.0,0.0,0.0,0.0,2.1734,2.152,2.1172,2.0657,2.0459,2.031,2.0214,2.1054,2.1606,2.187,2.2811,2.3389,2.3602,2.3246,2.3283,2.3572,2.3246,2.3108,2.3108,2.3108,2.3108,2.3108,2.3108,2.3108,2.3108,2.3108,2.2945,2.2744,2.2744,2.2581,2.241,2.241,0.0,0.0,0.0,2.2667,2.2567,2.2567,2.2567,2.2567,0.0,2.2111,2.1474,2.0796,2.0946,2.1114,2.081,2.1059,2.1221,2.0712,2.0605,2.0605,2.0605,2.0605,2.0605,2.0605,2.0605,2.0605,2.0605,2.0605,2.0605,2.0605,2.0605,2.0605,2.0605,2.0605,2.0605,2.0605,2.0605,2.0605,2.0605,2.0605,2.0605,2.0605,2.0605,2.0605,2.0605,2.0605,2.0605,2.0605,2.0605,2.0605,2.0605,2.0605,2.0605,2.0605,2.0605,2.0605,2.0605,2.0605,2.0605,2.0605,2.0605,2.0605,2.0605,0.0,0.0,0.0,0.0,0.0,0.0,0.0,0.0,0.0,0.0,0.0,0.0,0.0,0.0,0.0,0.0,0.0,0.0,0.0,0.0,0.0,2.1496,2.195,2.1547,2.0105,2.0371,2.0373,2.0024,2.1004,2.1556,2.1732,2.3276,2.4067,2.4192,2.3722,2.3697,2.3966,2.3509,2.3321,2.3308,2.3158,2.3108,2.3108,2.3108,2.3108,2.3108,2.3108,2.3108,2.3108,2.3108,2.3108,2.3108,2.3108,2.3108,0.0,0.0,0.0,2.3108,0.0,0.0,2.3108,2.3108,2.2707,2.2151,0.0,0.0,2.2311,0.0,2.1723,2.1773,2.1078,2.075,2.0605,2.0605,2.0605,2.0605,2.0605,2.0605,2.0605,2.0605,2.0605,2.0605,2.0605,2.0605,2.0605,2.0605,2.0605,2.0605,2.0605,2.0605,2.0605,2.0605,2.0605,2.0605,2.0605,2.0605,2.0605,2.0605,2.0605,2.0605,2.0605,2.0605,2.0605,2.0605,2.0605,2.0605,2.0605,2.0605,2.0605,2.0605,2.0605,2.0605,2.0605,2.0605,2.0605,2.0605,0.0,0.0,0.0,0.0,0.0,0.0,0.0,0.0,0.0,0.0,0.0,0.0,2.355,2.358,2.3169,2.2076,2.2978,2.3091,2.1885,2.2369,2.2151,2.0894,2.087,0.0,2.0746,2.0156,2.0127,2.0641,2.1232,2.1757,2.2297,2.3452,2.428,2.475,2.4713,2.4456,2.4004,2.3966,2.3954,2.3904,2.3333,2.3108,2.3108,2.3108,2.3108,2.3108,2.3108,2.3108,2.3108,2.3108,2.3108,2.3108,2.3108,2.3108,2.3108,0.0,0.0,0.0,0.0,2.3108,0.0,2.3108,2.25,2.178,0.0,0.0,2.1937,2.1479,2.1723,2.1989,2.1924,2.1193,2.0605,2.0605,2.0605,2.0605,2.0605,2.0605,2.0605,2.0605,2.0605,2.0605,2.0605,2.0605,2.0605,2.0605,2.0605,2.0605,2.0605,2.0605,2.0605,2.0605,2.0605,2.0605,2.0605,2.0605,2.0605,2.0605,2.0605,2.0605,2.0605,2.0605,2.0605,2.0605,2.0605,2.0605,2.0605,2.0605,2.0605,2.0605,2.0605,2.0605,2.0605,2.0605,2.0605,2.0605,0.0,0.0,0.0,0.0,0.0,0.0,0.0,0.0,0.0,0.0,0.0,0.0,0.0,2.3253,2.2855,2.2444,2.2789,2.2643,2.1767,2.2323,2.2314,2.1414,2.1004,2.0942,2.1324,2.031,2.0263,2.1219,2.1421,2.1769,2.2305,2.3464,2.3904,2.3735,2.4462,2.4675,2.4506,2.4155,2.3791,2.3421,2.3597,2.369,2.3728,2.4048,2.4186,2.4186,0.0,0.0,0.0,0.0,0.0,0.0,0.0,0.0,0.0,0.0,0.0,0.0,0.0,0.0,0.0,2.3108,2.2701,2.2253,2.2062,2.2759,2.3352,2.3222,2.3585,2.3927,2.3927,2.2086,2.0605,2.0605,2.0605,2.0605,2.0605,2.0605,2.0605,2.0605,2.0605,2.0605,2.0605,2.0605,2.0605,2.0605,2.0605,2.0605,2.0605,2.0605,2.0605,2.0605,2.0605,2.0605,2.0605,2.0605,2.0605,2.0605,2.0605,2.0605,2.0605,2.0605,2.0605,2.0605,2.0605,2.0605,2.0605,2.0605,2.0605,2.0605,2.0605,2.0605,2.0605,2.0605,2.0605,2.0605,0.0,0.0,0.0,0.0,0.0,0.0,0.0,0.0,0.0,2.2587,0.0,0.0,0.0,0.0,2.292,2.2717,2.213,2.1695,2.1424,2.2007,2.1983,2.111,2.1067,2.1144,2.1277,2.0512,2.0464,2.1232,2.1393,2.1681,2.2071,2.3389,2.3791,2.3434,2.4374,2.4687,2.4519,2.4155,2.3879,2.3684,2.3916,2.4104,2.4318,2.465,2.4788,0.0,0.0,0.0,0.0,0.0,0.0,0.0,0.0,0.0,0.0,0.0,0.0,0.0,2.3108,0.0,0.0,0.0,2.2899,2.2642,2.2345,2.3374,2.4321,2.4038,2.4517,2.5004,2.5004,2.3121,2.1451,2.1116,2.1078,2.0972,2.0644,2.0605,2.0605,2.0605,2.0605,2.0605,2.0605,2.0605,2.0605,2.0605,2.0605,0.0,2.0605,2.0605,2.0605,2.0605,2.0605,2.0605,2.0605,2.0605,2.0605,2.0605,2.0605,2.0605,2.0605,2.0605,2.0605,2.0605,2.0605,2.0605,2.0605,2.0605,2.0605,2.0605,2.0605,2.0605,2.0605,2.0605,2.0605,2.0605,0.0,0.0,0.0,0.0,0.0,0.0,0.0,0.0,2.1197,2.2507,0.0,0.0,0.0,0.0,0.0,2.2694,2.1027,2.025,2.0744,2.1342,2.1135,1.9875,2.094,2.1329,2.077,2.0743,2.0729,2.0767,2.1282,2.1518,2.1568,2.3213,2.3966,2.4004,2.4531,2.4469,2.3966,2.3991,2.4305,2.4725,2.423,2.4356,2.4813,0.0,0.0,0.0,2.4838,2.4838,0.0,2.4813,0.0,0.0,0.0,0.0,0.0,0.0,0.0,0.0,0.0,0.0,0.0,0.0,0.0,0.0,2.2094,0.0,2.4524,2.3688,2.4324,2.5028,2.5028,2.4217,2.3257,2.2253,2.2027,2.1669,2.0789,2.0605,2.0605,2.0605,2.0605,2.0605,2.0605,2.0605,2.0605,2.0605,2.0605,2.0605,2.0605,2.0605,2.0605,2.0605,2.0605,2.0605,2.0605,2.0605,2.0605,2.0605,2.0605,2.0605,2.0605,2.0605,2.0605,2.0605,2.0605,2.0605,2.0605,2.0605,2.0605,2.0605,2.0605,2.0605,2.0605,2.0605,2.0605,2.0605,0.0,0.0,0.0,0.0,0.0,2.0422,2.1305,2.142,2.1571,0.0,0.0,0.0,2.2603,2.2035,2.15,2.1345,2.0871,2.044,2.0093,2.0683,2.0881,2.0547,2.0784,2.1258,2.1925,2.149,2.1656,2.2447,2.2209,2.2284,2.2656,2.3133,2.3346,2.3346,2.3496,2.3484,2.3371,2.3816,2.4092,2.4243,2.4494,2.4908,0.0,0.0,0.0,0.0,0.0,2.6034,2.5971,0.0,2.5385,2.5285,0.0,0.0,0.0,0.0,0.0,0.0,2.3108,0.0,0.0,0.0,0.0,0.0,0.0,0.0,2.4154,2.3921,2.4698,2.5441,2.5441,2.5556,2.5358,2.4337,2.2962,2.1914,2.1669,2.1039,2.0605,2.0605,2.0605,2.0605,2.0605,2.0605,2.0605,0.0,2.0605,2.0605,2.0605,2.0605,2.0605,2.0605,2.0605,2.0605,2.0605,2.0605,2.0605,2.0605,2.0605,2.0605,2.0605,2.0605,2.0605,2.0605,2.0605,2.0605,2.0605,2.0605,2.0605,2.0605,2.0605,2.0605,2.0605,2.0605,2.0605,2.0605,0.0,0.0,0.0,0.0,0.0,2.0407,2.0834,2.0922,2.1005,0.0,0.0,0.0,2.2527,2.1527,2.0874,2.1114,2.0665,2.022,1.9824,2.0182,2.0487,2.0733,2.0943,2.1447,2.2343,2.2017,2.2146,2.2757,2.2443,2.2443,2.2769,2.2995,2.3108,2.3108,2.3108,2.3108,2.3133,2.3471,2.3916,0.0,2.4662,0.0,0.0,2.6361,2.6499,0.0,0.0,0.0,2.6449,2.6097,2.5799,0.0,0.0,0.0,0.0,0.0,0.0,0.0,0.0,0.0,0.0,0.0,0.0,0.0,2.3471,2.3753,2.4004,2.4004,2.4682,2.5272,2.5272,2.5548,2.5669,2.5308,2.393,2.2842,2.2632,2.1773,2.1183,2.1183,2.0828,2.0605,2.0605,2.0605,2.0605,2.0605,2.0605,2.0605,2.0605,2.0605,2.0605,2.0605,2.0605,2.0605,2.0605,2.0605,2.0605,2.0605,2.0605,2.0605,2.0605,2.0605,2.0605,2.0605,2.0605,2.0605,2.0605,2.0605,2.0605,2.0605,2.0605,2.0605,2.0605,2.0605,2.0605,2.0605,0.0,0.0,2.0258,1.9733,2.022,2.0551,2.0061,1.9939,2.0158,0.0,2.0901,2.1274,2.2367,2.1459,2.1008,2.1538,2.0603,1.9987,1.9987,1.9924,2.0125,2.0666,2.1219,2.1719,2.2209,2.2334,2.2397,2.2397,2.2397,2.2397,2.241,2.2882,2.3108,2.3108,2.3108,0.0,2.3108,2.3108,2.376,2.4788,2.4788,2.5473,0.0,0.0,2.6499,2.6499,2.6499,2.6499,2.6499,2.6499,2.6147,0.0,0.0,0.0,0.0,0.0,2.4838,0.0,0.0,0.0,0.0,0.0,0.0,0.0,2.4017,2.4004,2.3979,2.3916,2.4343,2.47,2.47,2.475,2.4938,2.5435,2.4844,2.4189,2.375,2.2813,2.214,2.2027,2.126,2.0712,2.0605,2.0605,2.0605,2.0605,2.0605,2.0605,2.0605,2.0605,2.0605,2.0605,2.0605,2.0605,2.0605,2.0605,2.0605,2.0605,2.0605,2.0605,2.0605,2.0605,2.0605,2.0605,2.0605,2.0605,2.0605,2.0605,2.0605,2.0605,2.0605,2.0605,2.0605,2.0605,2.0605,2.0605,0.0,1.8196,1.8801,1.9145,1.9749,2.0385,2.1128,2.0878,2.0823,2.1365,2.1444,2.1511,2.1708,2.1483,2.1385,2.1511,2.13,2.1154,2.1154,2.0767,2.0578,2.0679,2.1219,2.1543,2.1644,2.2493,2.2945,2.2945,2.2945,2.2945,2.2945,2.3058,2.3108,2.3108,2.3108,2.3108,2.3108,0.0,0.0,2.4788,2.4788,2.5473,2.6499,2.6499,2.6499,2.6499,2.6499,2.6499,2.6499,2.6499,2.6411,2.6323,0.0,0.0,0.0,2.5435,0.0,0.0,0.0,0.0,0.0,0.0,0.0,0.0,2.4104,2.4004,2.3866,2.3371,2.3766,2.4167,2.4167,2.4519,2.4825,2.4926,2.5145,2.5166,2.4779,2.3854,2.2925,2.2103,2.1849,2.1451,2.0673,2.0605,2.0605,2.0605,2.0605,2.0605,2.0605,2.0605,2.0605,2.0605,2.0605,2.0605,2.0605,2.0605,2.0605,2.0605,2.0605,2.0605,2.0605,2.0605,2.0605,2.0605,2.0605,2.0605,2.0605,2.0605,2.0605,2.0605,2.0605,2.0605,2.0605,2.0605,2.0605,2.0605,1.7312,1.7995,1.8692,1.9001,1.9519,2.0167,2.1003,2.0926,2.0952,2.1492,2.1774,2.1931,2.1898,2.1895,2.1895,2.1895,2.1644,2.1493,2.1493,2.1257,2.1232,2.1509,2.1757,2.2033,2.2297,2.2819,2.3108,2.3108,2.3108,2.3108,2.3108,2.3108,2.3108,2.3108,2.3108,2.3108,2.312,0.0,2.4023,2.4788,2.4788,0.0,2.6499,2.6499,2.6499,2.6499,2.6499,2.6499,2.6499,2.6499,2.6499,0.0,2.6499,2.6298,2.6059,0.0,2.5871,2.5636,0.0,0.0,0.0,2.5636,0.0,0.0,0.0,2.4381,2.3916,2.3597,2.3534,2.3534,2.3534,2.376,2.4048,2.4368,2.4632,2.4833,2.49,2.4306,2.367,2.3156,2.2429,2.1782,2.1282,2.0862,2.0479,2.0263,2.0244,2.0332,2.0595,2.0605,2.0605,2.0605,2.0605,2.0605,2.0605,2.0605,2.0605,2.0605,2.0605,2.0605,2.0605,2.0605,2.0605,2.0605,2.0605,2.0605,2.0605,2.0605,2.0605,2.0605,2.0605,2.0605,2.0605,2.0605,2.0605,2.0605,1.7146,1.8057,1.8865,1.8865,1.9366,1.9999,2.0603,2.0691,2.093,2.1556,2.2033,2.2347,2.2431,2.2443,2.2443,2.2443,2.2071,2.1807,2.1807,2.1707,2.1845,2.2297,2.2309,2.2493,2.2945,2.3045,2.3108,2.3108,2.3108,2.3108,2.3108,2.3108,2.3108,2.3108,2.3221,2.3271,2.3308,0.0,0.0,2.4938,0.0,2.5573,2.6499,2.6499,2.6499,2.6499,2.6499,2.6499,2.6499,2.6499,2.6499,2.6499,2.6499,2.6499,0.0,0.0,0.0,0.0,0.0,0.0,0.0,0.0,0.0,2.5737,0.0,0.0,0.0,2.418,0.0,0.0,0.0,0.0,0.0,2.3615,0.0,0.0,0.0,2.4291,0.0,2.4031,2.2926,2.2081,2.192,2.1261,2.0616,2.0091,2.0125,2.0248,2.0458,2.0556,2.0605,2.0605,2.0605,2.0605,2.0605,2.0605,2.0605,2.0605,2.0605,2.0605,2.0605,2.0605,2.0605,2.0605,2.0605,2.0605,2.0605,2.0605,2.0605,2.0605,2.0605,2.0605,2.0605,2.0605,2.0605,2.0605,1.6595,1.7516,1.8298,1.8298,1.9132,1.9999,2.0603,2.0691,2.1069,2.2083,2.2272,2.2468,2.2957,2.3007,2.3007,2.3007,2.2957,2.292,2.292,2.2456,2.2246,2.2309,2.2309,2.2347,2.2397,2.2857,2.3108,2.3108,2.3108,2.3108,2.3108,2.3108,2.3108,2.3133,2.3665,2.3904,0.0,0.0,2.5034,0.0,2.5511,2.5921,0.0,2.6499,2.6499,2.6499,2.6499,2.6499,2.6499,0.0,2.6499,2.6499,0.0,2.6499,2.6499,2.6499,0.0,0.0,0.0,0.0,0.0,0.0,2.6449,0.0,0.0,0.0,2.5285,2.482,0.0,0.0,0.0,0.0,0.0,0.0,0.0,0.0,2.3358,2.3723,2.3853,2.3459,2.3246,2.2808,2.1978,2.1806,2.1422,2.0569,2.0834,2.0724,2.0018,2.0352,2.0605,2.0605,2.0605,2.0605,2.0605,2.0605,2.0605,2.0605,2.0605,2.0605,2.0605,2.0605,2.0605,2.0605,2.0605,2.0605,2.0605,2.0605,2.0605,2.0605,2.0605,2.0605,2.0605,2.0605,2.0605,2.0605,1.7024,1.7664,1.8304,1.8607,1.9296,1.9999,2.0603,2.1232,2.1782,2.2246,2.2556,2.2844,2.3083,2.3108,2.3108,0.0,0.0,2.3108,0.0,2.2895,2.2757,2.2757,2.2757,2.2757,2.2757,2.2982,2.3108,2.3108,2.3108,2.3108,2.3108,2.3108,2.3108,2.3133,2.374,0.0,2.4054,0.0,2.5398,0.0,0.0,2.6273,0.0,2.6499,2.6499,2.6499,2.6499,2.6499,2.6499,0.0,2.6499,0.0,0.0,0.0,0.0,2.6499,0.0,0.0,0.0,0.0,0.0,0.0,0.0,0.0,2.6185,0.0,2.5536,0.0,0.0,0.0,0.0,0.0,0.0,0.0,2.369,0.0,0.0,0.0,2.3536,0.0,0.0,0.0,2.196,2.1895,2.1418,2.0278,2.0337,2.0298,1.992,2.0088,2.0303,2.0595,2.0605,2.0605,2.0605,2.0605,2.0605,2.0605,2.0605,2.0605,2.0605,2.0605,2.0605,2.0605,2.0605,2.0605,2.0605,2.0605,2.0605,2.0605,2.0605,2.0605,2.0605,2.0605,2.0605,2.0605,1.7802,0.0,0.0,1.8933,1.9434,2.0049,2.0805,2.1568,2.2196,2.2468,2.2857,2.3108,2.3108,2.3108,0.0,0.0,2.3108,2.3108,0.0,0.0,2.3108,2.3108,2.3108,2.3108,2.3108,2.3108,2.3108,2.3108,2.3108,2.3108,2.3108,2.3108,2.3108,2.3133,2.3891,2.4217,2.4293,0.0,2.5871,2.5875,2.6323,2.6499,2.6499,2.6499,2.6499,2.6499,2.6499,2.6499,2.6499,2.6499,2.6499,0.0,2.6499,0.0,2.6499,0.0,0.0,0.0,2.6499,0.0,0.0,0.0,0.0,0.0,0.0,0.0,0.0,0.0,0.0,0.0,0.0,0.0,0.0,0.0,0.0,2.374,0.0,2.3007,0.0,0.0,0.0,0.0,0.0,2.223,2.1737,2.0521,2.0563,2.0456,2.0122,2.0207,2.0373,2.0586,2.0605,2.0605,2.0605,2.0605,2.0605,2.0605,2.0605,2.0605,2.0605,2.0605,2.0605,2.0605,2.0605,2.0605,2.0605,2.0605,2.0605,2.0605,2.0605,2.0605,2.0605,2.0605,2.0605,2.0605,1.8845,1.8958,0.0,1.9008,1.9434,2.0175,2.1292,2.1493,2.1895,2.2945,2.3095,2.3108,0.0,0.0,0.0,0.0,0.0,2.3108,2.3108,0.0,2.3108,2.3108,0.0,2.3108,0.0,2.3108,2.3108,2.3108,2.3108,2.3108,2.3108,2.3108,2.3108,2.3158,2.4261,2.4763,2.4838,2.5996,2.6461,2.6461,2.6487,2.6499,2.6499,0.0,2.6499,2.6499,2.6499,0.0,0.0,2.6499,2.6499,0.0,0.0,0.0,0.0,0.0,0.0,0.0,0.0,0.0,0.0,2.6499,0.0,0.0,0.0,0.0,2.6461,0.0,0.0,0.0,0.0,0.0,0.0,0.0,0.0,0.0,0.0,0.0,0.0,0.0,0.0,0.0,0.0,2.3078,2.2732,2.1901,2.2194,2.1866,2.0628,2.0969,2.0982,2.0624,2.0605,2.0605,2.0605,2.0605,2.0605,2.0605,2.0605,2.0605,2.0605,2.0605,2.0605,2.0605,2.0605,2.0605,2.0605,2.0605,2.0605,2.0605,2.0605,2.0605,2.0605,2.0605,2.0605,2.0605,0.0,0.0,0.0,0.0,0.0,2.0062,2.0855,2.1282,2.1757,0.0,2.2882,0.0,0.0,2.3108,2.3108,0.0,0.0,2.3703,2.3703,2.3703,0.0,0.0,0.0,2.3703,0.0,2.3703,2.3484,2.3108,2.3108,2.3108,2.3108,2.3108,2.3308,2.374,2.4462,2.5008,0.0,0.0,0.0,0.0,0.0,2.6499,2.6499,0.0,2.6499,2.6499,2.6499,2.6499,0.0,2.6499,2.6499,2.6499,2.6499,2.6499,2.6499,2.6499,2.6499,2.6499,0.0,0.0,2.6499,2.6499,0.0,0.0,0.0,0.0,0.0,0.0,0.0,0.0,0.0,0.0,0.0,0.0,0.0,0.0,0.0,0.0,0.0,0.0,0.0,0.0,0.0,0.0,2.2763,2.197,2.2044,2.1655,2.0667,2.0713,2.0749,2.0615,2.0605,2.0605,2.0605,2.0605,2.0605,2.0605,2.0605,2.0605,2.0605,2.0605,2.0605,2.0605,2.0605,2.0605,2.0605,2.0605,2.0605,2.0605,2.0605,2.0605,2.0605,2.0605,2.0605,2.0605,1.9736,0.0,0.0,0.0,0.0,0.0,0.0,0.0,0.0,0.0,2.2882,0.0,2.3108,0.0,2.3195,0.0,2.3791,2.4004,2.4004,2.418,0.0,2.4519,2.4381,2.4293,0.0,0.0,0.0,2.3697,2.3509,2.3509,2.3697,2.3509,2.374,2.4318,2.4858,2.5285,2.5636,2.6248,2.6499,0.0,0.0,2.6499,0.0,0.0,2.6499,2.6499,0.0,2.6499,2.6499,2.6499,2.6499,2.6499,2.6499,2.6499,2.6499,2.6499,2.6499,2.6499,2.6499,2.6499,0.0,2.6499,2.6499,0.0,2.6499,0.0,2.6499,0.0,0.0,0.0,0.0,0.0,0.0,0.0,0.0,0.0,0.0,2.3108,0.0,0.0,0.0,0.0,0.0,2.3108,2.2884,2.2384,2.2535,2.2198,2.1113,2.1246,2.1126,2.0624,2.0934,2.1116,2.1116,2.1451,2.1451,2.1116,2.1116,2.0934,2.0605,2.0605,2.0605,2.0605,2.0605,2.0605,2.0605,2.0605,2.0605,2.0605,2.0605,2.0605,2.0605,2.0605,2.0605,2.0605,1.9836,2.0339,0.0,0.0,2.0352,0.0,0.0,0.0,2.2481,0.0,2.3108,2.3108,2.3108,2.3108,2.3333,2.3954,2.4017,2.4054,2.4079,2.4569,0.0,0.0,2.4594,2.4825,2.4825,0.0,0.0,0.0,0.0,2.4268,2.4738,2.4243,2.4293,2.4813,2.536,0.0,2.5674,2.626,2.6499,2.6499,2.6499,2.6499,2.6499,2.6499,2.6499,2.6499,2.6499,2.6499,2.6499,2.6499,2.6499,2.6499,2.6499,2.6499,2.6499,2.6499,2.6499,2.6499,2.6499,2.6499,2.6499,2.6499,2.6499,0.0,0.0,0.0,2.6499,0.0,0.0,0.0,0.0,0.0,0.0,0.0,0.0,0.0,0.0,0.0,2.3108,0.0,0.0,0.0,0.0,2.3108,2.3108,2.3108,2.364,2.3361,0.0,2.246,2.2121,2.0779,2.1593,2.2065,2.2065,2.3036,2.2999,2.1989,2.1989,2.1517,2.0673,2.0644,2.0644,2.0673,2.0605,2.0605,2.0605,2.0605,2.0605,2.0605,2.0605,2.0605,2.0605,2.0605,2.0605,2.0605,2.039,2.0918,2.1257,0.0,2.0867,2.1018,0.0,0.0,0.0,0.0,2.3108,2.3108,2.3108,2.3108,2.3333,2.3954,2.4368,0.0,0.0,0.0,0.0,2.5845,2.5548,2.5398,2.5398,2.5398,2.5209,2.4788,0.0,0.0,2.4205,2.4067,2.4293,2.4813,0.0,2.5837,2.6285,2.6436,2.6499,2.6499,2.6499,2.6499,2.6499,0.0,2.6499,2.6499,2.6499,2.6499,2.6499,2.6499,2.6499,2.6499,2.6499,2.6499,2.6499,2.6499,2.6499,2.6499,2.6499,2.6499,2.6499,2.6499,2.6499,2.6499,0.0,0.0,0.0,0.0,0.0,0.0,0.0,0.0,0.0,0.0,0.0,0.0,0.0,0.0,0.0,2.3728,0.0,0.0,2.3108,2.3108,2.3108,2.3108,2.3246,2.3212,2.2963,0.0,2.3015,2.2754,2.2999,2.311,2.311,2.3368,2.2999,2.1989,2.1989,2.1886,2.1631,2.0934,2.0972,2.1593,2.0895,2.0605,2.0605,2.0605,2.0605,2.0605,2.0605,2.0605,2.0605,2.0605,2.0605,2.0605,2.0943,2.1307,0.0,2.2121,0.0,0.0,2.2221,2.2493,0.0,2.3058,2.3108,0.0,2.3108,2.3108,2.3434,2.4293,2.4644,0.0,2.5561,0.0,0.0,2.6109,2.6047,2.5975,2.5975,2.5724,0.0,2.5159,0.0,0.0,2.4356,2.4356,2.4644,0.0,0.0,2.6185,2.6499,2.6499,2.6499,2.6499,2.6499,2.6499,0.0,2.6499,2.6499,2.6499,2.6499,2.6499,2.6499,2.6499,2.6499,2.6499,2.6499,2.6499,2.6499,2.6499,2.6499,2.6499,2.6499,2.6499,2.6499,2.6499,2.6499,2.6499,2.6499,2.6499,2.6499,0.0,2.6499,2.6499,0.0,0.0,0.0,0.0,0.0,0.0,0.0,0.0,0.0,0.0,2.3822,0.0,2.3484,2.3246,2.3108,2.3108,2.3333,2.3429,0.0,0.0,2.3642,2.3492,2.3927,2.4156,2.4156,2.4588,2.4325,2.3294,2.3294,2.285,2.1989,2.1441,2.1479,2.1962,2.1011,2.0818,2.1193,2.0789,2.0605,2.0605,2.0605,2.0605,2.0605,2.0605,2.0605,2.0605,2.1493,2.1656,0.0,0.0,0.0,0.0,0.0,2.2794,0.0,2.3108,0.0,2.3108,2.3108,2.3108,2.3534,2.4587,2.4687,2.4933,2.546,2.6059,2.616,2.5624,2.6185,2.6499,2.6499,2.5996,2.5674,0.0,0.0,0.0,2.4687,2.4763,0.0,0.0,0.0,0.0,0.0,2.6499,2.6499,2.6499,2.6499,2.6499,2.6499,2.6499,2.6499,2.6499,2.6499,2.6499,2.6499,2.6499,2.6499,2.6499,2.6499,2.6499,2.6499,2.6499,2.6499,2.6499,2.6499,2.6499,2.6499,2.6499,2.6499,2.6499,2.6499,2.6499,2.6499,2.6499,2.6499,2.6499,0.0,0.0,0.0,0.0,0.0,0.0,0.0,0.0,0.0,0.0,0.0,0.0,0.0,2.3446,2.3108,2.3108,2.3602,2.3783,2.3499,0.0,2.4178,2.3904,2.4743,2.5194,2.5194,2.606,2.599,2.5004,2.5004,2.4072,2.2403,2.2253,2.2253,2.2328,2.127,2.127,2.1924,2.1011,2.0673,2.0789,2.0789,2.0789,2.0789,2.0789,2.0712,2.0605,2.2058,0.0,0.0,0.0,0.0,2.2957,2.2957,2.3045,2.3108,2.3108,2.3108,2.3108,2.3108,2.3108,2.3384,2.4092,2.4142,0.0,0.0,0.0,0.0,2.5598,2.6185,2.6499,2.6499,2.6399,2.6109,0.0,0.0,0.0,2.4155,0.0,0.0,0.0,0.0,0.0,2.6499,2.6499,0.0,2.6499,2.6499,2.6499,2.6499,2.6499,2.6499,2.6499,2.6499,2.6499,2.6499,2.6499,2.6499,2.6499,2.6499,2.6499,2.6499,2.6499,2.6499,2.6499,2.6499,2.6499,2.6499,2.6499,2.6499,2.6499,2.6499,2.6499,2.6499,2.6499,2.6499,2.6499,2.6499,0.0,0.0,0.0,0.0,0.0,0.0,0.0,0.0,0.0,0.0,2.4004,0.0,0.0,2.3108,2.3108,2.3195,2.3635,0.0,0.0,2.5078,0.0,2.6164,0.0,0.0,0.0,2.599,2.5004,2.5004,2.4826,2.4456,2.3635,2.3697,2.4373,2.2553,2.1849,2.1924,2.1011,2.1039,2.1735,2.1735,2.1735,2.1735,2.1735,2.126,2.0605,2.2656,0.0,0.0,0.0,0.0,0.0,0.0,2.3108,2.3108,2.3108,2.3358,2.3446,2.3133,2.3371,2.369,2.3966,2.4004,2.423,2.475,2.531,2.5598,2.5598,2.6185,2.6499,2.6499,2.6197,2.5908,2.5598,0.0,0.0,0.0,0.0,0.0,2.4838,0.0,2.6499,0.0,0.0,0.0,2.6499,2.6499,2.6499,2.6499,2.6499,2.6499,2.6499,2.6499,2.6499,2.6499,2.6499,2.6499,2.6499,2.6499,2.6499,2.6499,2.6499,2.6499,2.6499,2.6499,2.6499,2.6499,2.6499,2.6499,2.6499,2.6499,2.6499,2.6499,2.6499,2.6499,2.6499,2.6499,2.6499,0.0,0.0,0.0,0.0,0.0,0.0,2.5762,0.0,0.0,0.0,0.0,0.0,0.0,0.0,0.0,0.0,0.0,0.0,2.5598,0.0,0.0,0.0,2.6499,0.0,2.6245,2.5769,2.5769,2.5511,2.4969,2.448,2.4528,2.4933,2.3404,2.3073,2.3478,2.2526,2.2376,2.2776,2.2776,2.2776,2.2776,2.2776,2.2489,2.1973,2.3258,2.3195,0.0,0.0,2.3183,2.3108,2.3108,2.3108,2.3108,2.3108,2.3496,2.364,2.3158,2.3509,2.3816,2.3816,2.3816,2.4004,2.4399,2.4958,2.531,2.5423,2.5975,2.6361,2.6499,2.6047,2.5724,0.0,0.0,0.0,0.0,0.0,0.0,0.0,0.0,0.0,0.0,0.0,2.6499,2.6499,2.6499,2.6499,2.6499,2.6499,2.6499,2.6499,2.6499,2.6499,2.6499,2.6499,2.6499,2.6499,2.6499,2.6499,2.6499,2.6499,2.6499,2.6499,2.6499,2.6499,2.6499,2.6499,2.6499,2.6499,2.6499,2.6499,2.6499,2.6499,2.6499,2.6499,2.6499,2.6499,0.0,0.0,0.0,0.0,0.0,0.0,0.0,0.0,0.0,0.0,2.48,0.0,0.0,0.0,0.0,0.0,2.5548,0.0,0.0,0.0,0.0,2.6499,2.6499,0.0,2.6499,2.6499,2.6499,2.6094,2.5335,2.5335,2.5335,2.5252,2.4264,2.4156,2.4636,2.3818,2.3635,2.3818,2.3818,2.3818,2.3818,2.3818,2.3672,2.3294,0.0,0.0,0.0,0.0,0.0,2.3108,2.3108,2.3108,2.3108,2.3108,2.3145,2.3158,2.3108,2.3158,2.3183,2.3183,2.3183,2.3208,2.3258,2.3828,2.4368,2.4838,2.5398,2.5925,2.6487,2.6436,2.616,0.0,0.0,2.5259,0.0,0.0,0.0,0.0,0.0,0.0,0.0,2.6499,2.6499,2.6499,2.6499,2.6499,2.6499,2.6499,2.6499,2.6499,2.6499,2.6499,2.6499,2.6499,2.6499,2.6499,2.6499,2.6499,2.6499,2.6499,2.6499,2.6499,2.6499,2.6499,2.6499,2.6499,2.6499,2.6499,2.6499,2.6499,2.6499,2.6499,2.6499,2.6499,2.6499,2.6499,2.6499,0.0,0.0,0.0,0.0,0.0,2.6499,2.6499,0.0,0.0,2.4838,2.4738,0.0,0.0,2.4713,0.0,0.0,0.0,0.0,2.6474,2.6499,2.6499,2.6499,2.6499,2.6499,2.6499,2.6499,2.6465,2.6349,2.6349,2.6349,2.6314,2.53,2.4409,2.3624,2.3551,2.4036,2.4862,2.4862,2.4862,2.4862,2.4862,2.4264,2.3478,0.0,0.0,0.0,0.0,0.0,0.0,0.0,2.3396,2.3496,2.3145,2.3409,2.3496,2.3145,2.3409,2.3484,2.3133,2.3108,2.3108,2.3108,2.3647,2.4243,2.4763,2.5322,2.5862,2.6487,2.6499,2.6386,0.0,0.0,0.0,0.0,0.0,0.0,0.0,0.0,2.6499,2.6499,2.6499,2.6499,2.6499,2.6499,2.6499,2.6499,2.6499,2.6499,2.6499,2.6499,2.6499,2.6499,2.6499,2.6499,2.6499,2.6499,2.6499,2.6499,2.6499,2.6499,2.6499,2.6499,2.6499,2.6499,2.6499,2.6499,2.6499,2.6499,2.6499,2.6499,2.6499,2.6499,2.6499,2.6499,2.6499,2.6499,2.6499,0.0,0.0,0.0,0.0,0.0,2.6499,0.0,2.5523,0.0,2.5285,0.0,0.0,0.0,0.0,0.0,0.0,0.0,2.6487,0.0,2.6499,2.6499,2.6499,2.6499,2.6499,2.6499,2.6499,2.6499,2.6499,2.6499,2.6499,2.606,2.5687,2.5311,2.5311,2.5534,2.5908,2.5908,2.5908,2.5908,2.5908,2.5859,2.5744,2.4431,0.0,2.4104,0.0,2.381,2.3803,2.3195,2.3446,2.3572,2.3158,2.3459,2.3559,2.3145,2.3471,2.3547,2.3145,2.3108,2.3108,2.3108,2.3647,2.4243,2.4763,2.5322,0.0,2.6487,2.6499,2.6499,2.6499,2.6499,0.0,0.0,0.0,0.0,0.0,2.6499,2.6499,2.6499,2.6499,2.6499,2.6499,2.6499,2.6499,2.6499,2.6499,2.6499,2.6499,2.6499,2.6499,2.6499,2.6499,2.6499,2.6499,2.6499,2.6499,2.6499,2.6499,2.6499,2.6499,2.6499,2.6499,2.6499,2.6499,2.6692,2.6782,2.6555,2.6692,2.6782,2.6555,2.6499,2.6499,2.6499,2.6499,2.6499,2.6499,0.0,0.0,0.0,2.6499,0.0,2.6499,2.6135,2.5787,2.5611,2.5749,0.0,0.0,0.0,0.0,0.0,0.0,0.0,0.0,0.0,0.0,2.6499,2.6499,2.6499,2.6499,2.6499,2.6499,2.6499,2.6499,2.6499,2.6499,2.6499,2.6499,2.6499,2.6499,2.6499,2.6499,2.6499,2.6499,2.6512,2.6675,2.6977,2.7291,2.5473,2.5159,2.4775,2.4775,2.4356,2.3803,2.3195,2.3108,2.3108,2.3108,2.3108,2.3108,2.3108,2.3108,2.3108,2.3108,2.3108,2.3108,2.3108,2.3647,2.4243,0.0,0.0,2.5862,2.6487,2.6499,2.6499,2.6499,0.0,0.0,2.6487,0.0,2.6499,2.6499,2.6499,2.6499,2.6499,2.6499,2.6499,2.6499,2.6499,2.6499,2.6499,2.6499,2.6499,2.6499,2.6499,2.6499,2.6499,2.6499,2.6499,2.6499,2.6499,2.6499,2.6499,2.6499,2.6499,2.6499,2.6499,2.6499,2.6499,2.6499,2.7095,2.7484,2.6692,2.7095,2.7451,2.6658,2.6499,2.6499,2.6499,2.6499,2.6499,2.6499,0.0,0.0,0.0,2.6499,0.0,2.6499,2.6487,2.626,2.5649,2.6147,0.0,0.0,0.0,0.0,0.0,0.0,0.0,2.6499,2.6499,0.0,2.6499,2.6499,2.6499,2.6499,2.6499,2.6499,2.6499,2.6499,2.6499,2.6499,2.6499,2.6499,2.6499,2.6499,2.6499,2.6499,2.6499,2.6499,2.6562,2.7102,2.7268,2.7356,2.5561,2.5172,2.4675,2.433,2.4117,2.3803,2.3195,2.3446,2.359,2.3158,2.3108,2.3108,2.3108,2.3108,2.3108,0.0,2.3108,2.3271,0.0,2.3891,2.4406,2.531,2.5511,2.5862,2.6487,2.6499,2.6499,2.6499,0.0,0.0,0.0,2.6499,2.6499,2.6499,2.6499,2.6499,2.6499,2.6499,2.6499,2.6499,2.6499,2.6499,2.6499,2.6499,2.6499,2.6499,2.6499,2.6499,2.6499,2.6499,2.6499,2.6499,2.6499,2.6499,2.6499,2.6499,2.6871,2.7317,2.7317,2.7317,2.7317,2.7317,2.7095,2.6816,2.6555,2.6679,2.6816,2.6555,2.6499,2.6499,2.6499,2.6499,2.6499,2.6499,2.6499,0.0,2.6499,0.0,2.6499,2.6499,2.6499,2.6424,2.6235,2.6386,0.0,0.0,0.0,0.0,0.0,0.0,0.0,0.0,2.6499,0.0,2.6499,2.6499,2.6499,2.6499,2.6499,2.6499,2.6499,2.6499,2.6499,2.6499,2.6499,2.6499,2.6499,2.6499,2.6713,2.7014,2.6637,2.6725,2.7077,2.7253,2.7519,2.7871,2.5925,2.5661,2.5259,2.4695,2.4443,2.4117,2.3521,2.359,2.354,2.3145,2.3108,2.3108,2.3108,2.3108,0.0,2.3108,2.3108,2.3346,2.3966,2.4192,2.4695,2.5561,2.5799,2.6122,2.6487,2.6499,0.0,2.6499,2.6499,2.6499,2.6499,2.6499,2.6499,2.6499,2.6499,2.6499,2.6499,2.6499,2.6499,2.6499,2.6499,2.6499,2.6499,2.6499,2.6499,2.6499,2.6499,2.6499,2.6499,2.6499,2.6499,2.6499,2.6499,2.6499,2.6499,2.6499,2.685,2.7317,2.7604,2.7703,2.7703,2.7703,2.7571,2.7351,2.704,2.6939,2.685,2.6555,2.6748,2.685,2.6555,2.6499,2.6499,2.6499,2.6499,2.6499,2.6499,0.0,2.6499,0.0,0.0,0.0,0.0,2.6499,2.6499,0.0,0.0,0.0,0.0,0.0,0.0,2.6499,2.6499,2.6499,2.6499,2.6499,2.6499,2.6499,2.6499,2.6499,2.6499,2.6499,2.6499,2.6499,2.6499,2.6499,2.6499,2.6499,2.67,2.6977,2.6625,2.67,2.7027,2.7241,2.7632,2.8134,2.6499,2.6461,2.6248,2.5636,2.5109,2.4569,2.4017,2.3446,2.3108,2.3108,2.3108,2.3108,2.3108,2.3108,2.3108,2.3108,0.0,0.0,2.4017,2.4531,2.5071,2.5636,2.621,2.6499,2.6499,2.6499,2.6499,2.6499,2.6499,2.6499,2.6499,2.6499,2.6499,2.6499,2.6499,2.6499,2.6499,2.6499,2.6499,2.6499,2.6499,2.6499,2.6499,2.6499,2.6499,2.6499,2.6499,2.6499,2.6499,2.6499,2.6499,2.6499,2.6499,2.6499,2.6499,2.6499,2.6521,2.6748,2.7517,2.7703,2.7703,2.7703,2.8298,2.8716,2.7887,2.7703,2.7484,2.6692,2.7129,2.7451,2.6658,2.6555,2.6555,2.6499,2.6499,2.6499,2.6499,2.6499,2.6499,0.0,0.0,0.0,2.6499,2.6499,2.6499,0.0,0.0,0.0,0.0,0.0,2.6499,2.6499,2.6499,2.6499,2.6499,2.6499,2.6499,2.6499,2.6499,2.6499,2.6499,2.6499,2.6499,2.6499,2.6499,2.6499,2.6499,2.6499,2.6512,2.6549,2.6512,2.6512,2.6612,2.7128,2.7607,2.8134,0.0,0.0,2.5636,2.5096,2.4556,2.4004,2.3396,2.3195,2.3108,2.3108,2.3108,2.3108,2.3108,2.3108,2.3108,2.3108,2.3108,2.3534,2.4525,2.4713,2.5247,2.6248,2.6424,2.6499,2.6499,2.6499,2.6499,2.6499,2.6499,2.6499,2.6499,2.6499,2.6499,2.6499,2.6499,2.6499,2.6499,2.6499,2.6499,2.6499,2.6499,2.6499,2.6499,2.6499,2.6499,2.6499,2.6499,2.6499,2.6499,2.6499,2.6499,2.6499,2.6499,2.6499,2.6499,2.6499,2.6939,2.7451,2.7637,2.7703,2.7703,2.7703,2.7855,2.7953,2.7769,2.7703,2.7484,2.6692,2.7129,2.7451,2.6658,2.7007,2.7196,2.6589,2.6499,2.6499,2.6499,2.6499,2.6499,0.0,2.6499,2.6499,2.6499,2.6499,2.6499,0.0,0.0,2.6499,2.6499,2.6499,2.6499,2.6499,2.6499,2.6499,2.6499,2.6499,2.6499,2.6499,2.6499,2.6499,2.6499,2.6499,2.6499,2.6499,2.6499,2.6499,2.6499,2.6499,2.6738,2.7077,2.6663,2.6751,2.714,2.7231,2.7369,2.7557,2.6499,2.6248,2.5824,2.5272,2.4732,2.418,2.3584,2.3283,2.3108,2.3108,2.3108,2.3108,2.3108,2.3108,2.3108,2.3108,2.3108,2.3484,2.4393,2.465,2.5197,2.6059,2.6348,2.6499,2.6499,2.6499,2.6499,2.6499,2.6499,2.6499,2.6499,2.6499,2.6499,2.6499,2.6499,2.6499,2.6499,2.6499,2.6499,2.6499,2.6499,2.6499,2.6499,2.6499,2.6499,2.6499,2.6499,2.6499,2.6499,2.6499,2.6499,2.6499,2.6499,2.6499,2.6499,2.6499,2.6816,2.7229,2.7604,2.7703,2.7703,2.7703,2.7417,2.7162,2.7162,2.7451,2.7484,2.6692,2.7129,2.7451,2.6658,2.685,2.7007,2.6555,2.6499,2.6499,2.6499,2.6499,2.6499,2.6499,2.6499,2.6499,2.6499,2.6499,2.6499,2.6499,2.6499,0.0,2.6499,2.6499,2.6499,2.6499,2.6499,2.6499,2.6499,2.6499,2.6499,2.6499,2.6499,2.6499,2.6499,2.6499,2.6499,2.6499,2.6499,2.6499,2.6499,2.6499,2.6663,2.6914,2.6612,2.6675,2.6939,2.6939,2.7102,2.7318,2.6361,2.6361,2.616,2.5473,2.5059,2.4575,2.3966,2.3421,2.3108,2.3108,2.3108,2.3108,2.3108,2.3108,2.3108,2.3108,2.3108,2.3346,2.3966,2.4443,2.4958,2.5573,2.6097,2.6411,2.6499,2.6499,2.6499,2.6499,2.6499,2.6499,2.6499,2.6499,2.6499,2.6499,2.6499,2.6499,2.6499,2.6499,2.6499,2.6499,2.6499,2.6499,2.6499,2.6499,2.6499,2.6499,2.6499,2.6499,2.6499,2.6499,2.6499,2.6499,2.6499,2.6499,2.6499,2.6499,2.6589,2.6816,2.7384,2.7517,2.7571,2.7835,2.7297,2.6714,2.685,2.7284,2.7484,2.6692,2.7129,2.7451,2.6658,2.6589,2.6658,2.6521,2.6499,2.6499,2.6499,0.0,2.6499,2.6499,2.6499,2.6499,2.6499,2.6499,2.6499,2.6499,2.6499,2.6499,2.6499,2.6499,2.6499,2.6499,2.6499,2.6499,2.6499,2.6499,2.6499,2.6499,2.6499,2.6499,2.6499,2.6499,2.6499,2.6499,2.6499,2.6499,2.6499,2.6499,2.6499,2.6499,2.6499,2.6499,2.6499,2.6499,2.6788,2.7203,2.5737,2.5737,2.541,2.4418,2.4537,2.4437,2.3396,2.3158,2.3108,2.3108,2.3108,2.3108,2.3108,2.3108,2.3108,2.3108,2.3108,2.3346,2.3966,2.4079,2.4569,2.5548,2.5686,2.5996,2.6487,2.6499,2.6499,2.6499,2.6499,2.6499,2.6499,2.6499,2.6499,2.6499,2.6499,2.6499,2.6499,2.6499,2.6499,2.6499,2.6499,2.6499,2.6499,2.6499,2.6499,2.6499,2.6499,2.6499,2.6499,2.6499,2.6499,2.6499,2.6499,2.6499,2.6499,2.6499,2.6973,2.7384,2.685,2.6679,2.704,2.8427,2.8149,2.7703,2.8427,2.8149,2.7484,2.6692,2.7129,2.7451,2.6658,2.7074,2.7284,2.6624,2.6499,2.6499,2.6499,0.0,2.6499,2.6499,2.6499,2.6499,2.6499,2.6499,2.6499,2.6499,2.6499,2.6499,2.6499,2.6499,2.6499,2.6499,2.6499,2.6499,2.6499,2.6499,2.6499,2.6499,2.6499,2.6499,2.6499,2.6499,2.6499,2.6499,2.6499,2.6499,2.6499,2.6499,2.6499,2.6499,2.6499,2.6499,2.6499,2.6499,2.6549,2.6688,2.6097,2.6097,2.5757,2.4632,2.4657,2.4412,2.3271,2.3108,2.3108,2.3108,2.3108,2.3108,2.3108,2.3108,2.3108,2.3108,2.3108,2.3221,2.3484,2.3828,2.4356,2.5146,2.5448,2.5862,2.6487,2.6499,2.6499,2.6499,2.6499,2.6499,2.6499,2.6499,2.6499,2.6499,2.6499,2.6499,2.6499,2.6499,2.6499,2.6499,2.6499,2.6499,2.6499,2.6499,2.6499,2.6499,2.6499,2.6499,2.6499,2.6499,2.6499,2.6499,2.6499,2.6499,2.6499,2.6499,2.7061,2.7604,2.7263,2.7484,2.792,2.8214,2.7986,2.7802,2.8214,2.7637,2.6939,2.6589,2.6816,2.6939,2.6555,2.6816,2.6939,2.6555,2.6499,0.0,2.6499,2.6499,2.6499,2.6499,2.6499,2.6499,2.6499,2.6499,2.6499,2.6499,2.6499,2.6625,2.6927,2.6663,2.6637,2.6927,2.665,2.6499,2.6499,2.6499,2.6499,2.6499,2.6499,2.665,2.6939,2.6939,2.7102,2.7344,2.7344,2.7216,2.6939,2.6939,2.6763,2.6499,2.6499,2.6499,2.6524,2.6826,2.6939,2.7014,2.6902,2.6747,2.6235,2.5084,2.4848,2.4412,2.3271,2.3108,2.3108,2.3108,2.3108,2.3108,2.3108,2.3108,2.3108,2.3108,2.3108,2.3108,2.3108,2.3647,2.4243,2.4763,2.5448,2.6034,2.6487,2.6499,2.6499,2.6499,2.6499,2.6499,2.6499,2.6499,2.6499,2.6499,2.6499,2.6499,2.6499,2.6499,2.6499,2.6499,2.6499,2.6499,2.6499,2.6499,2.6499,2.6499,2.6499,2.6499,2.6499,2.6499,2.6499,2.6499,2.6499,2.6499,2.6499,2.6499,2.7061,2.767,2.7484,2.792,2.8298,2.7835,2.7571,2.7484,2.767,2.7061,2.6499,2.6499,2.6499,2.6499,2.6499,2.6499,2.6499,2.6499,0.0,2.6499,2.6499,2.6499,2.6499,2.6499,2.6499,2.6499,2.6499,2.6499,2.6549,2.6675,2.6688,2.6876,2.7291,2.704,2.7014,2.7268,2.6901,2.6625,2.6499,2.6751,2.6751,2.6499,2.6751,2.7027,2.7293,2.7419,2.7708,2.8109,2.8109,2.7871,2.7469,2.7331,2.7065,2.6688,2.6688,2.6688,2.6751,2.7268,2.7469,2.7557,2.8068,2.7427,2.6498,2.5374,2.4967,2.4412,2.3271,2.3108,2.3108,2.3108,2.3108,2.3108,2.3108,2.3108,2.3108,2.3108,2.3108,2.3108,2.3108,2.3647,2.4243,2.4763,2.5871,2.6449,2.6499,2.6499,2.6499,2.6499,2.6499,2.6499,2.6499,2.6499,2.6499,2.6499,2.6499,2.6499,2.6499,2.6499,2.6499,2.6499,2.6499,2.6499,2.6499,2.6499,2.6499,2.6499,2.6499,2.6499,2.6499,2.6499,2.6499,2.6499,2.6499,2.6499,2.6499,2.6499,2.7061,2.7537,2.6782,2.6658,2.685,2.755,2.7129,2.6782,2.755,2.7061,2.6499,2.6499,2.6499,2.6499,2.6499,2.6499,2.6499,2.6499,0.0,0.0,2.6499,2.6499,2.6499,2.6499,2.6499,2.6499,2.6499,2.6499,2.6713,2.718,2.7218,2.7278,2.7281,2.772,2.777,2.7293,2.7278,2.7014,2.6499,2.7469,2.7469,2.6499,2.7494,2.7733,2.7341,2.7808,2.8059,2.8109,2.8109,2.8084,2.8009,2.7494,2.7291,2.7218,2.7218,2.7218,2.7329,2.7846,2.8047,2.8122,2.8688,2.8437,2.7849,2.6639,2.5972,2.5208,2.4024,2.3424,2.3108,2.3108,2.3108,2.3108,2.3108,2.3108,2.3108,2.3108,2.3108,2.3258,2.364,2.4161,2.4745,2.5272,2.6084,2.6499,2.6499,2.6499,2.6499,2.6499,2.6499,2.6499,2.6499,2.6499,2.6499,2.6499,2.6499,2.6499,2.6499,2.6499,2.6499,2.6499,2.6499,2.6499,2.6499,2.6499,2.6499,2.6499,2.6499,2.6499,2.6499,2.6499,2.6499,2.6499,2.6499,2.6499,2.6499,2.6499,2.6714,2.6871,2.6589,2.7263,2.7986,2.7769,2.7484,2.7317,2.7637,2.7061,2.6499,2.6499,2.6499,2.6499,2.6499,2.6499,2.6499,2.6499,0.0,2.6499,2.6499,2.6499,2.6499,2.6499,2.6801,2.7002,2.7002,2.7281,2.757,2.777,2.7795,2.7946,2.8285,2.8499,2.836,2.7808,2.8122,2.7708,2.6499,2.7557,2.772,2.7014,2.7745,2.8172,2.831,2.8511,2.8812,2.9151,2.9151,2.895,2.8562,2.8398,2.8109,2.7795,2.7795,2.7795,2.7858,2.8411,2.8612,2.8662,2.9797,2.9226,2.8426,2.7419,2.6233,2.5157,2.4316,2.3734,2.3434,2.3609,2.3484,2.3371,2.3371,2.3371,2.3308,2.312,2.3434,2.3722,2.3979,2.4669,2.531,2.585,2.6285,2.6499,2.6499,2.6499,2.6499,2.6499,2.6499,2.6499,2.6499,2.6499,2.6499,2.6499,2.6499,2.6499,2.6499,2.6499,2.6499,2.6499,2.6499,2.6499,2.6499,2.6499,2.6499,2.6499,2.6499,2.6499,2.6499,2.6499,2.6499,2.6499,2.6499,2.6499,2.6499,2.6499,2.6499,2.6499,2.6499,2.7447,2.8278,2.7523,2.7317,2.7317,2.7317,2.7011,2.6751,2.6751,2.6889,2.7014,2.7014,2.7014,2.7014,2.7014,2.7014,2.7014,2.7014,2.7014,2.7014,2.7014,2.7341,2.7544,2.7544,2.7883,2.8185,2.8348,2.836,2.8574,2.9126,2.8988,2.8712,2.8373,2.89,2.8486,2.7027,2.8084,2.8273,2.7544,2.8285,2.8737,2.89,2.9076,2.9415,2.9792,2.9792,2.9566,2.9189,2.8963,2.8662,2.836,2.836,2.836,2.8436,2.9001,2.9202,2.9252,3.1496,2.972,2.8019,2.7424,2.5489,2.4035,2.4035,2.4004,2.4205,2.4713,2.4343,2.4004,2.4004,2.4004,2.3778,2.317,2.4148,2.4594,2.4054,2.5008,2.585,2.6461,2.6499,2.6499,2.6499,2.6499,2.6499,2.6499,2.6499,2.6499,2.6499,2.6499,2.6499,2.6499,2.6499,2.6499,2.6499,2.6499,2.6499,2.6499,2.6499,2.6499,2.6499,2.6499,2.6499,2.6499,2.6499,2.6499,2.6499,2.6499,2.6499,2.6499,2.6499,2.6499,2.6499,2.6499,2.6499,2.6499,2.6499,2.6901,2.719,2.6637,2.6499,2.6499,2.6512,2.6939,2.7329,2.7329,2.772,2.8109,2.8109,2.8109,2.8109,2.8109,2.8109,2.8109,2.8109,2.8109,2.8109,2.8109,2.8109,2.8109,2.8109,2.8109,2.8348,2.8863,2.89,2.9189,2.9767,2.9252,2.89,2.89,2.949,2.9252,2.8134,2.9227,2.9227,2.8122,2.9252,2.949,2.8913,2.9528,2.9792,2.9792,2.9792,2.9792,2.9741,2.9126,2.89,2.89,2.89,2.89,2.8963,2.9578,2.9792,2.9792,3.0883,3.0288,2.9753,2.9576,2.7731,2.626,2.626,2.5288,2.4632,2.4763,2.465,2.4569,2.4569,2.4569,2.4474,2.4299,2.46,2.4908,2.5109,2.5833,2.6311,2.6487,2.6499,2.6499,2.6499,2.6499,2.6499,2.6499,2.6499,2.6499,2.6499,2.6499,2.6499,2.6499,2.6499,2.6499,2.6499,2.6499,2.6499,2.6499,2.6499,2.6499,2.6499,2.6499,2.6499,2.6499,2.6499,2.6499,2.6499,2.6499,2.6499,2.6499,2.6499,2.6499,2.6499,2.6499,2.6763,2.7065,2.7065,2.7444,2.79,2.8023,2.7822,2.7786,2.8442,2.8209,2.7858,2.7858,2.7996,2.8109,2.8109,2.8109,2.8109,2.8109,2.8109,2.8109,2.8109,2.8109,2.8109,2.8109,2.8411,2.865,2.865,2.9051,2.9365,2.9528,2.9528,2.9616,2.9779,2.9628,2.9528,2.9528,2.9704,2.9628,2.9302,2.9628,2.9415,2.865,2.944,2.9704,2.9541,2.9716,2.9792,2.9792,2.9792,2.9792,2.9779,2.9603,2.9528,2.9528,2.9528,2.9528,2.9553,2.9729,2.9792,2.9792,3.0972,3.0446,3.0068,3.0068,2.8248,2.684,2.704,2.6269,2.5717,2.5935,2.6077,2.6143,2.6143,2.6143,2.6052,2.5803,2.5709,2.5741,2.5933,2.6298,2.6499,2.6499,2.6499,2.6499,2.6499,2.6499,2.6499,2.6499,2.6499,2.6499,2.6499,2.6499,2.6499,2.6499,2.6499,2.6499,2.6499,2.6499,2.6499,2.6499,2.6499,2.6499,2.6499,2.6499,2.6499,2.6499,2.6499,2.6499,2.6499,2.6499,2.6499,2.6499,2.6499,2.6499,2.6537,2.6751,2.7052,2.7331,2.7544,2.8009,2.8556,2.921,2.874,2.8243,2.8818,2.8686,2.8436,2.8436,2.8612,2.8775,2.8775,2.8775,2.8775,2.8775,2.8775,2.8775,2.8775,2.8775,2.8775,2.8775,2.9063,2.9277,2.9277,2.9591,2.9792,2.9792,2.9993,3.0018,2.9804,2.9792,2.9792,2.9792,2.9792,2.9792,2.9792,3.0005,2.9829,2.9277,2.9628,2.9792,2.9792,2.9792,2.9792,2.9792,2.9792,2.9792,2.9792,2.9792,2.9792,2.9792,2.9792,2.9792,2.9792,2.9792,2.9792,2.9792,3.1421,3.0381,2.9508,2.9566,2.7813,2.6552,2.7107,2.7136,2.7258,2.7756,2.808,2.8266,2.8266,2.8266,2.803,2.7508,2.7148,2.6837,2.653,2.6499,2.6499,2.6499,2.6499,2.6499,2.6499,2.6499,2.6499,2.6499,2.6499,2.6499,2.6499,2.6499,2.6499,2.6499,2.6499,2.6499,2.6499,2.6499,2.6499,2.6499,2.6499,2.6499,2.6499,2.6499,2.6499,2.6499,2.6499,2.6499,2.6499,2.6499,2.6499,2.6499,2.6499,2.6499,2.66,2.7153,2.7318,2.7482,2.8034,2.8586,2.9176,3.0127,2.9299,2.826,2.8357,2.8674,2.8963,2.8963,2.9465,2.9854,2.9804,2.9829,2.9854,2.9804,2.9792,2.9792,2.9792,2.9792,2.9817,2.9867,2.9867,2.988,2.993,2.993,2.993,2.993,3.0357,3.0419,2.9967,2.9842,2.9817,2.9867,2.9867,2.9867,2.9867,3.0407,3.0407,2.9867,2.9917,2.9917,2.9867,2.9917,2.9917,2.9867,2.9867,2.9867,2.9867,2.9817,2.9792,2.9792,2.9792,2.9792,2.9792,2.9792,2.9829,2.9867,3.0808,3.0485,3.0431,3.0966,2.9696,2.8815,2.9468,2.8997,2.8598,2.8689,2.8797,2.884,2.884,2.884,2.8771,2.8647,2.7946,2.722,2.6555,2.6499,2.6499,2.6499,2.6499,2.6499,2.6499,2.6499,2.6499,2.6499,2.6499,2.6499,2.6499,2.6499,2.6499,2.6499,2.6499,2.6499,2.6499,2.6499,2.6499,2.6499,2.6499,2.6499,2.6499,2.6499,2.6499,2.6499,2.6499,2.6499,2.6499,2.6499,2.6499,2.6499,2.6499,2.6499,2.66,2.7153,2.7595,2.8047,2.8562,2.9164,2.968,2.9859,2.9694,2.9631,3.0344,3.0036,2.9603,2.9603,3.0055,3.0306,2.988,3.0143,3.0294,2.9867,2.9792,2.9792,2.9792,2.9792,2.9955,3.0382,3.0432,3.0595,3.0997,3.1047,3.1047,3.1047,3.0771,3.0733,3.1035,3.0244,2.9993,3.0419,3.0432,3.0432,3.0432,3.0959,3.0959,3.0444,3.0846,3.0834,3.0457,3.0859,3.0821,3.0432,3.0432,3.0432,3.0407,2.9967,2.9792,2.9792,2.9792,2.9792,2.9792,2.9792,3.0068,3.0432,3.1032,3.0972,3.1077,3.1436,3.0558,2.9894,3.0256,2.9919,2.9628,2.9628,2.995,3.0208,3.0208,3.0208,2.9858,2.9066,2.8214,2.7351,2.6555,2.6499,2.6499,2.6499,2.6499,2.6499,2.6499,2.6499,2.6499,2.6499,2.6499,2.6499,2.6499,2.6499,2.6499,2.6499,2.6499,2.6499,2.6499,2.6499,2.6499,2.6499,2.6499,2.6499,2.6499,2.6499,2.6499,2.6499,2.6499,2.6499,2.6499,2.6499,2.6499,2.6537,2.6801,2.6889,2.7052,2.7821,2.8273,2.8624,2.9189,2.9566,2.9792,2.9792,2.9993,3.0262,3.0483,3.0342,3.0181,3.0181,3.0608,3.0896,3.0608,3.0783,3.0884,3.0595,3.0557,3.0557,3.0557,3.0557,3.067,3.0947,3.0984,3.1085,3.1361,3.1625,3.1675,3.1411,3.1386,3.1373,3.1386,3.0859,3.0683,3.0972,3.0984,3.0984,3.0984,3.1512,3.165,3.1373,3.1386,3.1248,3.0997,3.1273,3.1248,3.0972,3.0721,3.062,3.057,3.0018,2.9792,2.9792,2.9792,2.9792,2.9829,3.0093,3.0369,3.057,3.1511,3.1511,3.1511,3.1511,3.097,3.0524,3.0524,3.0524,3.0524,3.0524,3.1087,3.1511,3.1511,3.1511,3.0837,2.916,2.8492,2.767,2.6555,2.6624,2.6714,2.6714,2.6714,2.6714,2.6714,2.6714,2.6658,2.6499,2.6499,2.6499,2.6499,2.6499,2.6499,2.6499,2.6499,2.6499,2.6499,2.6499,2.6499,2.6499,2.6499,2.6499,2.6499,2.6499,2.6499,2.6499,2.6499,2.6499,2.6512,2.66,2.6637,2.6738,2.7291,2.7561,2.7858,2.8661,2.9038,2.9227,2.9667,2.9792,2.9817,2.9905,3.0281,3.052,3.0143,3.0419,3.0746,3.0746,3.116,3.1499,3.1411,3.1461,3.1499,3.1399,3.1386,3.1386,3.1386,3.1386,3.1424,3.1524,3.1612,3.1675,3.1675,3.2089,3.2164,3.1712,3.2014,3.2051,3.17,3.1499,3.1436,3.1524,3.1537,3.1537,3.1537,3.2089,3.2353,3.2353,3.1901,3.1625,3.1537,3.1637,3.1625,3.1499,3.1072,3.0884,3.0834,3.0193,2.993,2.993,2.993,2.993,2.9993,3.0545,3.0696,3.057,3.1511,3.1511,3.1511,3.1511,3.1409,3.1351,3.1351,3.1351,3.1351,3.1351,3.1438,3.1511,3.1511,3.1511,3.0837,2.916,2.9566,2.8971,2.6658,2.7162,2.7537,2.7537,2.7537,2.7537,2.7537,2.7537,2.7196,2.6499,2.6499,2.6499,2.6499,2.6499,2.6499,2.6499,2.6499,2.6499,2.6499,2.6499,2.6499,2.6499,2.6499,2.6499,2.6499,2.6499,2.6499,2.6499,2.6499,2.6499,2.6562,2.7052,2.7203,2.7304,2.7821,2.8536,2.9161,2.8948,2.951,3.0129,2.9859,2.9792,2.9905,3.0382,3.0557,3.0708,3.1085,3.1235,3.1286,3.1286,3.1725,3.1951,3.1486,3.1775,3.1938,3.1461,3.1386,3.1386,3.1386,3.1386,3.1574,3.2051,3.2541,3.2855,3.2855,3.296,3.293,3.2898,3.2453,3.2403,3.2872,3.1926,3.1612,3.2089,3.2102,3.2102,3.2102,3.2667,3.2998,3.2998,3.288,3.2591,3.2114,3.2616,3.2579,3.2102,3.2026,3.1989,3.1926,3.0922,3.0507,3.0507,3.0507,3.0507,3.057,3.1085,3.0997,3.067,3.1511,3.1511,3.1511,3.1511,3.1511,3.1511,3.1511,3.1511,3.1511,3.1511,3.1511,3.1511,3.1511,3.1087,3.0524,2.9797,2.9628,2.9097,2.7953,2.8247,2.8427,2.8427,2.8427,2.8214,2.7703,2.7703,2.7317,2.6499,2.6499,2.6499,2.6499,2.6499,2.6499,2.6499,2.6499,2.6499,2.6499,2.6499,2.6499,2.6499,2.6499,2.6499,2.6499,2.6499,2.6499,2.6499,2.6499,2.6499,2.6575,2.7128,2.7281,2.7431,2.8298,2.8832,2.9191,2.9353,2.9707,3.0023,2.9832,3.0018,3.0306,3.0557,3.106,3.1574,3.18,3.2102,3.224,3.1913,3.2303,3.2616,3.2378,3.2528,3.2616,3.2378,3.2328,3.2328,3.2328,3.2328,3.2428,3.2667,3.2918,3.3124,3.3124,3.3124,3.3124,3.3124,3.2842,3.2805,3.3111,3.2604,3.2441,3.2692,3.2692,3.2692,3.2692,3.2955,3.3124,3.3124,3.3124,3.2943,3.2704,3.2968,3.293,3.2679,3.2353,3.2215,3.2152,3.1373,3.0871,3.0645,3.0934,3.1235,3.1499,3.1424,3.1436,3.1499]}]]